<?xml version="1.0" encoding="UTF-8" standalone="no" ?>
<gpx xmlns="http://www.topografix.com/GPX/1/1" xmlns:xsi="http://www.w3.org/2001/XMLSchema-instance" xsi:schemaLocation="http://www.topografix.com/GPX/1/1 http://www.topografix.com/GPX/1/1/gpx.xsd" version="1.1" creator="VisuGPX - https://www.visugpx.com">
  <metadata>
    <name>Tour du Mont Bouquet </name>
    <desc><![CDATA[Ballade au mont bouquet]]></desc>
  </metadata>
  <trk>
    <name><![CDATA[Tour du Mont Bouquet _1]]></name>
    <trkseg>
      <trkpt lat="44.12881" lon="4.23377">
        <ele>179.199996</ele>
        <time>2012-03-04T10:14:57Z</time>
      </trkpt>
      <trkpt lat="44.12879" lon="4.23364">
        <ele>181.949996</ele>
        <time>2012-03-04T10:14:58Z</time>
      </trkpt>
      <trkpt lat="44.12882" lon="4.23367">
        <ele>189.9</ele>
        <time>2012-03-04T10:15:13Z</time>
      </trkpt>
      <trkpt lat="44.12883" lon="4.23379">
        <ele>190.2</ele>
        <time>2012-03-04T10:15:42Z</time>
      </trkpt>
      <trkpt lat="44.12889" lon="4.23388">
        <ele>190</ele>
        <time>2012-03-04T10:15:49Z</time>
      </trkpt>
      <trkpt lat="44.12895" lon="4.23395">
        <ele>189.7</ele>
        <time>2012-03-04T10:15:55Z</time>
      </trkpt>
      <trkpt lat="44.12901" lon="4.23403">
        <ele>189.3</ele>
        <time>2012-03-04T10:16:01Z</time>
      </trkpt>
      <trkpt lat="44.12902" lon="4.23404">
        <ele>189.3</ele>
        <time>2012-03-04T10:16:02Z</time>
      </trkpt>
      <trkpt lat="44.12915" lon="4.23416">
        <ele>188.5</ele>
        <time>2012-03-04T10:16:13Z</time>
      </trkpt>
      <trkpt lat="44.12921" lon="4.23424">
        <ele>188</ele>
        <time>2012-03-04T10:16:20Z</time>
      </trkpt>
      <trkpt lat="44.12928" lon="4.23432">
        <ele>187.6</ele>
        <time>2012-03-04T10:16:27Z</time>
      </trkpt>
      <trkpt lat="44.12933" lon="4.2344">
        <ele>187.3</ele>
        <time>2012-03-04T10:16:33Z</time>
      </trkpt>
      <trkpt lat="44.12939" lon="4.23447">
        <ele>187</ele>
        <time>2012-03-04T10:16:39Z</time>
      </trkpt>
      <trkpt lat="44.12946" lon="4.23454">
        <ele>186.8</ele>
        <time>2012-03-04T10:16:45Z</time>
      </trkpt>
      <trkpt lat="44.12953" lon="4.23461">
        <ele>186.6</ele>
        <time>2012-03-04T10:16:51Z</time>
      </trkpt>
      <trkpt lat="44.1296" lon="4.23468">
        <ele>186.5</ele>
        <time>2012-03-04T10:16:57Z</time>
      </trkpt>
      <trkpt lat="44.12966" lon="4.23476">
        <ele>186.3</ele>
        <time>2012-03-04T10:17:02Z</time>
      </trkpt>
      <trkpt lat="44.12967" lon="4.23477">
        <ele>186.3</ele>
        <time>2012-03-04T10:17:03Z</time>
      </trkpt>
      <trkpt lat="44.12978" lon="4.23491">
        <ele>186</ele>
        <time>2012-03-04T10:17:13Z</time>
      </trkpt>
      <trkpt lat="44.12985" lon="4.23499">
        <ele>185.9</ele>
        <time>2012-03-04T10:17:19Z</time>
      </trkpt>
      <trkpt lat="44.1299" lon="4.23509">
        <ele>185.8</ele>
        <time>2012-03-04T10:17:28Z</time>
      </trkpt>
      <trkpt lat="44.12992" lon="4.23522">
        <ele>185.9</ele>
        <time>2012-03-04T10:17:35Z</time>
      </trkpt>
      <trkpt lat="44.12992" lon="4.23532">
        <ele>186</ele>
        <time>2012-03-04T10:17:41Z</time>
      </trkpt>
      <trkpt lat="44.12992" lon="4.23543">
        <ele>186.2</ele>
        <time>2012-03-04T10:17:47Z</time>
      </trkpt>
      <trkpt lat="44.12991" lon="4.23555">
        <ele>186.4</ele>
        <time>2012-03-04T10:17:53Z</time>
      </trkpt>
      <trkpt lat="44.12988" lon="4.23566">
        <ele>186.8</ele>
        <time>2012-03-04T10:18:00Z</time>
      </trkpt>
      <trkpt lat="44.12982" lon="4.23575">
        <ele>187.1</ele>
        <time>2012-03-04T10:18:07Z</time>
      </trkpt>
      <trkpt lat="44.12981" lon="4.23577">
        <ele>187.1</ele>
        <time>2012-03-04T10:18:08Z</time>
      </trkpt>
      <trkpt lat="44.1297" lon="4.23592">
        <ele>187.5</ele>
        <time>2012-03-04T10:18:20Z</time>
      </trkpt>
      <trkpt lat="44.12965" lon="4.23601">
        <ele>187.8</ele>
        <time>2012-03-04T10:18:26Z</time>
      </trkpt>
      <trkpt lat="44.1296" lon="4.2361">
        <ele>188.1</ele>
        <time>2012-03-04T10:18:32Z</time>
      </trkpt>
      <trkpt lat="44.12955" lon="4.23618">
        <ele>188.2</ele>
        <time>2012-03-04T10:18:38Z</time>
      </trkpt>
      <trkpt lat="44.12951" lon="4.23628">
        <ele>188.3</ele>
        <time>2012-03-04T10:18:44Z</time>
      </trkpt>
      <trkpt lat="44.12947" lon="4.23638">
        <ele>188.4</ele>
        <time>2012-03-04T10:18:50Z</time>
      </trkpt>
      <trkpt lat="44.12942" lon="4.23647">
        <ele>188.5</ele>
        <time>2012-03-04T10:18:55Z</time>
      </trkpt>
      <trkpt lat="44.12937" lon="4.23657">
        <ele>188.6</ele>
        <time>2012-03-04T10:19:00Z</time>
      </trkpt>
      <trkpt lat="44.12933" lon="4.23666">
        <ele>188.8</ele>
        <time>2012-03-04T10:19:05Z</time>
      </trkpt>
      <trkpt lat="44.12928" lon="4.23675">
        <ele>189.1</ele>
        <time>2012-03-04T10:19:11Z</time>
      </trkpt>
      <trkpt lat="44.12928" lon="4.23676">
        <ele>189.2</ele>
        <time>2012-03-04T10:19:12Z</time>
      </trkpt>
      <trkpt lat="44.12918" lon="4.23694">
        <ele>189.7</ele>
        <time>2012-03-04T10:19:24Z</time>
      </trkpt>
      <trkpt lat="44.12913" lon="4.23702">
        <ele>190</ele>
        <time>2012-03-04T10:19:30Z</time>
      </trkpt>
      <trkpt lat="44.12908" lon="4.23712">
        <ele>190.4</ele>
        <time>2012-03-04T10:19:36Z</time>
      </trkpt>
      <trkpt lat="44.12904" lon="4.23721">
        <ele>190.7</ele>
        <time>2012-03-04T10:19:42Z</time>
      </trkpt>
      <trkpt lat="44.12899" lon="4.2373">
        <ele>191</ele>
        <time>2012-03-04T10:19:48Z</time>
      </trkpt>
      <trkpt lat="44.12894" lon="4.2374">
        <ele>191.3</ele>
        <time>2012-03-04T10:19:55Z</time>
      </trkpt>
      <trkpt lat="44.12889" lon="4.23749">
        <ele>191.6</ele>
        <time>2012-03-04T10:20:01Z</time>
      </trkpt>
      <trkpt lat="44.12882" lon="4.23757">
        <ele>191.9</ele>
        <time>2012-03-04T10:20:09Z</time>
      </trkpt>
      <trkpt lat="44.12874" lon="4.23757">
        <ele>192.2</ele>
        <time>2012-03-04T10:20:16Z</time>
      </trkpt>
      <trkpt lat="44.12873" lon="4.23757">
        <ele>192.2</ele>
        <time>2012-03-04T10:20:17Z</time>
      </trkpt>
      <trkpt lat="44.12858" lon="4.23756">
        <ele>192.3</ele>
        <time>2012-03-04T10:20:29Z</time>
      </trkpt>
      <trkpt lat="44.12852" lon="4.23762">
        <ele>192.3</ele>
        <time>2012-03-04T10:20:34Z</time>
      </trkpt>
      <trkpt lat="44.12848" lon="4.23772">
        <ele>192.2</ele>
        <time>2012-03-04T10:20:40Z</time>
      </trkpt>
      <trkpt lat="44.12845" lon="4.23782">
        <ele>192.3</ele>
        <time>2012-03-04T10:20:46Z</time>
      </trkpt>
      <trkpt lat="44.12843" lon="4.23793">
        <ele>192.4</ele>
        <time>2012-03-04T10:20:53Z</time>
      </trkpt>
      <trkpt lat="44.1284" lon="4.23804">
        <ele>192.6</ele>
        <time>2012-03-04T10:21:00Z</time>
      </trkpt>
      <trkpt lat="44.12835" lon="4.23814">
        <ele>192.7</ele>
        <time>2012-03-04T10:21:06Z</time>
      </trkpt>
      <trkpt lat="44.12829" lon="4.23821">
        <ele>192.9</ele>
        <time>2012-03-04T10:21:13Z</time>
      </trkpt>
      <trkpt lat="44.12821" lon="4.23825">
        <ele>193.2</ele>
        <time>2012-03-04T10:21:23Z</time>
      </trkpt>
      <trkpt lat="44.1282" lon="4.23825">
        <ele>193.3</ele>
        <time>2012-03-04T10:21:24Z</time>
      </trkpt>
      <trkpt lat="44.12804" lon="4.23829">
        <ele>193.8</ele>
        <time>2012-03-04T10:21:37Z</time>
      </trkpt>
      <trkpt lat="44.12799" lon="4.23839">
        <ele>194</ele>
        <time>2012-03-04T10:21:44Z</time>
      </trkpt>
      <trkpt lat="44.12803" lon="4.2383">
        <ele>194.8</ele>
        <time>2012-03-04T10:22:01Z</time>
      </trkpt>
      <trkpt lat="44.1281" lon="4.23826">
        <ele>195</ele>
        <time>2012-03-04T10:22:06Z</time>
      </trkpt>
      <trkpt lat="44.12818" lon="4.23825">
        <ele>195.4</ele>
        <time>2012-03-04T10:22:12Z</time>
      </trkpt>
      <trkpt lat="44.12825" lon="4.23824">
        <ele>195.7</ele>
        <time>2012-03-04T10:22:18Z</time>
      </trkpt>
      <trkpt lat="44.12833" lon="4.2382">
        <ele>196.1</ele>
        <time>2012-03-04T10:22:24Z</time>
      </trkpt>
      <trkpt lat="44.12834" lon="4.23819">
        <ele>196.1</ele>
        <time>2012-03-04T10:22:25Z</time>
      </trkpt>
      <trkpt lat="44.1284" lon="4.23799">
        <ele>196.6</ele>
        <time>2012-03-04T10:22:36Z</time>
      </trkpt>
      <trkpt lat="44.12842" lon="4.23788">
        <ele>196.6</ele>
        <time>2012-03-04T10:22:43Z</time>
      </trkpt>
      <trkpt lat="44.12844" lon="4.23776">
        <ele>196.5</ele>
        <time>2012-03-04T10:22:49Z</time>
      </trkpt>
      <trkpt lat="44.12846" lon="4.23765">
        <ele>196.5</ele>
        <time>2012-03-04T10:22:55Z</time>
      </trkpt>
      <trkpt lat="44.12848" lon="4.23753">
        <ele>196.5</ele>
        <time>2012-03-04T10:23:03Z</time>
      </trkpt>
      <trkpt lat="44.12844" lon="4.23742">
        <ele>196.8</ele>
        <time>2012-03-04T10:23:11Z</time>
      </trkpt>
      <trkpt lat="44.12837" lon="4.23734">
        <ele>197</ele>
        <time>2012-03-04T10:23:19Z</time>
      </trkpt>
      <trkpt lat="44.12832" lon="4.23724">
        <ele>198.5</ele>
        <time>2012-03-04T10:23:27Z</time>
      </trkpt>
      <trkpt lat="44.12832" lon="4.23723">
        <ele>198.6</ele>
        <time>2012-03-04T10:23:28Z</time>
      </trkpt>
      <trkpt lat="44.12821" lon="4.23707">
        <ele>199.5</ele>
        <time>2012-03-04T10:23:42Z</time>
      </trkpt>
      <trkpt lat="44.12812" lon="4.23705">
        <ele>201.7</ele>
        <time>2012-03-04T10:23:50Z</time>
      </trkpt>
      <trkpt lat="44.12804" lon="4.23707">
        <ele>202.8</ele>
        <time>2012-03-04T10:23:57Z</time>
      </trkpt>
      <trkpt lat="44.12796" lon="4.23712">
        <ele>203.4</ele>
        <time>2012-03-04T10:24:05Z</time>
      </trkpt>
      <trkpt lat="44.12789" lon="4.23716">
        <ele>205.1</ele>
        <time>2012-03-04T10:24:12Z</time>
      </trkpt>
      <trkpt lat="44.12782" lon="4.23721">
        <ele>205.4</ele>
        <time>2012-03-04T10:24:19Z</time>
      </trkpt>
      <trkpt lat="44.12774" lon="4.23727">
        <ele>206.5</ele>
        <time>2012-03-04T10:24:26Z</time>
      </trkpt>
      <trkpt lat="44.12767" lon="4.23732">
        <ele>207.1</ele>
        <time>2012-03-04T10:24:33Z</time>
      </trkpt>
      <trkpt lat="44.12766" lon="4.23733">
        <ele>207.2</ele>
        <time>2012-03-04T10:24:34Z</time>
      </trkpt>
      <trkpt lat="44.12756" lon="4.23745">
        <ele>209.4</ele>
        <time>2012-03-04T10:24:44Z</time>
      </trkpt>
      <trkpt lat="44.1275" lon="4.23754">
        <ele>209.8</ele>
        <time>2012-03-04T10:24:50Z</time>
      </trkpt>
      <trkpt lat="44.12744" lon="4.23763">
        <ele>211.6</ele>
        <time>2012-03-04T10:24:57Z</time>
      </trkpt>
      <trkpt lat="44.12737" lon="4.23771">
        <ele>213</ele>
        <time>2012-03-04T10:25:05Z</time>
      </trkpt>
      <trkpt lat="44.12729" lon="4.23776">
        <ele>212.5</ele>
        <time>2012-03-04T10:25:14Z</time>
      </trkpt>
      <trkpt lat="44.12722" lon="4.23782">
        <ele>214.3</ele>
        <time>2012-03-04T10:25:21Z</time>
      </trkpt>
      <trkpt lat="44.12714" lon="4.23786">
        <ele>215.3</ele>
        <time>2012-03-04T10:25:29Z</time>
      </trkpt>
      <trkpt lat="44.12705" lon="4.23784">
        <ele>216</ele>
        <time>2012-03-04T10:25:37Z</time>
      </trkpt>
      <trkpt lat="44.12704" lon="4.23784">
        <ele>216.1</ele>
        <time>2012-03-04T10:25:38Z</time>
      </trkpt>
      <trkpt lat="44.12689" lon="4.23785">
        <ele>218.1</ele>
        <time>2012-03-04T10:25:54Z</time>
      </trkpt>
      <trkpt lat="44.12684" lon="4.23793">
        <ele>219.3</ele>
        <time>2012-03-04T10:26:02Z</time>
      </trkpt>
      <trkpt lat="44.12677" lon="4.23802">
        <ele>220.2</ele>
        <time>2012-03-04T10:26:10Z</time>
      </trkpt>
      <trkpt lat="44.1267" lon="4.23809">
        <ele>221.7</ele>
        <time>2012-03-04T10:26:17Z</time>
      </trkpt>
      <trkpt lat="44.12663" lon="4.23816">
        <ele>222.6</ele>
        <time>2012-03-04T10:26:25Z</time>
      </trkpt>
      <trkpt lat="44.12657" lon="4.23824">
        <ele>223.5</ele>
        <time>2012-03-04T10:26:32Z</time>
      </trkpt>
      <trkpt lat="44.12651" lon="4.23832">
        <ele>223.8</ele>
        <time>2012-03-04T10:26:40Z</time>
      </trkpt>
      <trkpt lat="44.1265" lon="4.23833">
        <ele>223.7</ele>
        <time>2012-03-04T10:26:41Z</time>
      </trkpt>
      <trkpt lat="44.12638" lon="4.23846">
        <ele>226.7</ele>
        <time>2012-03-04T10:26:58Z</time>
      </trkpt>
      <trkpt lat="44.12631" lon="4.23852">
        <ele>227.1</ele>
        <time>2012-03-04T10:27:05Z</time>
      </trkpt>
      <trkpt lat="44.12624" lon="4.23857">
        <ele>227.4</ele>
        <time>2012-03-04T10:27:12Z</time>
      </trkpt>
      <trkpt lat="44.12616" lon="4.23862">
        <ele>229</ele>
        <time>2012-03-04T10:27:19Z</time>
      </trkpt>
      <trkpt lat="44.12608" lon="4.23864">
        <ele>229.9</ele>
        <time>2012-03-04T10:27:26Z</time>
      </trkpt>
      <trkpt lat="44.12599" lon="4.23866">
        <ele>231.1</ele>
        <time>2012-03-04T10:27:34Z</time>
      </trkpt>
      <trkpt lat="44.1259" lon="4.23866">
        <ele>232.1</ele>
        <time>2012-03-04T10:27:40Z</time>
      </trkpt>
      <trkpt lat="44.12581" lon="4.23866">
        <ele>233.7</ele>
        <time>2012-03-04T10:27:48Z</time>
      </trkpt>
      <trkpt lat="44.1258" lon="4.23866">
        <ele>233.8</ele>
        <time>2012-03-04T10:27:49Z</time>
      </trkpt>
      <trkpt lat="44.12564" lon="4.2387">
        <ele>235.4</ele>
        <time>2012-03-04T10:28:02Z</time>
      </trkpt>
      <trkpt lat="44.12556" lon="4.23868">
        <ele>236.3</ele>
        <time>2012-03-04T10:28:09Z</time>
      </trkpt>
      <trkpt lat="44.12547" lon="4.23867">
        <ele>236.7</ele>
        <time>2012-03-04T10:28:15Z</time>
      </trkpt>
      <trkpt lat="44.1254" lon="4.23871">
        <ele>237.6</ele>
        <time>2012-03-04T10:28:22Z</time>
      </trkpt>
      <trkpt lat="44.12532" lon="4.23874">
        <ele>238.6</ele>
        <time>2012-03-04T10:28:28Z</time>
      </trkpt>
      <trkpt lat="44.12525" lon="4.23877">
        <ele>239.6</ele>
        <time>2012-03-04T10:28:34Z</time>
      </trkpt>
      <trkpt lat="44.12517" lon="4.23879">
        <ele>240.1</ele>
        <time>2012-03-04T10:28:41Z</time>
      </trkpt>
      <trkpt lat="44.12509" lon="4.23878">
        <ele>241.5</ele>
        <time>2012-03-04T10:28:49Z</time>
      </trkpt>
      <trkpt lat="44.12508" lon="4.23878">
        <ele>241.6</ele>
        <time>2012-03-04T10:28:50Z</time>
      </trkpt>
      <trkpt lat="44.12492" lon="4.23875">
        <ele>244.1</ele>
        <time>2012-03-04T10:29:05Z</time>
      </trkpt>
      <trkpt lat="44.12484" lon="4.23872">
        <ele>245.4</ele>
        <time>2012-03-04T10:29:12Z</time>
      </trkpt>
      <trkpt lat="44.12476" lon="4.23868">
        <ele>246</ele>
        <time>2012-03-04T10:29:20Z</time>
      </trkpt>
      <trkpt lat="44.12469" lon="4.23862">
        <ele>247.5</ele>
        <time>2012-03-04T10:29:29Z</time>
      </trkpt>
      <trkpt lat="44.12462" lon="4.23859">
        <ele>247.6</ele>
        <time>2012-03-04T10:29:35Z</time>
      </trkpt>
      <trkpt lat="44.12453" lon="4.23858">
        <ele>248.6</ele>
        <time>2012-03-04T10:29:43Z</time>
      </trkpt>
      <trkpt lat="44.12445" lon="4.23861">
        <ele>248.5</ele>
        <time>2012-03-04T10:29:51Z</time>
      </trkpt>
      <trkpt lat="44.12444" lon="4.23862">
        <ele>248.7</ele>
        <time>2012-03-04T10:29:52Z</time>
      </trkpt>
      <trkpt lat="44.12429" lon="4.2387">
        <ele>249.7</ele>
        <time>2012-03-04T10:30:06Z</time>
      </trkpt>
      <trkpt lat="44.12422" lon="4.23876">
        <ele>250.2</ele>
        <time>2012-03-04T10:30:13Z</time>
      </trkpt>
      <trkpt lat="44.12415" lon="4.23882">
        <ele>250.5</ele>
        <time>2012-03-04T10:30:20Z</time>
      </trkpt>
      <trkpt lat="44.12408" lon="4.23889">
        <ele>248.7</ele>
        <time>2012-03-04T10:30:27Z</time>
      </trkpt>
      <trkpt lat="44.12402" lon="4.23896">
        <ele>248.5</ele>
        <time>2012-03-04T10:30:34Z</time>
      </trkpt>
      <trkpt lat="44.12394" lon="4.23903">
        <ele>253</ele>
        <time>2012-03-04T10:30:41Z</time>
      </trkpt>
      <trkpt lat="44.12387" lon="4.23909">
        <ele>252.3</ele>
        <time>2012-03-04T10:30:48Z</time>
      </trkpt>
      <trkpt lat="44.1238" lon="4.23916">
        <ele>251.8</ele>
        <time>2012-03-04T10:30:54Z</time>
      </trkpt>
      <trkpt lat="44.12379" lon="4.23917">
        <ele>251.5</ele>
        <time>2012-03-04T10:30:55Z</time>
      </trkpt>
      <trkpt lat="44.12366" lon="4.23929">
        <ele>250.5</ele>
        <time>2012-03-04T10:31:07Z</time>
      </trkpt>
      <trkpt lat="44.1236" lon="4.23936">
        <ele>251</ele>
        <time>2012-03-04T10:31:13Z</time>
      </trkpt>
      <trkpt lat="44.12353" lon="4.23942">
        <ele>250.8</ele>
        <time>2012-03-04T10:31:19Z</time>
      </trkpt>
      <trkpt lat="44.12346" lon="4.23947">
        <ele>251.5</ele>
        <time>2012-03-04T10:31:25Z</time>
      </trkpt>
      <trkpt lat="44.12339" lon="4.23952">
        <ele>251.4</ele>
        <time>2012-03-04T10:31:31Z</time>
      </trkpt>
      <trkpt lat="44.12331" lon="4.23958">
        <ele>251</ele>
        <time>2012-03-04T10:31:38Z</time>
      </trkpt>
      <trkpt lat="44.12323" lon="4.23964">
        <ele>251.8</ele>
        <time>2012-03-04T10:31:45Z</time>
      </trkpt>
      <trkpt lat="44.12317" lon="4.2397">
        <ele>252.2</ele>
        <time>2012-03-04T10:31:51Z</time>
      </trkpt>
      <trkpt lat="44.12311" lon="4.23977">
        <ele>252.9</ele>
        <time>2012-03-04T10:31:56Z</time>
      </trkpt>
      <trkpt lat="44.1231" lon="4.23978">
        <ele>252.7</ele>
        <time>2012-03-04T10:31:57Z</time>
      </trkpt>
      <trkpt lat="44.123" lon="4.23993">
        <ele>253.8</ele>
        <time>2012-03-04T10:32:09Z</time>
      </trkpt>
      <trkpt lat="44.12294" lon="4.24002">
        <ele>254.4</ele>
        <time>2012-03-04T10:32:16Z</time>
      </trkpt>
      <trkpt lat="44.12289" lon="4.24011">
        <ele>254.5</ele>
        <time>2012-03-04T10:32:23Z</time>
      </trkpt>
      <trkpt lat="44.12284" lon="4.24019">
        <ele>255.4</ele>
        <time>2012-03-04T10:32:29Z</time>
      </trkpt>
      <trkpt lat="44.12279" lon="4.24027">
        <ele>255.9</ele>
        <time>2012-03-04T10:32:35Z</time>
      </trkpt>
      <trkpt lat="44.12274" lon="4.24036">
        <ele>255.9</ele>
        <time>2012-03-04T10:32:41Z</time>
      </trkpt>
      <trkpt lat="44.12268" lon="4.24044">
        <ele>256</ele>
        <time>2012-03-04T10:32:48Z</time>
      </trkpt>
      <trkpt lat="44.12261" lon="4.24052">
        <ele>256.2</ele>
        <time>2012-03-04T10:32:55Z</time>
      </trkpt>
      <trkpt lat="44.12255" lon="4.24061">
        <ele>256.6</ele>
        <time>2012-03-04T10:33:02Z</time>
      </trkpt>
      <trkpt lat="44.12254" lon="4.24062">
        <ele>256.7</ele>
        <time>2012-03-04T10:33:03Z</time>
      </trkpt>
      <trkpt lat="44.12244" lon="4.2408">
        <ele>257.6</ele>
        <time>2012-03-04T10:33:17Z</time>
      </trkpt>
      <trkpt lat="44.12239" lon="4.2409">
        <ele>256.7</ele>
        <time>2012-03-04T10:33:23Z</time>
      </trkpt>
      <trkpt lat="44.12235" lon="4.241">
        <ele>257.4</ele>
        <time>2012-03-04T10:33:30Z</time>
      </trkpt>
      <trkpt lat="44.12233" lon="4.2411">
        <ele>258</ele>
        <time>2012-03-04T10:33:37Z</time>
      </trkpt>
      <trkpt lat="44.12231" lon="4.24121">
        <ele>258.9</ele>
        <time>2012-03-04T10:33:44Z</time>
      </trkpt>
      <trkpt lat="44.12229" lon="4.24131">
        <ele>259.5</ele>
        <time>2012-03-04T10:33:52Z</time>
      </trkpt>
      <trkpt lat="44.12225" lon="4.24143">
        <ele>259.7</ele>
        <time>2012-03-04T10:34:00Z</time>
      </trkpt>
      <trkpt lat="44.12221" lon="4.24152">
        <ele>259.6</ele>
        <time>2012-03-04T10:34:06Z</time>
      </trkpt>
      <trkpt lat="44.1222" lon="4.24154">
        <ele>259.8</ele>
        <time>2012-03-04T10:34:07Z</time>
      </trkpt>
      <trkpt lat="44.12212" lon="4.24171">
        <ele>260.7</ele>
        <time>2012-03-04T10:34:20Z</time>
      </trkpt>
      <trkpt lat="44.1221" lon="4.24181">
        <ele>260.5</ele>
        <time>2012-03-04T10:34:26Z</time>
      </trkpt>
      <trkpt lat="44.12207" lon="4.24192">
        <ele>260.8</ele>
        <time>2012-03-04T10:34:31Z</time>
      </trkpt>
      <trkpt lat="44.12205" lon="4.24203">
        <ele>260.9</ele>
        <time>2012-03-04T10:34:37Z</time>
      </trkpt>
      <trkpt lat="44.12202" lon="4.24214">
        <ele>260.6</ele>
        <time>2012-03-04T10:34:44Z</time>
      </trkpt>
      <trkpt lat="44.122" lon="4.24224">
        <ele>262.4</ele>
        <time>2012-03-04T10:34:51Z</time>
      </trkpt>
      <trkpt lat="44.12196" lon="4.24234">
        <ele>262.7</ele>
        <time>2012-03-04T10:34:57Z</time>
      </trkpt>
      <trkpt lat="44.1219" lon="4.24243">
        <ele>262.6</ele>
        <time>2012-03-04T10:35:03Z</time>
      </trkpt>
      <trkpt lat="44.12185" lon="4.24252">
        <ele>263.3</ele>
        <time>2012-03-04T10:35:09Z</time>
      </trkpt>
      <trkpt lat="44.12184" lon="4.24254">
        <ele>263.4</ele>
        <time>2012-03-04T10:35:10Z</time>
      </trkpt>
      <trkpt lat="44.12178" lon="4.24272">
        <ele>263.4</ele>
        <time>2012-03-04T10:35:22Z</time>
      </trkpt>
      <trkpt lat="44.12175" lon="4.24282">
        <ele>263.6</ele>
        <time>2012-03-04T10:35:29Z</time>
      </trkpt>
      <trkpt lat="44.1217" lon="4.24292">
        <ele>263.6</ele>
        <time>2012-03-04T10:35:36Z</time>
      </trkpt>
      <trkpt lat="44.12166" lon="4.24301">
        <ele>264.4</ele>
        <time>2012-03-04T10:35:43Z</time>
      </trkpt>
      <trkpt lat="44.12161" lon="4.2431">
        <ele>264.7</ele>
        <time>2012-03-04T10:35:51Z</time>
      </trkpt>
      <trkpt lat="44.12155" lon="4.2432">
        <ele>266.1</ele>
        <time>2012-03-04T10:35:59Z</time>
      </trkpt>
      <trkpt lat="44.1215" lon="4.24329">
        <ele>265.4</ele>
        <time>2012-03-04T10:36:06Z</time>
      </trkpt>
      <trkpt lat="44.12146" lon="4.24338">
        <ele>265.7</ele>
        <time>2012-03-04T10:36:13Z</time>
      </trkpt>
      <trkpt lat="44.12146" lon="4.2434">
        <ele>266.1</ele>
        <time>2012-03-04T10:36:14Z</time>
      </trkpt>
      <trkpt lat="44.12138" lon="4.24358">
        <ele>266.4</ele>
        <time>2012-03-04T10:36:27Z</time>
      </trkpt>
      <trkpt lat="44.12133" lon="4.24368">
        <ele>267.8</ele>
        <time>2012-03-04T10:36:34Z</time>
      </trkpt>
      <trkpt lat="44.12128" lon="4.24378">
        <ele>267.4</ele>
        <time>2012-03-04T10:36:41Z</time>
      </trkpt>
      <trkpt lat="44.12124" lon="4.24389">
        <ele>267.7</ele>
        <time>2012-03-04T10:36:48Z</time>
      </trkpt>
      <trkpt lat="44.1212" lon="4.244">
        <ele>268</ele>
        <time>2012-03-04T10:36:55Z</time>
      </trkpt>
      <trkpt lat="44.12117" lon="4.2441">
        <ele>268.4</ele>
        <time>2012-03-04T10:37:02Z</time>
      </trkpt>
      <trkpt lat="44.12113" lon="4.2442">
        <ele>269.9</ele>
        <time>2012-03-04T10:37:11Z</time>
      </trkpt>
      <trkpt lat="44.12107" lon="4.2443">
        <ele>271.9</ele>
        <time>2012-03-04T10:37:22Z</time>
      </trkpt>
      <trkpt lat="44.12107" lon="4.24431">
        <ele>272</ele>
        <time>2012-03-04T10:37:23Z</time>
      </trkpt>
      <trkpt lat="44.12093" lon="4.24443">
        <ele>274.5</ele>
        <time>2012-03-04T10:37:38Z</time>
      </trkpt>
      <trkpt lat="44.12085" lon="4.24448">
        <ele>275.6</ele>
        <time>2012-03-04T10:37:46Z</time>
      </trkpt>
      <trkpt lat="44.12078" lon="4.24453">
        <ele>276.2</ele>
        <time>2012-03-04T10:37:54Z</time>
      </trkpt>
      <trkpt lat="44.12071" lon="4.2446">
        <ele>277.2</ele>
        <time>2012-03-04T10:38:02Z</time>
      </trkpt>
      <trkpt lat="44.12065" lon="4.24469">
        <ele>277.6</ele>
        <time>2012-03-04T10:38:11Z</time>
      </trkpt>
      <trkpt lat="44.1206" lon="4.24479">
        <ele>279.7</ele>
        <time>2012-03-04T10:38:20Z</time>
      </trkpt>
      <trkpt lat="44.12054" lon="4.24487">
        <ele>281</ele>
        <time>2012-03-04T10:38:29Z</time>
      </trkpt>
      <trkpt lat="44.12053" lon="4.24488">
        <ele>281</ele>
        <time>2012-03-04T10:38:30Z</time>
      </trkpt>
      <trkpt lat="44.1204" lon="4.24498">
        <ele>282.8</ele>
        <time>2012-03-04T10:38:44Z</time>
      </trkpt>
      <trkpt lat="44.12032" lon="4.24504">
        <ele>283.9</ele>
        <time>2012-03-04T10:38:52Z</time>
      </trkpt>
      <trkpt lat="44.12026" lon="4.24513">
        <ele>283.9</ele>
        <time>2012-03-04T10:39:00Z</time>
      </trkpt>
      <trkpt lat="44.12023" lon="4.24523">
        <ele>285.1</ele>
        <time>2012-03-04T10:39:07Z</time>
      </trkpt>
      <trkpt lat="44.1202" lon="4.24533">
        <ele>285.8</ele>
        <time>2012-03-04T10:39:14Z</time>
      </trkpt>
      <trkpt lat="44.12017" lon="4.24544">
        <ele>286.3</ele>
        <time>2012-03-04T10:39:21Z</time>
      </trkpt>
      <trkpt lat="44.12014" lon="4.24555">
        <ele>288.4</ele>
        <time>2012-03-04T10:39:30Z</time>
      </trkpt>
      <trkpt lat="44.12014" lon="4.24556">
        <ele>288.8</ele>
        <time>2012-03-04T10:39:31Z</time>
      </trkpt>
      <trkpt lat="44.12008" lon="4.24576">
        <ele>290</ele>
        <time>2012-03-04T10:39:43Z</time>
      </trkpt>
      <trkpt lat="44.12004" lon="4.24587">
        <ele>290.1</ele>
        <time>2012-03-04T10:39:50Z</time>
      </trkpt>
      <trkpt lat="44.12001" lon="4.24598">
        <ele>290.9</ele>
        <time>2012-03-04T10:39:57Z</time>
      </trkpt>
      <trkpt lat="44.11998" lon="4.24608">
        <ele>290.6</ele>
        <time>2012-03-04T10:40:03Z</time>
      </trkpt>
      <trkpt lat="44.11995" lon="4.24618">
        <ele>290.9</ele>
        <time>2012-03-04T10:40:10Z</time>
      </trkpt>
      <trkpt lat="44.11991" lon="4.24627">
        <ele>291.6</ele>
        <time>2012-03-04T10:40:16Z</time>
      </trkpt>
      <trkpt lat="44.11987" lon="4.24638">
        <ele>292.3</ele>
        <time>2012-03-04T10:40:23Z</time>
      </trkpt>
      <trkpt lat="44.11984" lon="4.24648">
        <ele>292.5</ele>
        <time>2012-03-04T10:40:30Z</time>
      </trkpt>
      <trkpt lat="44.11981" lon="4.2466">
        <ele>293.1</ele>
        <time>2012-03-04T10:40:38Z</time>
      </trkpt>
      <trkpt lat="44.1198" lon="4.24661">
        <ele>293.2</ele>
        <time>2012-03-04T10:40:39Z</time>
      </trkpt>
      <trkpt lat="44.11975" lon="4.24681">
        <ele>293.4</ele>
        <time>2012-03-04T10:40:52Z</time>
      </trkpt>
      <trkpt lat="44.11972" lon="4.24693">
        <ele>293</ele>
        <time>2012-03-04T10:41:00Z</time>
      </trkpt>
      <trkpt lat="44.11966" lon="4.24701">
        <ele>294.5</ele>
        <time>2012-03-04T10:41:08Z</time>
      </trkpt>
      <trkpt lat="44.1196" lon="4.24709">
        <ele>294.9</ele>
        <time>2012-03-04T10:41:15Z</time>
      </trkpt>
      <trkpt lat="44.11954" lon="4.24717">
        <ele>295.5</ele>
        <time>2012-03-04T10:41:22Z</time>
      </trkpt>
      <trkpt lat="44.11949" lon="4.24726">
        <ele>296.7</ele>
        <time>2012-03-04T10:41:29Z</time>
      </trkpt>
      <trkpt lat="44.11945" lon="4.24736">
        <ele>297.5</ele>
        <time>2012-03-04T10:41:36Z</time>
      </trkpt>
      <trkpt lat="44.11942" lon="4.24747">
        <ele>298.4</ele>
        <time>2012-03-04T10:41:43Z</time>
      </trkpt>
      <trkpt lat="44.11942" lon="4.24748">
        <ele>298.5</ele>
        <time>2012-03-04T10:41:44Z</time>
      </trkpt>
      <trkpt lat="44.11936" lon="4.24768">
        <ele>298.7</ele>
        <time>2012-03-04T10:41:57Z</time>
      </trkpt>
      <trkpt lat="44.11933" lon="4.24778">
        <ele>299</ele>
        <time>2012-03-04T10:42:03Z</time>
      </trkpt>
      <trkpt lat="44.11929" lon="4.24789">
        <ele>299.3</ele>
        <time>2012-03-04T10:42:11Z</time>
      </trkpt>
      <trkpt lat="44.11924" lon="4.24799">
        <ele>299.4</ele>
        <time>2012-03-04T10:42:18Z</time>
      </trkpt>
      <trkpt lat="44.11918" lon="4.24807">
        <ele>299</ele>
        <time>2012-03-04T10:42:25Z</time>
      </trkpt>
      <trkpt lat="44.11911" lon="4.24812">
        <ele>298.9</ele>
        <time>2012-03-04T10:42:32Z</time>
      </trkpt>
      <trkpt lat="44.11902" lon="4.24815">
        <ele>299.6</ele>
        <time>2012-03-04T10:42:40Z</time>
      </trkpt>
      <trkpt lat="44.11895" lon="4.24821">
        <ele>299.5</ele>
        <time>2012-03-04T10:42:47Z</time>
      </trkpt>
      <trkpt lat="44.11894" lon="4.24821">
        <ele>299.5</ele>
        <time>2012-03-04T10:42:48Z</time>
      </trkpt>
      <trkpt lat="44.11882" lon="4.24835">
        <ele>300.1</ele>
        <time>2012-03-04T10:43:00Z</time>
      </trkpt>
      <trkpt lat="44.11877" lon="4.24844">
        <ele>300.6</ele>
        <time>2012-03-04T10:43:06Z</time>
      </trkpt>
      <trkpt lat="44.11872" lon="4.24852">
        <ele>300.4</ele>
        <time>2012-03-04T10:43:12Z</time>
      </trkpt>
      <trkpt lat="44.11867" lon="4.24862">
        <ele>299.8</ele>
        <time>2012-03-04T10:43:19Z</time>
      </trkpt>
      <trkpt lat="44.11863" lon="4.24871">
        <ele>300.9</ele>
        <time>2012-03-04T10:43:26Z</time>
      </trkpt>
      <trkpt lat="44.11859" lon="4.24881">
        <ele>300.8</ele>
        <time>2012-03-04T10:43:33Z</time>
      </trkpt>
      <trkpt lat="44.11861" lon="4.24893">
        <ele>302.4</ele>
        <time>2012-03-04T10:45:02Z</time>
      </trkpt>
      <trkpt lat="44.1186" lon="4.24894">
        <ele>302.5</ele>
        <time>2012-03-04T10:45:03Z</time>
      </trkpt>
      <trkpt lat="44.11854" lon="4.24915">
        <ele>303.3</ele>
        <time>2012-03-04T10:45:17Z</time>
      </trkpt>
      <trkpt lat="44.11852" lon="4.24927">
        <ele>303</ele>
        <time>2012-03-04T10:45:25Z</time>
      </trkpt>
      <trkpt lat="44.11851" lon="4.24938">
        <ele>303.5</ele>
        <time>2012-03-04T10:45:32Z</time>
      </trkpt>
      <trkpt lat="44.11848" lon="4.2495">
        <ele>303</ele>
        <time>2012-03-04T10:45:39Z</time>
      </trkpt>
      <trkpt lat="44.11846" lon="4.24962">
        <ele>303.3</ele>
        <time>2012-03-04T10:45:46Z</time>
      </trkpt>
      <trkpt lat="44.11843" lon="4.24973">
        <ele>302.5</ele>
        <time>2012-03-04T10:45:53Z</time>
      </trkpt>
      <trkpt lat="44.11842" lon="4.24985">
        <ele>303</ele>
        <time>2012-03-04T10:46:00Z</time>
      </trkpt>
      <trkpt lat="44.1184" lon="4.24995">
        <ele>303</ele>
        <time>2012-03-04T10:46:07Z</time>
      </trkpt>
      <trkpt lat="44.1184" lon="4.24997">
        <ele>303</ele>
        <time>2012-03-04T10:46:08Z</time>
      </trkpt>
      <trkpt lat="44.11837" lon="4.25016">
        <ele>302.8</ele>
        <time>2012-03-04T10:46:20Z</time>
      </trkpt>
      <trkpt lat="44.11835" lon="4.25027">
        <ele>302</ele>
        <time>2012-03-04T10:46:27Z</time>
      </trkpt>
      <trkpt lat="44.11834" lon="4.25039">
        <ele>302.1</ele>
        <time>2012-03-04T10:46:34Z</time>
      </trkpt>
      <trkpt lat="44.11833" lon="4.25051">
        <ele>301.4</ele>
        <time>2012-03-04T10:46:42Z</time>
      </trkpt>
      <trkpt lat="44.11833" lon="4.25063">
        <ele>300.6</ele>
        <time>2012-03-04T10:46:50Z</time>
      </trkpt>
      <trkpt lat="44.11832" lon="4.25075">
        <ele>300.4</ele>
        <time>2012-03-04T10:46:58Z</time>
      </trkpt>
      <trkpt lat="44.11832" lon="4.25087">
        <ele>299.6</ele>
        <time>2012-03-04T10:47:06Z</time>
      </trkpt>
      <trkpt lat="44.11831" lon="4.25098">
        <ele>299.1</ele>
        <time>2012-03-04T10:47:14Z</time>
      </trkpt>
      <trkpt lat="44.11831" lon="4.251">
        <ele>299.2</ele>
        <time>2012-03-04T10:47:15Z</time>
      </trkpt>
      <trkpt lat="44.11828" lon="4.25121">
        <ele>298.5</ele>
        <time>2012-03-04T10:47:28Z</time>
      </trkpt>
      <trkpt lat="44.11825" lon="4.25133">
        <ele>299</ele>
        <time>2012-03-04T10:47:36Z</time>
      </trkpt>
      <trkpt lat="44.11822" lon="4.25144">
        <ele>299.4</ele>
        <time>2012-03-04T10:47:44Z</time>
      </trkpt>
      <trkpt lat="44.11819" lon="4.25155">
        <ele>299.5</ele>
        <time>2012-03-04T10:47:52Z</time>
      </trkpt>
      <trkpt lat="44.11817" lon="4.25166">
        <ele>300.9</ele>
        <time>2012-03-04T10:48:01Z</time>
      </trkpt>
      <trkpt lat="44.11815" lon="4.25178">
        <ele>302.4</ele>
        <time>2012-03-04T10:48:10Z</time>
      </trkpt>
      <trkpt lat="44.11816" lon="4.2519">
        <ele>302.9</ele>
        <time>2012-03-04T10:48:17Z</time>
      </trkpt>
      <trkpt lat="44.11816" lon="4.25191">
        <ele>303.1</ele>
        <time>2012-03-04T10:48:18Z</time>
      </trkpt>
      <trkpt lat="44.11819" lon="4.25214">
        <ele>305.7</ele>
        <time>2012-03-04T10:48:33Z</time>
      </trkpt>
      <trkpt lat="44.11821" lon="4.25226">
        <ele>305.4</ele>
        <time>2012-03-04T10:48:41Z</time>
      </trkpt>
      <trkpt lat="44.11824" lon="4.25237">
        <ele>306.2</ele>
        <time>2012-03-04T10:48:49Z</time>
      </trkpt>
      <trkpt lat="44.11826" lon="4.25249">
        <ele>307.7</ele>
        <time>2012-03-04T10:48:57Z</time>
      </trkpt>
      <trkpt lat="44.11828" lon="4.2526">
        <ele>308.1</ele>
        <time>2012-03-04T10:49:05Z</time>
      </trkpt>
      <trkpt lat="44.11831" lon="4.25272">
        <ele>309</ele>
        <time>2012-03-04T10:49:13Z</time>
      </trkpt>
      <trkpt lat="44.11832" lon="4.25283">
        <ele>309.3</ele>
        <time>2012-03-04T10:49:20Z</time>
      </trkpt>
      <trkpt lat="44.11832" lon="4.25285">
        <ele>309.6</ele>
        <time>2012-03-04T10:49:21Z</time>
      </trkpt>
      <trkpt lat="44.11833" lon="4.25305">
        <ele>311</ele>
        <time>2012-03-04T10:49:35Z</time>
      </trkpt>
      <trkpt lat="44.11833" lon="4.25317">
        <ele>311.3</ele>
        <time>2012-03-04T10:49:42Z</time>
      </trkpt>
      <trkpt lat="44.11833" lon="4.25329">
        <ele>311.4</ele>
        <time>2012-03-04T10:49:50Z</time>
      </trkpt>
      <trkpt lat="44.11833" lon="4.2534">
        <ele>311.7</ele>
        <time>2012-03-04T10:49:57Z</time>
      </trkpt>
      <trkpt lat="44.11833" lon="4.25352">
        <ele>312.9</ele>
        <time>2012-03-04T10:50:04Z</time>
      </trkpt>
      <trkpt lat="44.11833" lon="4.25362">
        <ele>313.8</ele>
        <time>2012-03-04T10:50:10Z</time>
      </trkpt>
      <trkpt lat="44.11832" lon="4.25373">
        <ele>314.8</ele>
        <time>2012-03-04T10:50:17Z</time>
      </trkpt>
      <trkpt lat="44.11829" lon="4.25384">
        <ele>315.3</ele>
        <time>2012-03-04T10:50:25Z</time>
      </trkpt>
      <trkpt lat="44.11829" lon="4.25386">
        <ele>315.2</ele>
        <time>2012-03-04T10:50:26Z</time>
      </trkpt>
      <trkpt lat="44.11825" lon="4.25407">
        <ele>317.1</ele>
        <time>2012-03-04T10:50:40Z</time>
      </trkpt>
      <trkpt lat="44.11823" lon="4.25419">
        <ele>318.7</ele>
        <time>2012-03-04T10:50:48Z</time>
      </trkpt>
      <trkpt lat="44.1182" lon="4.2543">
        <ele>319.9</ele>
        <time>2012-03-04T10:50:56Z</time>
      </trkpt>
      <trkpt lat="44.11817" lon="4.25442">
        <ele>321.3</ele>
        <time>2012-03-04T10:51:04Z</time>
      </trkpt>
      <trkpt lat="44.11815" lon="4.25452">
        <ele>323</ele>
        <time>2012-03-04T10:51:12Z</time>
      </trkpt>
      <trkpt lat="44.11812" lon="4.25464">
        <ele>323.9</ele>
        <time>2012-03-04T10:51:21Z</time>
      </trkpt>
      <trkpt lat="44.11809" lon="4.25476">
        <ele>325.4</ele>
        <time>2012-03-04T10:51:29Z</time>
      </trkpt>
      <trkpt lat="44.11809" lon="4.25477">
        <ele>325.5</ele>
        <time>2012-03-04T10:51:30Z</time>
      </trkpt>
      <trkpt lat="44.11804" lon="4.25499">
        <ele>327.2</ele>
        <time>2012-03-04T10:51:45Z</time>
      </trkpt>
      <trkpt lat="44.11802" lon="4.25509">
        <ele>327.5</ele>
        <time>2012-03-04T10:51:52Z</time>
      </trkpt>
      <trkpt lat="44.118" lon="4.2552">
        <ele>328.6</ele>
        <time>2012-03-04T10:51:59Z</time>
      </trkpt>
      <trkpt lat="44.11799" lon="4.25532">
        <ele>329.9</ele>
        <time>2012-03-04T10:52:07Z</time>
      </trkpt>
      <trkpt lat="44.11798" lon="4.25543">
        <ele>331.5</ele>
        <time>2012-03-04T10:52:15Z</time>
      </trkpt>
      <trkpt lat="44.11798" lon="4.25554">
        <ele>331.7</ele>
        <time>2012-03-04T10:52:23Z</time>
      </trkpt>
      <trkpt lat="44.11797" lon="4.25566">
        <ele>332.1</ele>
        <time>2012-03-04T10:52:31Z</time>
      </trkpt>
      <trkpt lat="44.11797" lon="4.25568">
        <ele>332.2</ele>
        <time>2012-03-04T10:52:32Z</time>
      </trkpt>
      <trkpt lat="44.11794" lon="4.2559">
        <ele>332.7</ele>
        <time>2012-03-04T10:52:47Z</time>
      </trkpt>
      <trkpt lat="44.11792" lon="4.256">
        <ele>334.3</ele>
        <time>2012-03-04T10:52:54Z</time>
      </trkpt>
      <trkpt lat="44.1179" lon="4.25611">
        <ele>335.6</ele>
        <time>2012-03-04T10:53:01Z</time>
      </trkpt>
      <trkpt lat="44.11788" lon="4.25623">
        <ele>337</ele>
        <time>2012-03-04T10:53:10Z</time>
      </trkpt>
      <trkpt lat="44.11786" lon="4.25635">
        <ele>337</ele>
        <time>2012-03-04T10:53:19Z</time>
      </trkpt>
      <trkpt lat="44.11783" lon="4.25646">
        <ele>337</ele>
        <time>2012-03-04T10:53:26Z</time>
      </trkpt>
      <trkpt lat="44.11782" lon="4.25658">
        <ele>338.2</ele>
        <time>2012-03-04T10:53:34Z</time>
      </trkpt>
      <trkpt lat="44.11782" lon="4.2566">
        <ele>338.3</ele>
        <time>2012-03-04T10:53:35Z</time>
      </trkpt>
      <trkpt lat="44.1178" lon="4.25682">
        <ele>339.3</ele>
        <time>2012-03-04T10:53:50Z</time>
      </trkpt>
      <trkpt lat="44.1178" lon="4.25694">
        <ele>340.2</ele>
        <time>2012-03-04T10:53:58Z</time>
      </trkpt>
      <trkpt lat="44.11779" lon="4.25705">
        <ele>340.4</ele>
        <time>2012-03-04T10:54:05Z</time>
      </trkpt>
      <trkpt lat="44.11777" lon="4.25716">
        <ele>341.7</ele>
        <time>2012-03-04T10:54:12Z</time>
      </trkpt>
      <trkpt lat="44.11773" lon="4.25727">
        <ele>342.5</ele>
        <time>2012-03-04T10:54:19Z</time>
      </trkpt>
      <trkpt lat="44.1177" lon="4.25737">
        <ele>344.2</ele>
        <time>2012-03-04T10:54:26Z</time>
      </trkpt>
      <trkpt lat="44.11767" lon="4.25748">
        <ele>344.3</ele>
        <time>2012-03-04T10:54:33Z</time>
      </trkpt>
      <trkpt lat="44.11766" lon="4.2576">
        <ele>345.2</ele>
        <time>2012-03-04T10:54:40Z</time>
      </trkpt>
      <trkpt lat="44.11766" lon="4.25762">
        <ele>345.2</ele>
        <time>2012-03-04T10:54:41Z</time>
      </trkpt>
      <trkpt lat="44.11765" lon="4.25784">
        <ele>345.5</ele>
        <time>2012-03-04T10:54:54Z</time>
      </trkpt>
      <trkpt lat="44.11765" lon="4.25796">
        <ele>345.5</ele>
        <time>2012-03-04T10:55:01Z</time>
      </trkpt>
      <trkpt lat="44.11766" lon="4.25807">
        <ele>344.7</ele>
        <time>2012-03-04T10:55:08Z</time>
      </trkpt>
      <trkpt lat="44.11768" lon="4.25819">
        <ele>344.8</ele>
        <time>2012-03-04T10:55:16Z</time>
      </trkpt>
      <trkpt lat="44.11772" lon="4.25831">
        <ele>345.4</ele>
        <time>2012-03-04T10:55:24Z</time>
      </trkpt>
      <trkpt lat="44.11775" lon="4.25841">
        <ele>345.6</ele>
        <time>2012-03-04T10:55:32Z</time>
      </trkpt>
      <trkpt lat="44.1178" lon="4.25851">
        <ele>345.3</ele>
        <time>2012-03-04T10:55:40Z</time>
      </trkpt>
      <trkpt lat="44.11786" lon="4.25858">
        <ele>345.4</ele>
        <time>2012-03-04T10:55:47Z</time>
      </trkpt>
      <trkpt lat="44.11787" lon="4.25859">
        <ele>345.5</ele>
        <time>2012-03-04T10:55:48Z</time>
      </trkpt>
      <trkpt lat="44.11801" lon="4.25867">
        <ele>345.7</ele>
        <time>2012-03-04T10:56:01Z</time>
      </trkpt>
      <trkpt lat="44.11809" lon="4.25872">
        <ele>345.7</ele>
        <time>2012-03-04T10:56:08Z</time>
      </trkpt>
      <trkpt lat="44.11816" lon="4.25877">
        <ele>345.3</ele>
        <time>2012-03-04T10:56:15Z</time>
      </trkpt>
      <trkpt lat="44.11822" lon="4.25885">
        <ele>345.4</ele>
        <time>2012-03-04T10:56:22Z</time>
      </trkpt>
      <trkpt lat="44.11827" lon="4.25895">
        <ele>346.4</ele>
        <time>2012-03-04T10:56:30Z</time>
      </trkpt>
      <trkpt lat="44.11828" lon="4.25907">
        <ele>346.8</ele>
        <time>2012-03-04T10:56:38Z</time>
      </trkpt>
      <trkpt lat="44.1183" lon="4.25919">
        <ele>347.9</ele>
        <time>2012-03-04T10:56:46Z</time>
      </trkpt>
      <trkpt lat="44.11831" lon="4.2593">
        <ele>348.2</ele>
        <time>2012-03-04T10:56:53Z</time>
      </trkpt>
      <trkpt lat="44.11831" lon="4.25931">
        <ele>348.1</ele>
        <time>2012-03-04T10:56:54Z</time>
      </trkpt>
      <trkpt lat="44.11841" lon="4.2595">
        <ele>349.8</ele>
        <time>2012-03-04T10:57:10Z</time>
      </trkpt>
      <trkpt lat="44.11847" lon="4.25959">
        <ele>350.7</ele>
        <time>2012-03-04T10:57:17Z</time>
      </trkpt>
      <trkpt lat="44.11852" lon="4.25967">
        <ele>351.2</ele>
        <time>2012-03-04T10:57:24Z</time>
      </trkpt>
      <trkpt lat="44.11858" lon="4.25976">
        <ele>352.3</ele>
        <time>2012-03-04T10:57:32Z</time>
      </trkpt>
      <trkpt lat="44.11863" lon="4.25987">
        <ele>352.8</ele>
        <time>2012-03-04T10:57:40Z</time>
      </trkpt>
      <trkpt lat="44.11866" lon="4.25997">
        <ele>353.9</ele>
        <time>2012-03-04T10:57:48Z</time>
      </trkpt>
      <trkpt lat="44.11868" lon="4.26008">
        <ele>354</ele>
        <time>2012-03-04T10:57:55Z</time>
      </trkpt>
      <trkpt lat="44.11869" lon="4.26009">
        <ele>354</ele>
        <time>2012-03-04T10:57:56Z</time>
      </trkpt>
      <trkpt lat="44.11869" lon="4.26031">
        <ele>354.9</ele>
        <time>2012-03-04T10:58:10Z</time>
      </trkpt>
      <trkpt lat="44.1187" lon="4.26043">
        <ele>355.3</ele>
        <time>2012-03-04T10:58:18Z</time>
      </trkpt>
      <trkpt lat="44.1187" lon="4.26055">
        <ele>355.3</ele>
        <time>2012-03-04T10:58:25Z</time>
      </trkpt>
      <trkpt lat="44.11872" lon="4.26067">
        <ele>355.6</ele>
        <time>2012-03-04T10:58:32Z</time>
      </trkpt>
      <trkpt lat="44.11873" lon="4.26078">
        <ele>354.5</ele>
        <time>2012-03-04T10:58:39Z</time>
      </trkpt>
      <trkpt lat="44.11874" lon="4.2609">
        <ele>354.8</ele>
        <time>2012-03-04T10:58:46Z</time>
      </trkpt>
      <trkpt lat="44.11876" lon="4.26101">
        <ele>356</ele>
        <time>2012-03-04T10:58:53Z</time>
      </trkpt>
      <trkpt lat="44.11879" lon="4.26111">
        <ele>354.4</ele>
        <time>2012-03-04T10:59:00Z</time>
      </trkpt>
      <trkpt lat="44.1188" lon="4.26113">
        <ele>354.3</ele>
        <time>2012-03-04T10:59:01Z</time>
      </trkpt>
      <trkpt lat="44.11889" lon="4.26131">
        <ele>353.7</ele>
        <time>2012-03-04T10:59:15Z</time>
      </trkpt>
      <trkpt lat="44.11894" lon="4.26139">
        <ele>352.9</ele>
        <time>2012-03-04T10:59:22Z</time>
      </trkpt>
      <trkpt lat="44.11899" lon="4.26149">
        <ele>351.9</ele>
        <time>2012-03-04T10:59:29Z</time>
      </trkpt>
      <trkpt lat="44.11904" lon="4.26159">
        <ele>350.6</ele>
        <time>2012-03-04T10:59:36Z</time>
      </trkpt>
      <trkpt lat="44.11908" lon="4.2617">
        <ele>350.2</ele>
        <time>2012-03-04T10:59:44Z</time>
      </trkpt>
      <trkpt lat="44.11911" lon="4.26181">
        <ele>350.2</ele>
        <time>2012-03-04T10:59:51Z</time>
      </trkpt>
      <trkpt lat="44.11911" lon="4.26192">
        <ele>349.8</ele>
        <time>2012-03-04T10:59:58Z</time>
      </trkpt>
      <trkpt lat="44.11909" lon="4.26204">
        <ele>350.7</ele>
        <time>2012-03-04T11:00:05Z</time>
      </trkpt>
      <trkpt lat="44.11908" lon="4.26206">
        <ele>350.7</ele>
        <time>2012-03-04T11:00:06Z</time>
      </trkpt>
      <trkpt lat="44.11903" lon="4.26226">
        <ele>350.8</ele>
        <time>2012-03-04T11:00:18Z</time>
      </trkpt>
      <trkpt lat="44.119" lon="4.26237">
        <ele>351.3</ele>
        <time>2012-03-04T11:00:25Z</time>
      </trkpt>
      <trkpt lat="44.119" lon="4.26248">
        <ele>352.7</ele>
        <time>2012-03-04T11:00:32Z</time>
      </trkpt>
      <trkpt lat="44.119" lon="4.26261">
        <ele>352.9</ele>
        <time>2012-03-04T11:01:06Z</time>
      </trkpt>
      <trkpt lat="44.119" lon="4.26261">
        <ele>353</ele>
        <time>2012-03-04T11:01:07Z</time>
      </trkpt>
      <trkpt lat="44.11897" lon="4.26273">
        <ele>353.9</ele>
        <time>2012-03-04T11:03:58Z</time>
      </trkpt>
      <trkpt lat="44.11888" lon="4.2629">
        <ele>352.5</ele>
        <time>2012-03-04T11:04:11Z</time>
      </trkpt>
      <trkpt lat="44.11884" lon="4.263">
        <ele>352.8</ele>
        <time>2012-03-04T11:04:18Z</time>
      </trkpt>
      <trkpt lat="44.11881" lon="4.26311">
        <ele>352.8</ele>
        <time>2012-03-04T11:04:24Z</time>
      </trkpt>
      <trkpt lat="44.11879" lon="4.26321">
        <ele>352.8</ele>
        <time>2012-03-04T11:04:30Z</time>
      </trkpt>
      <trkpt lat="44.11877" lon="4.26332">
        <ele>352.8</ele>
        <time>2012-03-04T11:04:36Z</time>
      </trkpt>
      <trkpt lat="44.11875" lon="4.26344">
        <ele>351.9</ele>
        <time>2012-03-04T11:04:43Z</time>
      </trkpt>
      <trkpt lat="44.11872" lon="4.26355">
        <ele>352.8</ele>
        <time>2012-03-04T11:04:50Z</time>
      </trkpt>
      <trkpt lat="44.1187" lon="4.26367">
        <ele>352.4</ele>
        <time>2012-03-04T11:04:57Z</time>
      </trkpt>
      <trkpt lat="44.11867" lon="4.26379">
        <ele>352.3</ele>
        <time>2012-03-04T11:05:04Z</time>
      </trkpt>
      <trkpt lat="44.11866" lon="4.26381">
        <ele>352.3</ele>
        <time>2012-03-04T11:05:05Z</time>
      </trkpt>
      <trkpt lat="44.11861" lon="4.26401">
        <ele>351.3</ele>
        <time>2012-03-04T11:05:18Z</time>
      </trkpt>
      <trkpt lat="44.11858" lon="4.26413">
        <ele>351.1</ele>
        <time>2012-03-04T11:05:25Z</time>
      </trkpt>
      <trkpt lat="44.11856" lon="4.26423">
        <ele>350.1</ele>
        <time>2012-03-04T11:05:31Z</time>
      </trkpt>
      <trkpt lat="44.11853" lon="4.26433">
        <ele>350.1</ele>
        <time>2012-03-04T11:05:36Z</time>
      </trkpt>
      <trkpt lat="44.11851" lon="4.26444">
        <ele>350.2</ele>
        <time>2012-03-04T11:05:42Z</time>
      </trkpt>
      <trkpt lat="44.11848" lon="4.26456">
        <ele>350.2</ele>
        <time>2012-03-04T11:05:48Z</time>
      </trkpt>
      <trkpt lat="44.11846" lon="4.26466">
        <ele>349.4</ele>
        <time>2012-03-04T11:05:54Z</time>
      </trkpt>
      <trkpt lat="44.11846" lon="4.26477">
        <ele>349.5</ele>
        <time>2012-03-04T11:06:00Z</time>
      </trkpt>
      <trkpt lat="44.1185" lon="4.26487">
        <ele>349.2</ele>
        <time>2012-03-04T11:06:06Z</time>
      </trkpt>
      <trkpt lat="44.1185" lon="4.26489">
        <ele>349.3</ele>
        <time>2012-03-04T11:06:07Z</time>
      </trkpt>
      <trkpt lat="44.11859" lon="4.26508">
        <ele>348.5</ele>
        <time>2012-03-04T11:06:19Z</time>
      </trkpt>
      <trkpt lat="44.11862" lon="4.26518">
        <ele>348.6</ele>
        <time>2012-03-04T11:06:26Z</time>
      </trkpt>
      <trkpt lat="44.11867" lon="4.26528">
        <ele>346.9</ele>
        <time>2012-03-04T11:06:32Z</time>
      </trkpt>
      <trkpt lat="44.11871" lon="4.26538">
        <ele>346</ele>
        <time>2012-03-04T11:06:38Z</time>
      </trkpt>
      <trkpt lat="44.11876" lon="4.26547">
        <ele>345.6</ele>
        <time>2012-03-04T11:06:44Z</time>
      </trkpt>
      <trkpt lat="44.11873" lon="4.26559">
        <ele>345.3</ele>
        <time>2012-03-04T11:06:50Z</time>
      </trkpt>
      <trkpt lat="44.11867" lon="4.26565">
        <ele>344.6</ele>
        <time>2012-03-04T11:06:55Z</time>
      </trkpt>
      <trkpt lat="44.11859" lon="4.26569">
        <ele>344.1</ele>
        <time>2012-03-04T11:07:01Z</time>
      </trkpt>
      <trkpt lat="44.11851" lon="4.26571">
        <ele>343.3</ele>
        <time>2012-03-04T11:07:07Z</time>
      </trkpt>
      <trkpt lat="44.11849" lon="4.26571">
        <ele>343.2</ele>
        <time>2012-03-04T11:07:08Z</time>
      </trkpt>
      <trkpt lat="44.11834" lon="4.26576">
        <ele>341.6</ele>
        <time>2012-03-04T11:07:34Z</time>
      </trkpt>
      <trkpt lat="44.11843" lon="4.26579">
        <ele>344.2</ele>
        <time>2012-03-04T11:08:05Z</time>
      </trkpt>
      <trkpt lat="44.11846" lon="4.2659">
        <ele>346.2</ele>
        <time>2012-03-04T11:08:25Z</time>
      </trkpt>
      <trkpt lat="44.11847" lon="4.26591">
        <ele>346.2</ele>
        <time>2012-03-04T11:08:26Z</time>
      </trkpt>
      <trkpt lat="44.11833" lon="4.26575">
        <ele>342.2</ele>
        <time>2012-03-04T11:09:49Z</time>
      </trkpt>
      <trkpt lat="44.11832" lon="4.26575">
        <ele>342.2</ele>
        <time>2012-03-04T11:09:50Z</time>
      </trkpt>
      <trkpt lat="44.11817" lon="4.26583">
        <ele>340.5</ele>
        <time>2012-03-04T11:10:02Z</time>
      </trkpt>
      <trkpt lat="44.11816" lon="4.26595">
        <ele>340.7</ele>
        <time>2012-03-04T11:10:16Z</time>
      </trkpt>
      <trkpt lat="44.11817" lon="4.26607">
        <ele>343.7</ele>
        <time>2012-03-04T11:10:28Z</time>
      </trkpt>
      <trkpt lat="44.11818" lon="4.26619">
        <ele>346.4</ele>
        <time>2012-03-04T11:10:41Z</time>
      </trkpt>
      <trkpt lat="44.11826" lon="4.26626">
        <ele>349</ele>
        <time>2012-03-04T11:10:53Z</time>
      </trkpt>
      <trkpt lat="44.11826" lon="4.26626">
        <ele>349</ele>
        <time>2012-03-04T11:10:54Z</time>
      </trkpt>
      <trkpt lat="44.1184" lon="4.26639">
        <ele>352.2</ele>
        <time>2012-03-04T11:11:13Z</time>
      </trkpt>
      <trkpt lat="44.11846" lon="4.26649">
        <ele>355</ele>
        <time>2012-03-04T11:12:20Z</time>
      </trkpt>
      <trkpt lat="44.11846" lon="4.26649">
        <ele>355</ele>
        <time>2012-03-04T11:12:21Z</time>
      </trkpt>
      <trkpt lat="44.11832" lon="4.26634">
        <ele>353.9</ele>
        <time>2012-03-04T11:18:08Z</time>
      </trkpt>
      <trkpt lat="44.11832" lon="4.26633">
        <ele>353.9</ele>
        <time>2012-03-04T11:18:09Z</time>
      </trkpt>
      <trkpt lat="44.11821" lon="4.26616">
        <ele>349.2</ele>
        <time>2012-03-04T11:19:01Z</time>
      </trkpt>
      <trkpt lat="44.1182" lon="4.26605">
        <ele>346.3</ele>
        <time>2012-03-04T11:19:14Z</time>
      </trkpt>
      <trkpt lat="44.1182" lon="4.26604">
        <ele>346.1</ele>
        <time>2012-03-04T11:19:15Z</time>
      </trkpt>
      <trkpt lat="44.11821" lon="4.26582">
        <ele>340.8</ele>
        <time>2012-03-04T11:19:39Z</time>
      </trkpt>
      <trkpt lat="44.11829" lon="4.26581">
        <ele>341.2</ele>
        <time>2012-03-04T11:19:47Z</time>
      </trkpt>
      <trkpt lat="44.11837" lon="4.26578">
        <ele>341.8</ele>
        <time>2012-03-04T11:19:54Z</time>
      </trkpt>
      <trkpt lat="44.11844" lon="4.26573">
        <ele>343.4</ele>
        <time>2012-03-04T11:20:01Z</time>
      </trkpt>
      <trkpt lat="44.11853" lon="4.2657">
        <ele>344.9</ele>
        <time>2012-03-04T11:20:08Z</time>
      </trkpt>
      <trkpt lat="44.11861" lon="4.26568">
        <ele>345.4</ele>
        <time>2012-03-04T11:20:14Z</time>
      </trkpt>
      <trkpt lat="44.11869" lon="4.26563">
        <ele>345.7</ele>
        <time>2012-03-04T11:20:21Z</time>
      </trkpt>
      <trkpt lat="44.1187" lon="4.26562">
        <ele>346</ele>
        <time>2012-03-04T11:20:22Z</time>
      </trkpt>
      <trkpt lat="44.11872" lon="4.26541">
        <ele>347.7</ele>
        <time>2012-03-04T11:20:33Z</time>
      </trkpt>
      <trkpt lat="44.11869" lon="4.26531">
        <ele>348</ele>
        <time>2012-03-04T11:20:39Z</time>
      </trkpt>
      <trkpt lat="44.11864" lon="4.2652">
        <ele>349.2</ele>
        <time>2012-03-04T11:20:46Z</time>
      </trkpt>
      <trkpt lat="44.11861" lon="4.26509">
        <ele>349.5</ele>
        <time>2012-03-04T11:20:53Z</time>
      </trkpt>
      <trkpt lat="44.11858" lon="4.26498">
        <ele>350.2</ele>
        <time>2012-03-04T11:21:00Z</time>
      </trkpt>
      <trkpt lat="44.11854" lon="4.26488">
        <ele>350</ele>
        <time>2012-03-04T11:21:07Z</time>
      </trkpt>
      <trkpt lat="44.11851" lon="4.26477">
        <ele>351.1</ele>
        <time>2012-03-04T11:21:13Z</time>
      </trkpt>
      <trkpt lat="44.11849" lon="4.26467">
        <ele>351.8</ele>
        <time>2012-03-04T11:21:19Z</time>
      </trkpt>
      <trkpt lat="44.11851" lon="4.26455">
        <ele>353.2</ele>
        <time>2012-03-04T11:21:26Z</time>
      </trkpt>
      <trkpt lat="44.11851" lon="4.26453">
        <ele>353.2</ele>
        <time>2012-03-04T11:21:27Z</time>
      </trkpt>
      <trkpt lat="44.11856" lon="4.26433">
        <ele>353.2</ele>
        <time>2012-03-04T11:21:39Z</time>
      </trkpt>
      <trkpt lat="44.11859" lon="4.26422">
        <ele>353.9</ele>
        <time>2012-03-04T11:21:45Z</time>
      </trkpt>
      <trkpt lat="44.11861" lon="4.26411">
        <ele>353.9</ele>
        <time>2012-03-04T11:21:51Z</time>
      </trkpt>
      <trkpt lat="44.11863" lon="4.264">
        <ele>354</ele>
        <time>2012-03-04T11:21:57Z</time>
      </trkpt>
      <trkpt lat="44.11866" lon="4.26389">
        <ele>354.4</ele>
        <time>2012-03-04T11:22:03Z</time>
      </trkpt>
      <trkpt lat="44.11868" lon="4.26378">
        <ele>354.9</ele>
        <time>2012-03-04T11:22:09Z</time>
      </trkpt>
      <trkpt lat="44.1187" lon="4.26367">
        <ele>356.6</ele>
        <time>2012-03-04T11:22:15Z</time>
      </trkpt>
      <trkpt lat="44.11873" lon="4.26356">
        <ele>357.1</ele>
        <time>2012-03-04T11:22:21Z</time>
      </trkpt>
      <trkpt lat="44.11876" lon="4.26346">
        <ele>357.3</ele>
        <time>2012-03-04T11:22:27Z</time>
      </trkpt>
      <trkpt lat="44.1188" lon="4.26334">
        <ele>357.9</ele>
        <time>2012-03-04T11:22:34Z</time>
      </trkpt>
      <trkpt lat="44.1188" lon="4.26333">
        <ele>357.8</ele>
        <time>2012-03-04T11:22:35Z</time>
      </trkpt>
      <trkpt lat="44.11884" lon="4.26312">
        <ele>358.4</ele>
        <time>2012-03-04T11:22:48Z</time>
      </trkpt>
      <trkpt lat="44.11886" lon="4.26301">
        <ele>358.8</ele>
        <time>2012-03-04T11:22:54Z</time>
      </trkpt>
      <trkpt lat="44.1189" lon="4.26291">
        <ele>358.3</ele>
        <time>2012-03-04T11:23:01Z</time>
      </trkpt>
      <trkpt lat="44.11894" lon="4.26281">
        <ele>358.4</ele>
        <time>2012-03-04T11:23:07Z</time>
      </trkpt>
      <trkpt lat="44.119" lon="4.26273">
        <ele>357.3</ele>
        <time>2012-03-04T11:23:13Z</time>
      </trkpt>
      <trkpt lat="44.11908" lon="4.26272">
        <ele>357.5</ele>
        <time>2012-03-04T11:23:21Z</time>
      </trkpt>
      <trkpt lat="44.11915" lon="4.2628">
        <ele>357.6</ele>
        <time>2012-03-04T11:23:28Z</time>
      </trkpt>
      <trkpt lat="44.11921" lon="4.26288">
        <ele>357.5</ele>
        <time>2012-03-04T11:23:34Z</time>
      </trkpt>
      <trkpt lat="44.11926" lon="4.26297">
        <ele>358.2</ele>
        <time>2012-03-04T11:23:41Z</time>
      </trkpt>
      <trkpt lat="44.11927" lon="4.26299">
        <ele>358.2</ele>
        <time>2012-03-04T11:23:42Z</time>
      </trkpt>
      <trkpt lat="44.11932" lon="4.2632">
        <ele>359</ele>
        <time>2012-03-04T11:23:55Z</time>
      </trkpt>
      <trkpt lat="44.11933" lon="4.2633">
        <ele>358.8</ele>
        <time>2012-03-04T11:24:01Z</time>
      </trkpt>
      <trkpt lat="44.11934" lon="4.26342">
        <ele>359</ele>
        <time>2012-03-04T11:24:07Z</time>
      </trkpt>
      <trkpt lat="44.11934" lon="4.26353">
        <ele>359.7</ele>
        <time>2012-03-04T11:24:13Z</time>
      </trkpt>
      <trkpt lat="44.11935" lon="4.26364">
        <ele>359.4</ele>
        <time>2012-03-04T11:24:19Z</time>
      </trkpt>
      <trkpt lat="44.11936" lon="4.26376">
        <ele>359.4</ele>
        <time>2012-03-04T11:24:26Z</time>
      </trkpt>
      <trkpt lat="44.11937" lon="4.26389">
        <ele>360.1</ele>
        <time>2012-03-04T11:24:33Z</time>
      </trkpt>
      <trkpt lat="44.11938" lon="4.26399">
        <ele>360.5</ele>
        <time>2012-03-04T11:24:39Z</time>
      </trkpt>
      <trkpt lat="44.11939" lon="4.26411">
        <ele>361.5</ele>
        <time>2012-03-04T11:24:45Z</time>
      </trkpt>
      <trkpt lat="44.11939" lon="4.26413">
        <ele>361.3</ele>
        <time>2012-03-04T11:24:46Z</time>
      </trkpt>
      <trkpt lat="44.11941" lon="4.26434">
        <ele>361.1</ele>
        <time>2012-03-04T11:24:58Z</time>
      </trkpt>
      <trkpt lat="44.11942" lon="4.26445">
        <ele>361.8</ele>
        <time>2012-03-04T11:25:04Z</time>
      </trkpt>
      <trkpt lat="44.11942" lon="4.26456">
        <ele>362.4</ele>
        <time>2012-03-04T11:25:10Z</time>
      </trkpt>
      <trkpt lat="44.11943" lon="4.26469">
        <ele>362.5</ele>
        <time>2012-03-04T11:25:17Z</time>
      </trkpt>
      <trkpt lat="44.11944" lon="4.2648">
        <ele>363.5</ele>
        <time>2012-03-04T11:25:23Z</time>
      </trkpt>
      <trkpt lat="44.11946" lon="4.2649">
        <ele>362.9</ele>
        <time>2012-03-04T11:25:29Z</time>
      </trkpt>
      <trkpt lat="44.11948" lon="4.26501">
        <ele>363.1</ele>
        <time>2012-03-04T11:25:35Z</time>
      </trkpt>
      <trkpt lat="44.11951" lon="4.26511">
        <ele>363.1</ele>
        <time>2012-03-04T11:25:41Z</time>
      </trkpt>
      <trkpt lat="44.11955" lon="4.26522">
        <ele>364.1</ele>
        <time>2012-03-04T11:25:48Z</time>
      </trkpt>
      <trkpt lat="44.11956" lon="4.26523">
        <ele>364.2</ele>
        <time>2012-03-04T11:25:49Z</time>
      </trkpt>
      <trkpt lat="44.11969" lon="4.26535">
        <ele>364.9</ele>
        <time>2012-03-04T11:26:01Z</time>
      </trkpt>
      <trkpt lat="44.11977" lon="4.26539">
        <ele>366.6</ele>
        <time>2012-03-04T11:26:08Z</time>
      </trkpt>
      <trkpt lat="44.11983" lon="4.26544">
        <ele>366.8</ele>
        <time>2012-03-04T11:26:15Z</time>
      </trkpt>
      <trkpt lat="44.11991" lon="4.26549">
        <ele>367.2</ele>
        <time>2012-03-04T11:26:22Z</time>
      </trkpt>
      <trkpt lat="44.11999" lon="4.26554">
        <ele>368.6</ele>
        <time>2012-03-04T11:26:29Z</time>
      </trkpt>
      <trkpt lat="44.12005" lon="4.26561">
        <ele>368.6</ele>
        <time>2012-03-04T11:26:36Z</time>
      </trkpt>
      <trkpt lat="44.12012" lon="4.26568">
        <ele>369.1</ele>
        <time>2012-03-04T11:26:43Z</time>
      </trkpt>
      <trkpt lat="44.1202" lon="4.26574">
        <ele>369.6</ele>
        <time>2012-03-04T11:26:50Z</time>
      </trkpt>
      <trkpt lat="44.12021" lon="4.26575">
        <ele>369.6</ele>
        <time>2012-03-04T11:26:51Z</time>
      </trkpt>
      <trkpt lat="44.12035" lon="4.26584">
        <ele>371.1</ele>
        <time>2012-03-04T11:27:03Z</time>
      </trkpt>
      <trkpt lat="44.12042" lon="4.26591">
        <ele>372.2</ele>
        <time>2012-03-04T11:27:10Z</time>
      </trkpt>
      <trkpt lat="44.12048" lon="4.26601">
        <ele>371.9</ele>
        <time>2012-03-04T11:27:18Z</time>
      </trkpt>
      <trkpt lat="44.1205" lon="4.26612">
        <ele>372.9</ele>
        <time>2012-03-04T11:27:25Z</time>
      </trkpt>
      <trkpt lat="44.1205" lon="4.26625">
        <ele>373.6</ele>
        <time>2012-03-04T11:27:33Z</time>
      </trkpt>
      <trkpt lat="44.12046" lon="4.26635">
        <ele>375.1</ele>
        <time>2012-03-04T11:27:40Z</time>
      </trkpt>
      <trkpt lat="44.12041" lon="4.26644">
        <ele>375.6</ele>
        <time>2012-03-04T11:27:47Z</time>
      </trkpt>
      <trkpt lat="44.12035" lon="4.26653">
        <ele>376.4</ele>
        <time>2012-03-04T11:27:54Z</time>
      </trkpt>
      <trkpt lat="44.12034" lon="4.26655">
        <ele>376.4</ele>
        <time>2012-03-04T11:27:55Z</time>
      </trkpt>
      <trkpt lat="44.12026" lon="4.26671">
        <ele>377.5</ele>
        <time>2012-03-04T11:28:06Z</time>
      </trkpt>
      <trkpt lat="44.12023" lon="4.26682">
        <ele>377.9</ele>
        <time>2012-03-04T11:28:13Z</time>
      </trkpt>
      <trkpt lat="44.1202" lon="4.26693">
        <ele>379</ele>
        <time>2012-03-04T11:28:21Z</time>
      </trkpt>
      <trkpt lat="44.12018" lon="4.26704">
        <ele>379.3</ele>
        <time>2012-03-04T11:28:29Z</time>
      </trkpt>
      <trkpt lat="44.12015" lon="4.26715">
        <ele>381.1</ele>
        <time>2012-03-04T11:28:37Z</time>
      </trkpt>
      <trkpt lat="44.12013" lon="4.26726">
        <ele>382.9</ele>
        <time>2012-03-04T11:28:46Z</time>
      </trkpt>
      <trkpt lat="44.12011" lon="4.26738">
        <ele>383.9</ele>
        <time>2012-03-04T11:28:55Z</time>
      </trkpt>
      <trkpt lat="44.12011" lon="4.2674">
        <ele>384.1</ele>
        <time>2012-03-04T11:28:56Z</time>
      </trkpt>
      <trkpt lat="44.12014" lon="4.26762">
        <ele>387.1</ele>
        <time>2012-03-04T11:29:14Z</time>
      </trkpt>
      <trkpt lat="44.12016" lon="4.26774">
        <ele>387.7</ele>
        <time>2012-03-04T11:29:25Z</time>
      </trkpt>
      <trkpt lat="44.12017" lon="4.26785">
        <ele>389.5</ele>
        <time>2012-03-04T11:29:35Z</time>
      </trkpt>
      <trkpt lat="44.12021" lon="4.26795">
        <ele>391.4</ele>
        <time>2012-03-04T11:29:44Z</time>
      </trkpt>
      <trkpt lat="44.12025" lon="4.26805">
        <ele>392.1</ele>
        <time>2012-03-04T11:29:52Z</time>
      </trkpt>
      <trkpt lat="44.12028" lon="4.26816">
        <ele>394.7</ele>
        <time>2012-03-04T11:30:02Z</time>
      </trkpt>
      <trkpt lat="44.12029" lon="4.26817">
        <ele>394.8</ele>
        <time>2012-03-04T11:30:03Z</time>
      </trkpt>
      <trkpt lat="44.12024" lon="4.26837">
        <ele>397</ele>
        <time>2012-03-04T11:30:21Z</time>
      </trkpt>
      <trkpt lat="44.12016" lon="4.26843">
        <ele>398.7</ele>
        <time>2012-03-04T11:30:30Z</time>
      </trkpt>
      <trkpt lat="44.12009" lon="4.26849">
        <ele>400</ele>
        <time>2012-03-04T11:30:37Z</time>
      </trkpt>
      <trkpt lat="44.12004" lon="4.26858">
        <ele>400.7</ele>
        <time>2012-03-04T11:30:45Z</time>
      </trkpt>
      <trkpt lat="44.12006" lon="4.2687">
        <ele>401.7</ele>
        <time>2012-03-04T11:30:54Z</time>
      </trkpt>
      <trkpt lat="44.12011" lon="4.26879">
        <ele>404.1</ele>
        <time>2012-03-04T11:31:02Z</time>
      </trkpt>
      <trkpt lat="44.12016" lon="4.26888">
        <ele>406.2</ele>
        <time>2012-03-04T11:31:10Z</time>
      </trkpt>
      <trkpt lat="44.12017" lon="4.26889">
        <ele>406</ele>
        <time>2012-03-04T11:31:11Z</time>
      </trkpt>
      <trkpt lat="44.12025" lon="4.26908">
        <ele>408.2</ele>
        <time>2012-03-04T11:31:26Z</time>
      </trkpt>
      <trkpt lat="44.12028" lon="4.26919">
        <ele>409.5</ele>
        <time>2012-03-04T11:31:35Z</time>
      </trkpt>
      <trkpt lat="44.12031" lon="4.26929">
        <ele>410.3</ele>
        <time>2012-03-04T11:31:44Z</time>
      </trkpt>
      <trkpt lat="44.12035" lon="4.26939">
        <ele>411.8</ele>
        <time>2012-03-04T11:31:54Z</time>
      </trkpt>
      <trkpt lat="44.12042" lon="4.26946">
        <ele>413.4</ele>
        <time>2012-03-04T11:32:01Z</time>
      </trkpt>
      <trkpt lat="44.12049" lon="4.26953">
        <ele>413.9</ele>
        <time>2012-03-04T11:32:09Z</time>
      </trkpt>
      <trkpt lat="44.12055" lon="4.2696">
        <ele>414.2</ele>
        <time>2012-03-04T11:32:17Z</time>
      </trkpt>
      <trkpt lat="44.12056" lon="4.26962">
        <ele>414.4</ele>
        <time>2012-03-04T11:32:18Z</time>
      </trkpt>
      <trkpt lat="44.12066" lon="4.26979">
        <ele>416.1</ele>
        <time>2012-03-04T11:32:33Z</time>
      </trkpt>
      <trkpt lat="44.12072" lon="4.26987">
        <ele>416</ele>
        <time>2012-03-04T11:32:39Z</time>
      </trkpt>
      <trkpt lat="44.12077" lon="4.26995">
        <ele>415.9</ele>
        <time>2012-03-04T11:32:46Z</time>
      </trkpt>
      <trkpt lat="44.12082" lon="4.27005">
        <ele>416.2</ele>
        <time>2012-03-04T11:32:53Z</time>
      </trkpt>
      <trkpt lat="44.12087" lon="4.27016">
        <ele>415.4</ele>
        <time>2012-03-04T11:33:00Z</time>
      </trkpt>
      <trkpt lat="44.1209" lon="4.27026">
        <ele>415.7</ele>
        <time>2012-03-04T11:33:07Z</time>
      </trkpt>
      <trkpt lat="44.12093" lon="4.27036">
        <ele>415.5</ele>
        <time>2012-03-04T11:33:14Z</time>
      </trkpt>
      <trkpt lat="44.12097" lon="4.27046">
        <ele>415.6</ele>
        <time>2012-03-04T11:33:21Z</time>
      </trkpt>
      <trkpt lat="44.12097" lon="4.27047">
        <ele>415.6</ele>
        <time>2012-03-04T11:33:22Z</time>
      </trkpt>
      <trkpt lat="44.12107" lon="4.27065">
        <ele>417.7</ele>
        <time>2012-03-04T11:33:36Z</time>
      </trkpt>
      <trkpt lat="44.12112" lon="4.27074">
        <ele>418.1</ele>
        <time>2012-03-04T11:33:43Z</time>
      </trkpt>
      <trkpt lat="44.12118" lon="4.27081">
        <ele>418.8</ele>
        <time>2012-03-04T11:33:50Z</time>
      </trkpt>
      <trkpt lat="44.12124" lon="4.2709">
        <ele>421</ele>
        <time>2012-03-04T11:33:58Z</time>
      </trkpt>
      <trkpt lat="44.1213" lon="4.27099">
        <ele>422.5</ele>
        <time>2012-03-04T11:34:07Z</time>
      </trkpt>
      <trkpt lat="44.12135" lon="4.27108">
        <ele>423.7</ele>
        <time>2012-03-04T11:34:22Z</time>
      </trkpt>
      <trkpt lat="44.12136" lon="4.2711">
        <ele>423.7</ele>
        <time>2012-03-04T11:34:23Z</time>
      </trkpt>
      <trkpt lat="44.12141" lon="4.27131">
        <ele>426.7</ele>
        <time>2012-03-04T11:34:41Z</time>
      </trkpt>
      <trkpt lat="44.12143" lon="4.27142">
        <ele>428.1</ele>
        <time>2012-03-04T11:34:52Z</time>
      </trkpt>
      <trkpt lat="44.12146" lon="4.27153">
        <ele>430.1</ele>
        <time>2012-03-04T11:35:01Z</time>
      </trkpt>
      <trkpt lat="44.12149" lon="4.27164">
        <ele>430.2</ele>
        <time>2012-03-04T11:35:09Z</time>
      </trkpt>
      <trkpt lat="44.12151" lon="4.27175">
        <ele>431.9</ele>
        <time>2012-03-04T11:35:17Z</time>
      </trkpt>
      <trkpt lat="44.12152" lon="4.27187">
        <ele>433.5</ele>
        <time>2012-03-04T11:35:27Z</time>
      </trkpt>
      <trkpt lat="44.12152" lon="4.27189">
        <ele>433.6</ele>
        <time>2012-03-04T11:35:28Z</time>
      </trkpt>
      <trkpt lat="44.12152" lon="4.27212">
        <ele>436.1</ele>
        <time>2012-03-04T11:35:48Z</time>
      </trkpt>
      <trkpt lat="44.1215" lon="4.27224">
        <ele>436.5</ele>
        <time>2012-03-04T11:35:59Z</time>
      </trkpt>
      <trkpt lat="44.12149" lon="4.27236">
        <ele>439.3</ele>
        <time>2012-03-04T11:36:16Z</time>
      </trkpt>
      <trkpt lat="44.12148" lon="4.27248">
        <ele>440.8</ele>
        <time>2012-03-04T11:37:39Z</time>
      </trkpt>
      <trkpt lat="44.12148" lon="4.2725">
        <ele>441</ele>
        <time>2012-03-04T11:37:40Z</time>
      </trkpt>
      <trkpt lat="44.12151" lon="4.27272">
        <ele>444</ele>
        <time>2012-03-04T11:37:57Z</time>
      </trkpt>
      <trkpt lat="44.12153" lon="4.27283">
        <ele>445.4</ele>
        <time>2012-03-04T11:38:05Z</time>
      </trkpt>
      <trkpt lat="44.12157" lon="4.27294">
        <ele>447</ele>
        <time>2012-03-04T11:38:13Z</time>
      </trkpt>
      <trkpt lat="44.12158" lon="4.27306">
        <ele>449.1</ele>
        <time>2012-03-04T11:38:29Z</time>
      </trkpt>
      <trkpt lat="44.12154" lon="4.27317">
        <ele>449.5</ele>
        <time>2012-03-04T11:38:38Z</time>
      </trkpt>
      <trkpt lat="44.12149" lon="4.27326">
        <ele>451.4</ele>
        <time>2012-03-04T11:38:47Z</time>
      </trkpt>
      <trkpt lat="44.12149" lon="4.27327">
        <ele>451.5</ele>
        <time>2012-03-04T11:38:48Z</time>
      </trkpt>
      <trkpt lat="44.12136" lon="4.2734">
        <ele>452.4</ele>
        <time>2012-03-04T11:39:02Z</time>
      </trkpt>
      <trkpt lat="44.12129" lon="4.27347">
        <ele>452.5</ele>
        <time>2012-03-04T11:39:09Z</time>
      </trkpt>
      <trkpt lat="44.12123" lon="4.27354">
        <ele>452.7</ele>
        <time>2012-03-04T11:39:16Z</time>
      </trkpt>
      <trkpt lat="44.12116" lon="4.27361">
        <ele>452.7</ele>
        <time>2012-03-04T11:39:22Z</time>
      </trkpt>
      <trkpt lat="44.1211" lon="4.27369">
        <ele>452.4</ele>
        <time>2012-03-04T11:39:28Z</time>
      </trkpt>
      <trkpt lat="44.12104" lon="4.27376">
        <ele>452.7</ele>
        <time>2012-03-04T11:39:34Z</time>
      </trkpt>
      <trkpt lat="44.12098" lon="4.27383">
        <ele>452.7</ele>
        <time>2012-03-04T11:39:40Z</time>
      </trkpt>
      <trkpt lat="44.12092" lon="4.2739">
        <ele>452.7</ele>
        <time>2012-03-04T11:39:46Z</time>
      </trkpt>
      <trkpt lat="44.12086" lon="4.27397">
        <ele>452.7</ele>
        <time>2012-03-04T11:39:52Z</time>
      </trkpt>
      <trkpt lat="44.12084" lon="4.27398">
        <ele>452.7</ele>
        <time>2012-03-04T11:39:53Z</time>
      </trkpt>
      <trkpt lat="44.12073" lon="4.27411">
        <ele>452.1</ele>
        <time>2012-03-04T11:40:04Z</time>
      </trkpt>
      <trkpt lat="44.12068" lon="4.27421">
        <ele>452.1</ele>
        <time>2012-03-04T11:40:10Z</time>
      </trkpt>
      <trkpt lat="44.12064" lon="4.27431">
        <ele>451.9</ele>
        <time>2012-03-04T11:40:16Z</time>
      </trkpt>
      <trkpt lat="44.12061" lon="4.27442">
        <ele>452.6</ele>
        <time>2012-03-04T11:40:23Z</time>
      </trkpt>
      <trkpt lat="44.12059" lon="4.27453">
        <ele>453.1</ele>
        <time>2012-03-04T11:40:30Z</time>
      </trkpt>
      <trkpt lat="44.1206" lon="4.27464">
        <ele>454.5</ele>
        <time>2012-03-04T11:40:37Z</time>
      </trkpt>
      <trkpt lat="44.12062" lon="4.27476">
        <ele>456.6</ele>
        <time>2012-03-04T11:40:44Z</time>
      </trkpt>
      <trkpt lat="44.12063" lon="4.27488">
        <ele>457.2</ele>
        <time>2012-03-04T11:40:52Z</time>
      </trkpt>
      <trkpt lat="44.12066" lon="4.275">
        <ele>459.2</ele>
        <time>2012-03-04T11:41:02Z</time>
      </trkpt>
      <trkpt lat="44.12066" lon="4.27501">
        <ele>459.3</ele>
        <time>2012-03-04T11:41:03Z</time>
      </trkpt>
      <trkpt lat="44.12073" lon="4.27522">
        <ele>461.8</ele>
        <time>2012-03-04T11:41:25Z</time>
      </trkpt>
      <trkpt lat="44.12077" lon="4.27533">
        <ele>463.5</ele>
        <time>2012-03-04T11:41:39Z</time>
      </trkpt>
      <trkpt lat="44.1208" lon="4.27544">
        <ele>466.2</ele>
        <time>2012-03-04T11:41:51Z</time>
      </trkpt>
      <trkpt lat="44.12082" lon="4.27556">
        <ele>467.6</ele>
        <time>2012-03-04T11:42:05Z</time>
      </trkpt>
      <trkpt lat="44.12082" lon="4.27556">
        <ele>467.6</ele>
        <time>2012-03-04T11:42:06Z</time>
      </trkpt>
      <trkpt lat="44.12089" lon="4.27577">
        <ele>470.2</ele>
        <time>2012-03-04T11:42:29Z</time>
      </trkpt>
      <trkpt lat="44.12094" lon="4.27587">
        <ele>471.9</ele>
        <time>2012-03-04T11:42:38Z</time>
      </trkpt>
      <trkpt lat="44.12098" lon="4.27597">
        <ele>473.4</ele>
        <time>2012-03-04T11:42:47Z</time>
      </trkpt>
      <trkpt lat="44.12103" lon="4.27607">
        <ele>474.5</ele>
        <time>2012-03-04T11:42:58Z</time>
      </trkpt>
      <trkpt lat="44.12109" lon="4.27615">
        <ele>476.1</ele>
        <time>2012-03-04T11:43:07Z</time>
      </trkpt>
      <trkpt lat="44.12109" lon="4.27616">
        <ele>476.3</ele>
        <time>2012-03-04T11:43:08Z</time>
      </trkpt>
      <trkpt lat="44.12119" lon="4.27635">
        <ele>480.1</ele>
        <time>2012-03-04T11:43:36Z</time>
      </trkpt>
      <trkpt lat="44.12126" lon="4.27643">
        <ele>481.1</ele>
        <time>2012-03-04T11:43:47Z</time>
      </trkpt>
      <trkpt lat="44.12133" lon="4.2765">
        <ele>482.8</ele>
        <time>2012-03-04T11:43:57Z</time>
      </trkpt>
      <trkpt lat="44.1214" lon="4.27657">
        <ele>484.4</ele>
        <time>2012-03-04T11:44:06Z</time>
      </trkpt>
      <trkpt lat="44.12147" lon="4.27664">
        <ele>485.7</ele>
        <time>2012-03-04T11:44:18Z</time>
      </trkpt>
      <trkpt lat="44.12147" lon="4.27664">
        <ele>485.9</ele>
        <time>2012-03-04T11:44:19Z</time>
      </trkpt>
      <trkpt lat="44.12159" lon="4.27681">
        <ele>488.6</ele>
        <time>2012-03-04T11:44:41Z</time>
      </trkpt>
      <trkpt lat="44.12163" lon="4.27691">
        <ele>489</ele>
        <time>2012-03-04T11:44:50Z</time>
      </trkpt>
      <trkpt lat="44.12167" lon="4.27702">
        <ele>490.2</ele>
        <time>2012-03-04T11:45:00Z</time>
      </trkpt>
      <trkpt lat="44.12171" lon="4.27713">
        <ele>491.7</ele>
        <time>2012-03-04T11:45:11Z</time>
      </trkpt>
      <trkpt lat="44.12175" lon="4.27723">
        <ele>492.6</ele>
        <time>2012-03-04T11:45:22Z</time>
      </trkpt>
      <trkpt lat="44.12176" lon="4.27725">
        <ele>492.8</ele>
        <time>2012-03-04T11:45:23Z</time>
      </trkpt>
      <trkpt lat="44.12183" lon="4.27743">
        <ele>495.6</ele>
        <time>2012-03-04T11:45:41Z</time>
      </trkpt>
      <trkpt lat="44.12186" lon="4.27754">
        <ele>496.6</ele>
        <time>2012-03-04T11:45:51Z</time>
      </trkpt>
      <trkpt lat="44.12191" lon="4.27765">
        <ele>497.9</ele>
        <time>2012-03-04T11:46:04Z</time>
      </trkpt>
      <trkpt lat="44.12196" lon="4.27775">
        <ele>500.8</ele>
        <time>2012-03-04T11:46:16Z</time>
      </trkpt>
      <trkpt lat="44.12203" lon="4.27782">
        <ele>502.4</ele>
        <time>2012-03-04T11:46:26Z</time>
      </trkpt>
      <trkpt lat="44.12204" lon="4.27782">
        <ele>502.5</ele>
        <time>2012-03-04T11:46:27Z</time>
      </trkpt>
      <trkpt lat="44.12217" lon="4.27793">
        <ele>505.1</ele>
        <time>2012-03-04T11:46:47Z</time>
      </trkpt>
      <trkpt lat="44.12225" lon="4.27798">
        <ele>505.6</ele>
        <time>2012-03-04T11:46:58Z</time>
      </trkpt>
      <trkpt lat="44.12233" lon="4.27802">
        <ele>506.3</ele>
        <time>2012-03-04T11:47:06Z</time>
      </trkpt>
      <trkpt lat="44.12241" lon="4.27808">
        <ele>506.6</ele>
        <time>2012-03-04T11:47:13Z</time>
      </trkpt>
      <trkpt lat="44.12249" lon="4.27812">
        <ele>507.8</ele>
        <time>2012-03-04T11:47:21Z</time>
      </trkpt>
      <trkpt lat="44.12256" lon="4.27816">
        <ele>508.3</ele>
        <time>2012-03-04T11:47:27Z</time>
      </trkpt>
      <trkpt lat="44.12257" lon="4.27816">
        <ele>508.3</ele>
        <time>2012-03-04T11:47:28Z</time>
      </trkpt>
      <trkpt lat="44.12273" lon="4.27817">
        <ele>507.8</ele>
        <time>2012-03-04T11:47:41Z</time>
      </trkpt>
      <trkpt lat="44.12281" lon="4.27816">
        <ele>507.1</ele>
        <time>2012-03-04T11:47:47Z</time>
      </trkpt>
      <trkpt lat="44.12289" lon="4.27815">
        <ele>508</ele>
        <time>2012-03-04T11:47:53Z</time>
      </trkpt>
      <trkpt lat="44.12297" lon="4.27815">
        <ele>508.4</ele>
        <time>2012-03-04T11:47:59Z</time>
      </trkpt>
      <trkpt lat="44.12305" lon="4.27814">
        <ele>507.9</ele>
        <time>2012-03-04T11:48:06Z</time>
      </trkpt>
      <trkpt lat="44.12314" lon="4.27812">
        <ele>508.4</ele>
        <time>2012-03-04T11:48:13Z</time>
      </trkpt>
      <trkpt lat="44.12322" lon="4.27811">
        <ele>508.8</ele>
        <time>2012-03-04T11:48:20Z</time>
      </trkpt>
      <trkpt lat="44.12331" lon="4.2781">
        <ele>508.4</ele>
        <time>2012-03-04T11:48:27Z</time>
      </trkpt>
      <trkpt lat="44.12338" lon="4.27809">
        <ele>509.1</ele>
        <time>2012-03-04T11:48:33Z</time>
      </trkpt>
      <trkpt lat="44.1234" lon="4.27809">
        <ele>509.3</ele>
        <time>2012-03-04T11:48:34Z</time>
      </trkpt>
      <trkpt lat="44.12355" lon="4.27806">
        <ele>509.8</ele>
        <time>2012-03-04T11:48:47Z</time>
      </trkpt>
      <trkpt lat="44.12363" lon="4.27805">
        <ele>510.4</ele>
        <time>2012-03-04T11:48:54Z</time>
      </trkpt>
      <trkpt lat="44.12371" lon="4.27804">
        <ele>510.3</ele>
        <time>2012-03-04T11:49:00Z</time>
      </trkpt>
      <trkpt lat="44.1238" lon="4.27806">
        <ele>510.8</ele>
        <time>2012-03-04T11:49:07Z</time>
      </trkpt>
      <trkpt lat="44.12387" lon="4.27809">
        <ele>511.1</ele>
        <time>2012-03-04T11:49:13Z</time>
      </trkpt>
      <trkpt lat="44.12394" lon="4.27816">
        <ele>510.7</ele>
        <time>2012-03-04T11:49:20Z</time>
      </trkpt>
      <trkpt lat="44.12398" lon="4.27827">
        <ele>511.4</ele>
        <time>2012-03-04T11:49:27Z</time>
      </trkpt>
      <trkpt lat="44.12401" lon="4.27837">
        <ele>510.8</ele>
        <time>2012-03-04T11:49:34Z</time>
      </trkpt>
      <trkpt lat="44.12402" lon="4.27839">
        <ele>510.8</ele>
        <time>2012-03-04T11:49:35Z</time>
      </trkpt>
      <trkpt lat="44.12411" lon="4.27858">
        <ele>510.2</ele>
        <time>2012-03-04T11:49:48Z</time>
      </trkpt>
      <trkpt lat="44.12416" lon="4.27868">
        <ele>509.4</ele>
        <time>2012-03-04T11:49:55Z</time>
      </trkpt>
      <trkpt lat="44.12421" lon="4.27877">
        <ele>509.4</ele>
        <time>2012-03-04T11:50:01Z</time>
      </trkpt>
      <trkpt lat="44.12426" lon="4.27886">
        <ele>509</ele>
        <time>2012-03-04T11:50:07Z</time>
      </trkpt>
      <trkpt lat="44.1243" lon="4.27896">
        <ele>509</ele>
        <time>2012-03-04T11:50:14Z</time>
      </trkpt>
      <trkpt lat="44.12434" lon="4.27906">
        <ele>509.3</ele>
        <time>2012-03-04T11:50:21Z</time>
      </trkpt>
      <trkpt lat="44.12439" lon="4.27914">
        <ele>510.1</ele>
        <time>2012-03-04T11:50:27Z</time>
      </trkpt>
      <trkpt lat="44.12445" lon="4.27923">
        <ele>510.8</ele>
        <time>2012-03-04T11:50:33Z</time>
      </trkpt>
      <trkpt lat="44.12453" lon="4.2793">
        <ele>510.9</ele>
        <time>2012-03-04T11:50:39Z</time>
      </trkpt>
      <trkpt lat="44.12454" lon="4.2793">
        <ele>511.1</ele>
        <time>2012-03-04T11:50:40Z</time>
      </trkpt>
      <trkpt lat="44.12469" lon="4.27939">
        <ele>511.7</ele>
        <time>2012-03-04T11:50:54Z</time>
      </trkpt>
      <trkpt lat="44.12476" lon="4.27941">
        <ele>512.6</ele>
        <time>2012-03-04T11:51:01Z</time>
      </trkpt>
      <trkpt lat="44.12485" lon="4.27943">
        <ele>514</ele>
        <time>2012-03-04T11:51:09Z</time>
      </trkpt>
      <trkpt lat="44.12493" lon="4.27947">
        <ele>515.8</ele>
        <time>2012-03-04T11:51:17Z</time>
      </trkpt>
      <trkpt lat="44.12501" lon="4.27949">
        <ele>516.1</ele>
        <time>2012-03-04T11:51:26Z</time>
      </trkpt>
      <trkpt lat="44.1251" lon="4.27951">
        <ele>517.8</ele>
        <time>2012-03-04T11:51:35Z</time>
      </trkpt>
      <trkpt lat="44.12518" lon="4.27954">
        <ele>518.6</ele>
        <time>2012-03-04T11:51:44Z</time>
      </trkpt>
      <trkpt lat="44.1252" lon="4.27954">
        <ele>518.8</ele>
        <time>2012-03-04T11:51:45Z</time>
      </trkpt>
      <trkpt lat="44.12535" lon="4.27957">
        <ele>521.8</ele>
        <time>2012-03-04T11:52:20Z</time>
      </trkpt>
      <trkpt lat="44.12543" lon="4.27963">
        <ele>522.4</ele>
        <time>2012-03-04T11:52:27Z</time>
      </trkpt>
      <trkpt lat="44.12551" lon="4.27969">
        <ele>523.2</ele>
        <time>2012-03-04T11:52:34Z</time>
      </trkpt>
      <trkpt lat="44.12559" lon="4.27972">
        <ele>524.1</ele>
        <time>2012-03-04T11:52:42Z</time>
      </trkpt>
      <trkpt lat="44.12566" lon="4.27977">
        <ele>524.3</ele>
        <time>2012-03-04T11:52:50Z</time>
      </trkpt>
      <trkpt lat="44.12567" lon="4.27978">
        <ele>524.6</ele>
        <time>2012-03-04T11:52:51Z</time>
      </trkpt>
      <trkpt lat="44.12579" lon="4.27991">
        <ele>526.1</ele>
        <time>2012-03-04T11:53:06Z</time>
      </trkpt>
      <trkpt lat="44.1258" lon="4.28003">
        <ele>527.8</ele>
        <time>2012-03-04T11:53:16Z</time>
      </trkpt>
      <trkpt lat="44.12575" lon="4.28014">
        <ele>528.4</ele>
        <time>2012-03-04T11:53:27Z</time>
      </trkpt>
      <trkpt lat="44.12572" lon="4.28025">
        <ele>529.5</ele>
        <time>2012-03-04T11:53:37Z</time>
      </trkpt>
      <trkpt lat="44.12569" lon="4.28036">
        <ele>530.5</ele>
        <time>2012-03-04T11:53:45Z</time>
      </trkpt>
      <trkpt lat="44.12567" lon="4.28046">
        <ele>532</ele>
        <time>2012-03-04T11:53:54Z</time>
      </trkpt>
      <trkpt lat="44.12566" lon="4.28048">
        <ele>532.1</ele>
        <time>2012-03-04T11:53:55Z</time>
      </trkpt>
      <trkpt lat="44.1256" lon="4.28067">
        <ele>533.9</ele>
        <time>2012-03-04T11:54:10Z</time>
      </trkpt>
      <trkpt lat="44.12557" lon="4.28078">
        <ele>534.7</ele>
        <time>2012-03-04T11:54:19Z</time>
      </trkpt>
      <trkpt lat="44.12553" lon="4.28088">
        <ele>537.2</ele>
        <time>2012-03-04T11:54:30Z</time>
      </trkpt>
      <trkpt lat="44.12549" lon="4.28098">
        <ele>537.8</ele>
        <time>2012-03-04T11:54:38Z</time>
      </trkpt>
      <trkpt lat="44.1255" lon="4.2811">
        <ele>538.8</ele>
        <time>2012-03-04T11:54:46Z</time>
      </trkpt>
      <trkpt lat="44.12554" lon="4.28119">
        <ele>539.3</ele>
        <time>2012-03-04T11:54:52Z</time>
      </trkpt>
      <trkpt lat="44.12559" lon="4.28129">
        <ele>540.5</ele>
        <time>2012-03-04T11:54:59Z</time>
      </trkpt>
      <trkpt lat="44.1256" lon="4.28131">
        <ele>540.6</ele>
        <time>2012-03-04T11:55:00Z</time>
      </trkpt>
      <trkpt lat="44.12571" lon="4.28145">
        <ele>541.2</ele>
        <time>2012-03-04T11:55:12Z</time>
      </trkpt>
      <trkpt lat="44.12579" lon="4.2815">
        <ele>542.3</ele>
        <time>2012-03-04T11:55:20Z</time>
      </trkpt>
      <trkpt lat="44.12587" lon="4.28155">
        <ele>541.3</ele>
        <time>2012-03-04T11:55:26Z</time>
      </trkpt>
      <trkpt lat="44.12595" lon="4.28159">
        <ele>542.2</ele>
        <time>2012-03-04T11:55:33Z</time>
      </trkpt>
      <trkpt lat="44.12603" lon="4.28163">
        <ele>542.7</ele>
        <time>2012-03-04T11:55:40Z</time>
      </trkpt>
      <trkpt lat="44.1261" lon="4.28167">
        <ele>544.2</ele>
        <time>2012-03-04T11:55:48Z</time>
      </trkpt>
      <trkpt lat="44.12619" lon="4.2817">
        <ele>545.5</ele>
        <time>2012-03-04T11:55:56Z</time>
      </trkpt>
      <trkpt lat="44.12627" lon="4.28173">
        <ele>546.7</ele>
        <time>2012-03-04T11:56:05Z</time>
      </trkpt>
      <trkpt lat="44.12628" lon="4.28174">
        <ele>546.6</ele>
        <time>2012-03-04T11:56:06Z</time>
      </trkpt>
      <trkpt lat="44.12643" lon="4.28182">
        <ele>547.7</ele>
        <time>2012-03-04T11:56:22Z</time>
      </trkpt>
      <trkpt lat="44.1265" lon="4.28189">
        <ele>548.5</ele>
        <time>2012-03-04T11:56:29Z</time>
      </trkpt>
      <trkpt lat="44.12658" lon="4.28195">
        <ele>550.2</ele>
        <time>2012-03-04T11:56:36Z</time>
      </trkpt>
      <trkpt lat="44.12665" lon="4.28201">
        <ele>549.9</ele>
        <time>2012-03-04T11:56:43Z</time>
      </trkpt>
      <trkpt lat="44.12673" lon="4.28206">
        <ele>550.5</ele>
        <time>2012-03-04T11:56:50Z</time>
      </trkpt>
      <trkpt lat="44.1268" lon="4.28211">
        <ele>551.2</ele>
        <time>2012-03-04T11:56:57Z</time>
      </trkpt>
      <trkpt lat="44.12688" lon="4.28215">
        <ele>551.4</ele>
        <time>2012-03-04T11:57:04Z</time>
      </trkpt>
      <trkpt lat="44.12696" lon="4.28219">
        <ele>552.3</ele>
        <time>2012-03-04T11:57:12Z</time>
      </trkpt>
      <trkpt lat="44.12697" lon="4.28219">
        <ele>552.3</ele>
        <time>2012-03-04T11:57:13Z</time>
      </trkpt>
      <trkpt lat="44.12711" lon="4.28227">
        <ele>552.3</ele>
        <time>2012-03-04T11:57:26Z</time>
      </trkpt>
      <trkpt lat="44.12719" lon="4.28232">
        <ele>552.4</ele>
        <time>2012-03-04T11:57:33Z</time>
      </trkpt>
      <trkpt lat="44.12727" lon="4.28236">
        <ele>552.7</ele>
        <time>2012-03-04T11:57:40Z</time>
      </trkpt>
      <trkpt lat="44.12734" lon="4.28241">
        <ele>552.7</ele>
        <time>2012-03-04T11:57:47Z</time>
      </trkpt>
      <trkpt lat="44.12742" lon="4.28246">
        <ele>553</ele>
        <time>2012-03-04T11:57:54Z</time>
      </trkpt>
      <trkpt lat="44.1275" lon="4.28251">
        <ele>553.7</ele>
        <time>2012-03-04T11:58:01Z</time>
      </trkpt>
      <trkpt lat="44.12758" lon="4.28256">
        <ele>554.6</ele>
        <time>2012-03-04T11:58:08Z</time>
      </trkpt>
      <trkpt lat="44.12766" lon="4.2826">
        <ele>555.1</ele>
        <time>2012-03-04T11:58:16Z</time>
      </trkpt>
      <trkpt lat="44.12767" lon="4.2826">
        <ele>555.3</ele>
        <time>2012-03-04T11:58:17Z</time>
      </trkpt>
      <trkpt lat="44.12782" lon="4.28266">
        <ele>556.6</ele>
        <time>2012-03-04T11:58:32Z</time>
      </trkpt>
      <trkpt lat="44.12791" lon="4.28266">
        <ele>557.9</ele>
        <time>2012-03-04T11:58:40Z</time>
      </trkpt>
      <trkpt lat="44.12799" lon="4.28264">
        <ele>558.2</ele>
        <time>2012-03-04T11:58:47Z</time>
      </trkpt>
      <trkpt lat="44.12807" lon="4.28261">
        <ele>557.9</ele>
        <time>2012-03-04T11:58:54Z</time>
      </trkpt>
      <trkpt lat="44.12813" lon="4.28251">
        <ele>558</ele>
        <time>2012-03-04T11:59:01Z</time>
      </trkpt>
      <trkpt lat="44.12818" lon="4.28241">
        <ele>557.4</ele>
        <time>2012-03-04T11:59:59Z</time>
      </trkpt>
      <trkpt lat="44.12818" lon="4.2824">
        <ele>557.3</ele>
        <time>2012-03-04T12:00:00Z</time>
      </trkpt>
      <trkpt lat="44.12823" lon="4.28259">
        <ele>559.4</ele>
        <time>2012-03-04T12:00:38Z</time>
      </trkpt>
      <trkpt lat="44.12819" lon="4.28269">
        <ele>561.6</ele>
        <time>2012-03-04T12:00:47Z</time>
      </trkpt>
      <trkpt lat="44.12815" lon="4.28279">
        <ele>563.5</ele>
        <time>2012-03-04T12:00:56Z</time>
      </trkpt>
      <trkpt lat="44.12811" lon="4.2829">
        <ele>564.7</ele>
        <time>2012-03-04T12:01:06Z</time>
      </trkpt>
      <trkpt lat="44.12811" lon="4.28291">
        <ele>564.9</ele>
        <time>2012-03-04T12:01:07Z</time>
      </trkpt>
      <trkpt lat="44.12803" lon="4.28312">
        <ele>568.7</ele>
        <time>2012-03-04T12:01:28Z</time>
      </trkpt>
      <trkpt lat="44.12799" lon="4.28322">
        <ele>570.6</ele>
        <time>2012-03-04T12:01:39Z</time>
      </trkpt>
      <trkpt lat="44.12795" lon="4.28333">
        <ele>572.9</ele>
        <time>2012-03-04T12:01:50Z</time>
      </trkpt>
      <trkpt lat="44.12791" lon="4.28344">
        <ele>575.5</ele>
        <time>2012-03-04T12:02:04Z</time>
      </trkpt>
      <trkpt lat="44.12787" lon="4.28355">
        <ele>576.9</ele>
        <time>2012-03-04T12:02:15Z</time>
      </trkpt>
      <trkpt lat="44.12787" lon="4.28356">
        <ele>577.1</ele>
        <time>2012-03-04T12:02:16Z</time>
      </trkpt>
      <trkpt lat="44.12782" lon="4.28378">
        <ele>581.5</ele>
        <time>2012-03-04T12:02:40Z</time>
      </trkpt>
      <trkpt lat="44.12781" lon="4.2839">
        <ele>583.1</ele>
        <time>2012-03-04T12:02:52Z</time>
      </trkpt>
      <trkpt lat="44.12782" lon="4.28402">
        <ele>585</ele>
        <time>2012-03-04T12:04:19Z</time>
      </trkpt>
      <trkpt lat="44.12782" lon="4.28402">
        <ele>585.1</ele>
        <time>2012-03-04T12:04:20Z</time>
      </trkpt>
      <trkpt lat="44.12789" lon="4.28424">
        <ele>587.9</ele>
        <time>2012-03-04T12:04:53Z</time>
      </trkpt>
      <trkpt lat="44.12798" lon="4.28426">
        <ele>589.4</ele>
        <time>2012-03-04T12:05:04Z</time>
      </trkpt>
      <trkpt lat="44.12806" lon="4.28426">
        <ele>590.6</ele>
        <time>2012-03-04T12:05:13Z</time>
      </trkpt>
      <trkpt lat="44.12814" lon="4.28427">
        <ele>590.9</ele>
        <time>2012-03-04T12:05:22Z</time>
      </trkpt>
      <trkpt lat="44.12816" lon="4.28427">
        <ele>590.9</ele>
        <time>2012-03-04T12:05:23Z</time>
      </trkpt>
      <trkpt lat="44.12832" lon="4.28427">
        <ele>593.1</ele>
        <time>2012-03-04T12:05:41Z</time>
      </trkpt>
      <trkpt lat="44.12841" lon="4.28427">
        <ele>594.5</ele>
        <time>2012-03-04T12:05:52Z</time>
      </trkpt>
      <trkpt lat="44.12849" lon="4.28427">
        <ele>595.9</ele>
        <time>2012-03-04T12:06:01Z</time>
      </trkpt>
      <trkpt lat="44.12857" lon="4.28426">
        <ele>596.4</ele>
        <time>2012-03-04T12:06:10Z</time>
      </trkpt>
      <trkpt lat="44.12866" lon="4.28424">
        <ele>597.7</ele>
        <time>2012-03-04T12:06:20Z</time>
      </trkpt>
      <trkpt lat="44.12874" lon="4.28421">
        <ele>599</ele>
        <time>2012-03-04T12:06:29Z</time>
      </trkpt>
      <trkpt lat="44.12875" lon="4.28421">
        <ele>599.4</ele>
        <time>2012-03-04T12:06:30Z</time>
      </trkpt>
      <trkpt lat="44.12891" lon="4.28422">
        <ele>601.9</ele>
        <time>2012-03-04T12:06:47Z</time>
      </trkpt>
      <trkpt lat="44.12899" lon="4.28424">
        <ele>603.5</ele>
        <time>2012-03-04T12:06:56Z</time>
      </trkpt>
      <trkpt lat="44.12908" lon="4.28425">
        <ele>604.8</ele>
        <time>2012-03-04T12:07:06Z</time>
      </trkpt>
      <trkpt lat="44.12916" lon="4.28428">
        <ele>606.2</ele>
        <time>2012-03-04T12:07:15Z</time>
      </trkpt>
      <trkpt lat="44.12924" lon="4.28432">
        <ele>607.1</ele>
        <time>2012-03-04T12:07:24Z</time>
      </trkpt>
      <trkpt lat="44.12933" lon="4.28432">
        <ele>608.4</ele>
        <time>2012-03-04T12:08:53Z</time>
      </trkpt>
      <trkpt lat="44.12933" lon="4.28433">
        <ele>608.6</ele>
        <time>2012-03-04T12:08:54Z</time>
      </trkpt>
      <trkpt lat="44.1295" lon="4.28438">
        <ele>609.8</ele>
        <time>2012-03-04T12:09:14Z</time>
      </trkpt>
      <trkpt lat="44.12958" lon="4.2844">
        <ele>611.7</ele>
        <time>2012-03-04T12:09:24Z</time>
      </trkpt>
      <trkpt lat="44.12967" lon="4.28443">
        <ele>611</ele>
        <time>2012-03-04T12:09:34Z</time>
      </trkpt>
      <trkpt lat="44.12976" lon="4.28446">
        <ele>612.4</ele>
        <time>2012-03-04T12:09:45Z</time>
      </trkpt>
      <trkpt lat="44.12984" lon="4.28449">
        <ele>613.7</ele>
        <time>2012-03-04T12:09:56Z</time>
      </trkpt>
      <trkpt lat="44.12985" lon="4.28449">
        <ele>613.9</ele>
        <time>2012-03-04T12:09:57Z</time>
      </trkpt>
      <trkpt lat="44.13001" lon="4.28453">
        <ele>616.1</ele>
        <time>2012-03-04T12:10:18Z</time>
      </trkpt>
      <trkpt lat="44.1301" lon="4.28455">
        <ele>617.5</ele>
        <time>2012-03-04T12:10:28Z</time>
      </trkpt>
      <trkpt lat="44.13018" lon="4.28455">
        <ele>617.9</ele>
        <time>2012-03-04T12:10:37Z</time>
      </trkpt>
      <trkpt lat="44.13027" lon="4.28458">
        <ele>619</ele>
        <time>2012-03-04T12:10:48Z</time>
      </trkpt>
      <trkpt lat="44.13035" lon="4.28463">
        <ele>619.7</ele>
        <time>2012-03-04T12:10:59Z</time>
      </trkpt>
      <trkpt lat="44.13036" lon="4.28464">
        <ele>620.1</ele>
        <time>2012-03-04T12:11:00Z</time>
      </trkpt>
      <trkpt lat="44.13051" lon="4.28473">
        <ele>622.4</ele>
        <time>2012-03-04T12:11:21Z</time>
      </trkpt>
      <trkpt lat="44.13059" lon="4.28477">
        <ele>622.3</ele>
        <time>2012-03-04T12:11:31Z</time>
      </trkpt>
      <trkpt lat="44.13067" lon="4.2848">
        <ele>623</ele>
        <time>2012-03-04T12:11:40Z</time>
      </trkpt>
      <trkpt lat="44.13075" lon="4.28483">
        <ele>624.6</ele>
        <time>2012-03-04T12:11:49Z</time>
      </trkpt>
      <trkpt lat="44.13083" lon="4.28487">
        <ele>625.6</ele>
        <time>2012-03-04T12:11:57Z</time>
      </trkpt>
      <trkpt lat="44.13091" lon="4.28491">
        <ele>626.5</ele>
        <time>2012-03-04T12:12:07Z</time>
      </trkpt>
      <trkpt lat="44.13092" lon="4.28491">
        <ele>626.6</ele>
        <time>2012-03-04T12:12:08Z</time>
      </trkpt>
      <trkpt lat="44.13108" lon="4.28494">
        <ele>627.5</ele>
        <time>2012-03-04T12:12:29Z</time>
      </trkpt>
      <trkpt lat="44.13116" lon="4.28496">
        <ele>627.4</ele>
        <time>2012-03-04T12:12:38Z</time>
      </trkpt>
      <trkpt lat="44.13125" lon="4.285">
        <ele>627.8</ele>
        <time>2012-03-04T12:12:48Z</time>
      </trkpt>
      <trkpt lat="44.13132" lon="4.28503">
        <ele>627.9</ele>
        <time>2012-03-04T12:13:33Z</time>
      </trkpt>
      <trkpt lat="44.13133" lon="4.28503">
        <ele>628.1</ele>
        <time>2012-03-04T12:13:34Z</time>
      </trkpt>
      <trkpt lat="44.1315" lon="4.28501">
        <ele>629.3</ele>
        <time>2012-03-04T12:13:52Z</time>
      </trkpt>
      <trkpt lat="44.13158" lon="4.28503">
        <ele>629.3</ele>
        <time>2012-03-04T12:13:59Z</time>
      </trkpt>
      <trkpt lat="44.13167" lon="4.28504">
        <ele>629.6</ele>
        <time>2012-03-04T12:14:07Z</time>
      </trkpt>
      <trkpt lat="44.13174" lon="4.28508">
        <ele>630.4</ele>
        <time>2012-03-04T12:14:15Z</time>
      </trkpt>
      <trkpt lat="44.13182" lon="4.28514">
        <ele>631.7</ele>
        <time>2012-03-04T12:14:25Z</time>
      </trkpt>
      <trkpt lat="44.13189" lon="4.2852">
        <ele>632.7</ele>
        <time>2012-03-04T12:14:35Z</time>
      </trkpt>
      <trkpt lat="44.1319" lon="4.2852">
        <ele>632.8</ele>
        <time>2012-03-04T12:14:36Z</time>
      </trkpt>
      <trkpt lat="44.13196" lon="4.2853">
        <ele>634.7</ele>
        <time>2012-03-04T12:15:40Z</time>
      </trkpt>
      <trkpt lat="44.1321" lon="4.2854">
        <ele>635.1</ele>
        <time>2012-03-04T12:16:20Z</time>
      </trkpt>
      <trkpt lat="44.13218" lon="4.28546">
        <ele>636</ele>
        <time>2012-03-04T12:16:35Z</time>
      </trkpt>
      <trkpt lat="44.13226" lon="4.28549">
        <ele>636.8</ele>
        <time>2012-03-04T12:16:45Z</time>
      </trkpt>
      <trkpt lat="44.13227" lon="4.2855">
        <ele>636.7</ele>
        <time>2012-03-04T12:16:46Z</time>
      </trkpt>
      <trkpt lat="44.13241" lon="4.2856">
        <ele>639.3</ele>
        <time>2012-03-04T12:17:11Z</time>
      </trkpt>
      <trkpt lat="44.13249" lon="4.28565">
        <ele>640.4</ele>
        <time>2012-03-04T12:17:22Z</time>
      </trkpt>
      <trkpt lat="44.13255" lon="4.28573">
        <ele>641.5</ele>
        <time>2012-03-04T12:17:33Z</time>
      </trkpt>
      <trkpt lat="44.13247" lon="4.2857">
        <ele>648.2</ele>
        <time>2012-03-04T12:54:24Z</time>
      </trkpt>
      <trkpt lat="44.13246" lon="4.2857">
        <ele>647.9</ele>
        <time>2012-03-04T12:54:25Z</time>
      </trkpt>
      <trkpt lat="44.13245" lon="4.28593">
        <ele>642.5</ele>
        <time>2012-03-04T12:55:28Z</time>
      </trkpt>
      <trkpt lat="44.13245" lon="4.28594">
        <ele>642.5</ele>
        <time>2012-03-04T12:55:29Z</time>
      </trkpt>
      <trkpt lat="44.13236" lon="4.28593">
        <ele>641.2</ele>
        <time>2012-03-04T13:01:57Z</time>
      </trkpt>
      <trkpt lat="44.13244" lon="4.28586">
        <ele>642.5</ele>
        <time>2012-03-04T13:08:58Z</time>
      </trkpt>
      <trkpt lat="44.13255" lon="4.28573">
        <ele>647.2</ele>
        <time>2012-03-04T13:09:34Z</time>
      </trkpt>
      <trkpt lat="44.13263" lon="4.28577">
        <ele>647.9</ele>
        <time>2012-03-04T13:09:44Z</time>
      </trkpt>
      <trkpt lat="44.13271" lon="4.28579">
        <ele>647.3</ele>
        <time>2012-03-04T13:09:56Z</time>
      </trkpt>
      <trkpt lat="44.1328" lon="4.28583">
        <ele>648.6</ele>
        <time>2012-03-04T13:11:12Z</time>
      </trkpt>
      <trkpt lat="44.13281" lon="4.28583">
        <ele>648.6</ele>
        <time>2012-03-04T13:11:13Z</time>
      </trkpt>
      <trkpt lat="44.13296" lon="4.28586">
        <ele>647.9</ele>
        <time>2012-03-04T13:12:07Z</time>
      </trkpt>
      <trkpt lat="44.13305" lon="4.28586">
        <ele>646.5</ele>
        <time>2012-03-04T13:12:21Z</time>
      </trkpt>
      <trkpt lat="44.13306" lon="4.28586">
        <ele>646.6</ele>
        <time>2012-03-04T13:12:22Z</time>
      </trkpt>
      <trkpt lat="44.13321" lon="4.28592">
        <ele>645.7</ele>
        <time>2012-03-04T13:12:59Z</time>
      </trkpt>
      <trkpt lat="44.13329" lon="4.2859">
        <ele>645.2</ele>
        <time>2012-03-04T13:13:07Z</time>
      </trkpt>
      <trkpt lat="44.13338" lon="4.28588">
        <ele>644.6</ele>
        <time>2012-03-04T13:13:16Z</time>
      </trkpt>
      <trkpt lat="44.13347" lon="4.2859">
        <ele>642.3</ele>
        <time>2012-03-04T13:13:27Z</time>
      </trkpt>
      <trkpt lat="44.13348" lon="4.2859">
        <ele>642.1</ele>
        <time>2012-03-04T13:13:28Z</time>
      </trkpt>
      <trkpt lat="44.1336" lon="4.28577">
        <ele>640.7</ele>
        <time>2012-03-04T13:13:40Z</time>
      </trkpt>
      <trkpt lat="44.13367" lon="4.28569">
        <ele>640</ele>
        <time>2012-03-04T13:13:47Z</time>
      </trkpt>
      <trkpt lat="44.13374" lon="4.28563">
        <ele>638.4</ele>
        <time>2012-03-04T13:13:54Z</time>
      </trkpt>
      <trkpt lat="44.13382" lon="4.28557">
        <ele>636.7</ele>
        <time>2012-03-04T13:14:02Z</time>
      </trkpt>
      <trkpt lat="44.13389" lon="4.28551">
        <ele>635.7</ele>
        <time>2012-03-04T13:14:11Z</time>
      </trkpt>
      <trkpt lat="44.13397" lon="4.28548">
        <ele>634.5</ele>
        <time>2012-03-04T13:14:22Z</time>
      </trkpt>
      <trkpt lat="44.13406" lon="4.28544">
        <ele>632.2</ele>
        <time>2012-03-04T13:14:34Z</time>
      </trkpt>
      <trkpt lat="44.13406" lon="4.28544">
        <ele>632.2</ele>
        <time>2012-03-04T13:14:35Z</time>
      </trkpt>
      <trkpt lat="44.13423" lon="4.28538">
        <ele>628.8</ele>
        <time>2012-03-04T13:15:00Z</time>
      </trkpt>
      <trkpt lat="44.13431" lon="4.28536">
        <ele>627</ele>
        <time>2012-03-04T13:15:10Z</time>
      </trkpt>
      <trkpt lat="44.1344" lon="4.28533">
        <ele>626.5</ele>
        <time>2012-03-04T13:15:20Z</time>
      </trkpt>
      <trkpt lat="44.13448" lon="4.2853">
        <ele>624.6</ele>
        <time>2012-03-04T13:15:28Z</time>
      </trkpt>
      <trkpt lat="44.13457" lon="4.28528">
        <ele>621.6</ele>
        <time>2012-03-04T13:15:37Z</time>
      </trkpt>
      <trkpt lat="44.13458" lon="4.28528">
        <ele>620.9</ele>
        <time>2012-03-04T13:15:38Z</time>
      </trkpt>
      <trkpt lat="44.1347" lon="4.28518">
        <ele>620.9</ele>
        <time>2012-03-04T13:15:53Z</time>
      </trkpt>
      <trkpt lat="44.13476" lon="4.28509">
        <ele>619.8</ele>
        <time>2012-03-04T13:16:01Z</time>
      </trkpt>
      <trkpt lat="44.13482" lon="4.285">
        <ele>618.3</ele>
        <time>2012-03-04T13:16:11Z</time>
      </trkpt>
      <trkpt lat="44.13487" lon="4.28491">
        <ele>616.4</ele>
        <time>2012-03-04T13:16:21Z</time>
      </trkpt>
      <trkpt lat="44.13493" lon="4.28482">
        <ele>614.7</ele>
        <time>2012-03-04T13:16:33Z</time>
      </trkpt>
      <trkpt lat="44.13498" lon="4.28472">
        <ele>613.1</ele>
        <time>2012-03-04T13:16:42Z</time>
      </trkpt>
      <trkpt lat="44.13499" lon="4.28471">
        <ele>612.8</ele>
        <time>2012-03-04T13:16:43Z</time>
      </trkpt>
      <trkpt lat="44.13508" lon="4.28454">
        <ele>609.8</ele>
        <time>2012-03-04T13:17:00Z</time>
      </trkpt>
      <trkpt lat="44.13514" lon="4.28445">
        <ele>608.6</ele>
        <time>2012-03-04T13:17:10Z</time>
      </trkpt>
      <trkpt lat="44.13518" lon="4.28456">
        <ele>606.6</ele>
        <time>2012-03-04T13:17:51Z</time>
      </trkpt>
      <trkpt lat="44.13518" lon="4.28457">
        <ele>606.6</ele>
        <time>2012-03-04T13:17:52Z</time>
      </trkpt>
      <trkpt lat="44.13516" lon="4.2848">
        <ele>609.4</ele>
        <time>2012-03-04T13:18:10Z</time>
      </trkpt>
      <trkpt lat="44.13513" lon="4.28491">
        <ele>610.3</ele>
        <time>2012-03-04T13:18:20Z</time>
      </trkpt>
      <trkpt lat="44.13512" lon="4.28503">
        <ele>610.5</ele>
        <time>2012-03-04T13:18:30Z</time>
      </trkpt>
      <trkpt lat="44.13511" lon="4.28515">
        <ele>611.9</ele>
        <time>2012-03-04T13:18:40Z</time>
      </trkpt>
      <trkpt lat="44.13516" lon="4.28523">
        <ele>611</ele>
        <time>2012-03-04T13:18:48Z</time>
      </trkpt>
      <trkpt lat="44.13524" lon="4.28528">
        <ele>609</ele>
        <time>2012-03-04T13:18:58Z</time>
      </trkpt>
      <trkpt lat="44.13525" lon="4.28528">
        <ele>608.8</ele>
        <time>2012-03-04T13:18:59Z</time>
      </trkpt>
      <trkpt lat="44.1354" lon="4.28538">
        <ele>605.3</ele>
        <time>2012-03-04T13:19:19Z</time>
      </trkpt>
      <trkpt lat="44.13548" lon="4.28535">
        <ele>603.9</ele>
        <time>2012-03-04T13:19:28Z</time>
      </trkpt>
      <trkpt lat="44.13556" lon="4.28531">
        <ele>602.5</ele>
        <time>2012-03-04T13:19:37Z</time>
      </trkpt>
      <trkpt lat="44.13563" lon="4.28524">
        <ele>600.8</ele>
        <time>2012-03-04T13:19:45Z</time>
      </trkpt>
      <trkpt lat="44.1357" lon="4.28517">
        <ele>599.1</ele>
        <time>2012-03-04T13:19:54Z</time>
      </trkpt>
      <trkpt lat="44.13578" lon="4.28512">
        <ele>598.1</ele>
        <time>2012-03-04T13:20:02Z</time>
      </trkpt>
      <trkpt lat="44.13579" lon="4.28512">
        <ele>598</ele>
        <time>2012-03-04T13:20:03Z</time>
      </trkpt>
      <trkpt lat="44.13594" lon="4.28507">
        <ele>595.7</ele>
        <time>2012-03-04T13:20:24Z</time>
      </trkpt>
      <trkpt lat="44.13601" lon="4.28502">
        <ele>593.8</ele>
        <time>2012-03-04T13:20:34Z</time>
      </trkpt>
      <trkpt lat="44.13608" lon="4.28494">
        <ele>591.2</ele>
        <time>2012-03-04T13:20:46Z</time>
      </trkpt>
      <trkpt lat="44.13616" lon="4.28492">
        <ele>589.1</ele>
        <time>2012-03-04T13:20:58Z</time>
      </trkpt>
      <trkpt lat="44.13624" lon="4.28496">
        <ele>587.7</ele>
        <time>2012-03-04T13:21:06Z</time>
      </trkpt>
      <trkpt lat="44.13625" lon="4.28496">
        <ele>586.9</ele>
        <time>2012-03-04T13:21:07Z</time>
      </trkpt>
      <trkpt lat="44.13639" lon="4.2849">
        <ele>584.6</ele>
        <time>2012-03-04T13:21:29Z</time>
      </trkpt>
      <trkpt lat="44.13645" lon="4.28481">
        <ele>582.6</ele>
        <time>2012-03-04T13:21:40Z</time>
      </trkpt>
      <trkpt lat="44.13653" lon="4.28477">
        <ele>582.5</ele>
        <time>2012-03-04T13:21:52Z</time>
      </trkpt>
      <trkpt lat="44.13662" lon="4.28476">
        <ele>580.1</ele>
        <time>2012-03-04T13:22:04Z</time>
      </trkpt>
      <trkpt lat="44.13668" lon="4.28469">
        <ele>576.3</ele>
        <time>2012-03-04T13:22:39Z</time>
      </trkpt>
      <trkpt lat="44.13669" lon="4.28469">
        <ele>576.2</ele>
        <time>2012-03-04T13:22:40Z</time>
      </trkpt>
      <trkpt lat="44.13685" lon="4.28461">
        <ele>573.7</ele>
        <time>2012-03-04T13:23:09Z</time>
      </trkpt>
      <trkpt lat="44.13694" lon="4.28462">
        <ele>572.6</ele>
        <time>2012-03-04T13:23:22Z</time>
      </trkpt>
      <trkpt lat="44.13702" lon="4.28459">
        <ele>571.2</ele>
        <time>2012-03-04T13:23:35Z</time>
      </trkpt>
      <trkpt lat="44.1371" lon="4.28466">
        <ele>569.7</ele>
        <time>2012-03-04T13:23:46Z</time>
      </trkpt>
      <trkpt lat="44.1371" lon="4.28467">
        <ele>569.5</ele>
        <time>2012-03-04T13:23:47Z</time>
      </trkpt>
      <trkpt lat="44.13723" lon="4.2848">
        <ele>566.1</ele>
        <time>2012-03-04T13:24:13Z</time>
      </trkpt>
      <trkpt lat="44.13725" lon="4.28491">
        <ele>564.7</ele>
        <time>2012-03-04T13:24:23Z</time>
      </trkpt>
      <trkpt lat="44.13725" lon="4.28504">
        <ele>564.7</ele>
        <time>2012-03-04T13:24:32Z</time>
      </trkpt>
      <trkpt lat="44.13724" lon="4.28516">
        <ele>563.9</ele>
        <time>2012-03-04T13:24:40Z</time>
      </trkpt>
      <trkpt lat="44.13726" lon="4.28527">
        <ele>562.5</ele>
        <time>2012-03-04T13:24:49Z</time>
      </trkpt>
      <trkpt lat="44.13726" lon="4.28529">
        <ele>562.4</ele>
        <time>2012-03-04T13:24:50Z</time>
      </trkpt>
      <trkpt lat="44.13731" lon="4.2855">
        <ele>558.8</ele>
        <time>2012-03-04T13:25:06Z</time>
      </trkpt>
      <trkpt lat="44.13734" lon="4.2856">
        <ele>557.8</ele>
        <time>2012-03-04T13:25:13Z</time>
      </trkpt>
      <trkpt lat="44.13737" lon="4.28571">
        <ele>556.8</ele>
        <time>2012-03-04T13:25:19Z</time>
      </trkpt>
      <trkpt lat="44.13741" lon="4.28582">
        <ele>555.3</ele>
        <time>2012-03-04T13:25:26Z</time>
      </trkpt>
      <trkpt lat="44.13745" lon="4.28592">
        <ele>554.3</ele>
        <time>2012-03-04T13:25:32Z</time>
      </trkpt>
      <trkpt lat="44.13749" lon="4.28601">
        <ele>552.6</ele>
        <time>2012-03-04T13:25:38Z</time>
      </trkpt>
      <trkpt lat="44.13754" lon="4.2861">
        <ele>552.3</ele>
        <time>2012-03-04T13:25:44Z</time>
      </trkpt>
      <trkpt lat="44.13758" lon="4.28619">
        <ele>551.9</ele>
        <time>2012-03-04T13:25:50Z</time>
      </trkpt>
      <trkpt lat="44.13759" lon="4.28621">
        <ele>551.8</ele>
        <time>2012-03-04T13:25:51Z</time>
      </trkpt>
      <trkpt lat="44.1377" lon="4.28636">
        <ele>550.9</ele>
        <time>2012-03-04T13:26:03Z</time>
      </trkpt>
      <trkpt lat="44.13777" lon="4.28643">
        <ele>549.3</ele>
        <time>2012-03-04T13:26:10Z</time>
      </trkpt>
      <trkpt lat="44.13786" lon="4.28647">
        <ele>548.5</ele>
        <time>2012-03-04T13:26:17Z</time>
      </trkpt>
      <trkpt lat="44.13794" lon="4.28648">
        <ele>546.1</ele>
        <time>2012-03-04T13:26:23Z</time>
      </trkpt>
      <trkpt lat="44.13803" lon="4.2865">
        <ele>545.9</ele>
        <time>2012-03-04T13:26:30Z</time>
      </trkpt>
      <trkpt lat="44.13811" lon="4.28652">
        <ele>546.5</ele>
        <time>2012-03-04T13:26:36Z</time>
      </trkpt>
      <trkpt lat="44.13819" lon="4.28654">
        <ele>543.6</ele>
        <time>2012-03-04T13:26:43Z</time>
      </trkpt>
      <trkpt lat="44.13827" lon="4.28658">
        <ele>547.5</ele>
        <time>2012-03-04T13:26:50Z</time>
      </trkpt>
      <trkpt lat="44.13834" lon="4.28664">
        <ele>547.2</ele>
        <time>2012-03-04T13:26:58Z</time>
      </trkpt>
      <trkpt lat="44.13835" lon="4.28665">
        <ele>547.2</ele>
        <time>2012-03-04T13:26:59Z</time>
      </trkpt>
      <trkpt lat="44.13835" lon="4.28663">
        <ele>548.4</ele>
        <time>2012-03-04T13:28:14Z</time>
      </trkpt>
      <trkpt lat="44.13834" lon="4.28662">
        <ele>548.5</ele>
        <time>2012-03-04T13:28:15Z</time>
      </trkpt>
      <trkpt lat="44.13834" lon="4.28665">
        <ele>547.5</ele>
        <time>2012-03-04T13:33:52Z</time>
      </trkpt>
      <trkpt lat="44.13835" lon="4.28666">
        <ele>547.2</ele>
        <time>2012-03-04T13:33:53Z</time>
      </trkpt>
      <trkpt lat="44.13848" lon="4.28678">
        <ele>547.3</ele>
        <time>2012-03-04T13:34:08Z</time>
      </trkpt>
      <trkpt lat="44.13857" lon="4.28681">
        <ele>548.6</ele>
        <time>2012-03-04T13:34:17Z</time>
      </trkpt>
      <trkpt lat="44.13865" lon="4.28679">
        <ele>548.4</ele>
        <time>2012-03-04T13:34:24Z</time>
      </trkpt>
      <trkpt lat="44.13873" lon="4.28678">
        <ele>547.3</ele>
        <time>2012-03-04T13:34:31Z</time>
      </trkpt>
      <trkpt lat="44.13882" lon="4.28678">
        <ele>547.5</ele>
        <time>2012-03-04T13:34:38Z</time>
      </trkpt>
      <trkpt lat="44.1389" lon="4.28683">
        <ele>546.5</ele>
        <time>2012-03-04T13:34:45Z</time>
      </trkpt>
      <trkpt lat="44.13897" lon="4.2869">
        <ele>546.1</ele>
        <time>2012-03-04T13:34:52Z</time>
      </trkpt>
      <trkpt lat="44.13903" lon="4.28698">
        <ele>544.5</ele>
        <time>2012-03-04T13:34:59Z</time>
      </trkpt>
      <trkpt lat="44.13903" lon="4.28699">
        <ele>544.3</ele>
        <time>2012-03-04T13:35:00Z</time>
      </trkpt>
      <trkpt lat="44.13917" lon="4.28712">
        <ele>540.9</ele>
        <time>2012-03-04T13:35:13Z</time>
      </trkpt>
      <trkpt lat="44.13925" lon="4.28713">
        <ele>541.2</ele>
        <time>2012-03-04T13:36:58Z</time>
      </trkpt>
      <trkpt lat="44.13926" lon="4.28713">
        <ele>541.2</ele>
        <time>2012-03-04T13:36:59Z</time>
      </trkpt>
      <trkpt lat="44.13919" lon="4.2873">
        <ele>538.9</ele>
        <time>2012-03-04T13:40:28Z</time>
      </trkpt>
      <trkpt lat="44.13926" lon="4.28718">
        <ele>539.6</ele>
        <time>2012-03-04T13:40:30Z</time>
      </trkpt>
      <trkpt lat="44.13934" lon="4.28722">
        <ele>540.3</ele>
        <time>2012-03-04T13:40:45Z</time>
      </trkpt>
      <trkpt lat="44.13942" lon="4.28726">
        <ele>542.7</ele>
        <time>2012-03-04T13:40:56Z</time>
      </trkpt>
      <trkpt lat="44.1395" lon="4.28731">
        <ele>545.7</ele>
        <time>2012-03-04T13:41:14Z</time>
      </trkpt>
      <trkpt lat="44.13959" lon="4.28735">
        <ele>547.5</ele>
        <time>2012-03-04T13:41:31Z</time>
      </trkpt>
      <trkpt lat="44.13959" lon="4.28735">
        <ele>547.9</ele>
        <time>2012-03-04T13:41:32Z</time>
      </trkpt>
      <trkpt lat="44.14072" lon="4.28571">
        <ele>552.9</ele>
        <time>2012-03-04T13:49:56Z</time>
      </trkpt>
      <trkpt lat="44.13964" lon="4.28727">
        <ele>553</ele>
        <time>2012-03-04T13:49:58Z</time>
      </trkpt>
      <trkpt lat="44.1396" lon="4.28738">
        <ele>549.6</ele>
        <time>2012-03-04T13:50:54Z</time>
      </trkpt>
      <trkpt lat="44.13953" lon="4.28731">
        <ele>547.1</ele>
        <time>2012-03-04T13:52:04Z</time>
      </trkpt>
      <trkpt lat="44.13953" lon="4.2873">
        <ele>546.7</ele>
        <time>2012-03-04T13:52:05Z</time>
      </trkpt>
      <trkpt lat="44.13937" lon="4.28722">
        <ele>543.5</ele>
        <time>2012-03-04T13:52:31Z</time>
      </trkpt>
      <trkpt lat="44.13929" lon="4.28717">
        <ele>542.5</ele>
        <time>2012-03-04T13:52:40Z</time>
      </trkpt>
      <trkpt lat="44.13921" lon="4.28716">
        <ele>542.1</ele>
        <time>2012-03-04T13:53:02Z</time>
      </trkpt>
      <trkpt lat="44.13914" lon="4.28712">
        <ele>539.2</ele>
        <time>2012-03-04T13:53:10Z</time>
      </trkpt>
      <trkpt lat="44.13913" lon="4.28711">
        <ele>539.7</ele>
        <time>2012-03-04T13:53:11Z</time>
      </trkpt>
      <trkpt lat="44.13902" lon="4.28696">
        <ele>543.8</ele>
        <time>2012-03-04T13:53:26Z</time>
      </trkpt>
      <trkpt lat="44.13896" lon="4.28688">
        <ele>544.8</ele>
        <time>2012-03-04T13:53:33Z</time>
      </trkpt>
      <trkpt lat="44.13889" lon="4.28682">
        <ele>541.7</ele>
        <time>2012-03-04T13:53:40Z</time>
      </trkpt>
      <trkpt lat="44.13881" lon="4.28677">
        <ele>545.1</ele>
        <time>2012-03-04T13:53:47Z</time>
      </trkpt>
      <trkpt lat="44.13873" lon="4.28677">
        <ele>549</ele>
        <time>2012-03-04T13:53:54Z</time>
      </trkpt>
      <trkpt lat="44.13865" lon="4.28678">
        <ele>551.4</ele>
        <time>2012-03-04T13:54:00Z</time>
      </trkpt>
      <trkpt lat="44.13856" lon="4.28678">
        <ele>551.7</ele>
        <time>2012-03-04T13:54:06Z</time>
      </trkpt>
      <trkpt lat="44.13849" lon="4.28672">
        <ele>550.4</ele>
        <time>2012-03-04T13:54:15Z</time>
      </trkpt>
      <trkpt lat="44.13848" lon="4.28671">
        <ele>550</ele>
        <time>2012-03-04T13:54:16Z</time>
      </trkpt>
      <trkpt lat="44.13847" lon="4.28651">
        <ele>549.5</ele>
        <time>2012-03-04T13:55:22Z</time>
      </trkpt>
      <trkpt lat="44.13848" lon="4.2865">
        <ele>549.6</ele>
        <time>2012-03-04T13:55:23Z</time>
      </trkpt>
      <trkpt lat="44.13861" lon="4.28639">
        <ele>547.6</ele>
        <time>2012-03-04T13:55:35Z</time>
      </trkpt>
      <trkpt lat="44.13868" lon="4.28634">
        <ele>547</ele>
        <time>2012-03-04T13:55:41Z</time>
      </trkpt>
      <trkpt lat="44.13875" lon="4.28628">
        <ele>547.6</ele>
        <time>2012-03-04T13:55:47Z</time>
      </trkpt>
      <trkpt lat="44.13883" lon="4.28622">
        <ele>547.7</ele>
        <time>2012-03-04T13:55:54Z</time>
      </trkpt>
      <trkpt lat="44.1389" lon="4.28617">
        <ele>547.7</ele>
        <time>2012-03-04T13:56:00Z</time>
      </trkpt>
      <trkpt lat="44.13898" lon="4.28611">
        <ele>547</ele>
        <time>2012-03-04T13:56:07Z</time>
      </trkpt>
      <trkpt lat="44.13906" lon="4.28606">
        <ele>547.8</ele>
        <time>2012-03-04T13:56:15Z</time>
      </trkpt>
      <trkpt lat="44.13914" lon="4.28603">
        <ele>548.2</ele>
        <time>2012-03-04T13:56:23Z</time>
      </trkpt>
      <trkpt lat="44.13916" lon="4.28602">
        <ele>548.2</ele>
        <time>2012-03-04T13:56:24Z</time>
      </trkpt>
      <trkpt lat="44.13931" lon="4.28598">
        <ele>546.6</ele>
        <time>2012-03-04T13:56:38Z</time>
      </trkpt>
      <trkpt lat="44.1394" lon="4.28597">
        <ele>546.8</ele>
        <time>2012-03-04T13:56:46Z</time>
      </trkpt>
      <trkpt lat="44.13948" lon="4.28593">
        <ele>546.6</ele>
        <time>2012-03-04T13:56:54Z</time>
      </trkpt>
      <trkpt lat="44.13954" lon="4.28586">
        <ele>547.5</ele>
        <time>2012-03-04T13:57:01Z</time>
      </trkpt>
      <trkpt lat="44.1396" lon="4.28578">
        <ele>547.2</ele>
        <time>2012-03-04T13:57:08Z</time>
      </trkpt>
      <trkpt lat="44.13966" lon="4.2857">
        <ele>547.7</ele>
        <time>2012-03-04T13:57:15Z</time>
      </trkpt>
      <trkpt lat="44.13972" lon="4.28562">
        <ele>547.5</ele>
        <time>2012-03-04T13:57:23Z</time>
      </trkpt>
      <trkpt lat="44.13979" lon="4.28555">
        <ele>547.9</ele>
        <time>2012-03-04T13:57:30Z</time>
      </trkpt>
      <trkpt lat="44.13979" lon="4.28553">
        <ele>547.7</ele>
        <time>2012-03-04T13:57:31Z</time>
      </trkpt>
      <trkpt lat="44.13991" lon="4.28539">
        <ele>547.7</ele>
        <time>2012-03-04T13:57:44Z</time>
      </trkpt>
      <trkpt lat="44.13996" lon="4.28531">
        <ele>544.7</ele>
        <time>2012-03-04T13:57:51Z</time>
      </trkpt>
      <trkpt lat="44.14002" lon="4.28522">
        <ele>547.3</ele>
        <time>2012-03-04T13:57:58Z</time>
      </trkpt>
      <trkpt lat="44.14007" lon="4.28513">
        <ele>547.7</ele>
        <time>2012-03-04T13:58:05Z</time>
      </trkpt>
      <trkpt lat="44.14013" lon="4.28504">
        <ele>546.4</ele>
        <time>2012-03-04T13:58:20Z</time>
      </trkpt>
      <trkpt lat="44.14019" lon="4.28494">
        <ele>546.3</ele>
        <time>2012-03-04T13:58:28Z</time>
      </trkpt>
      <trkpt lat="44.14024" lon="4.28486">
        <ele>546.7</ele>
        <time>2012-03-04T13:58:35Z</time>
      </trkpt>
      <trkpt lat="44.14025" lon="4.28485">
        <ele>546.4</ele>
        <time>2012-03-04T13:58:36Z</time>
      </trkpt>
      <trkpt lat="44.14036" lon="4.2847">
        <ele>544.9</ele>
        <time>2012-03-04T13:58:49Z</time>
      </trkpt>
      <trkpt lat="44.14043" lon="4.28464">
        <ele>545</ele>
        <time>2012-03-04T13:58:57Z</time>
      </trkpt>
      <trkpt lat="44.14051" lon="4.28458">
        <ele>545</ele>
        <time>2012-03-04T13:59:04Z</time>
      </trkpt>
      <trkpt lat="44.14059" lon="4.28454">
        <ele>544.4</ele>
        <time>2012-03-04T13:59:11Z</time>
      </trkpt>
      <trkpt lat="44.14068" lon="4.28452">
        <ele>544.2</ele>
        <time>2012-03-04T13:59:18Z</time>
      </trkpt>
      <trkpt lat="44.14076" lon="4.28451">
        <ele>544.2</ele>
        <time>2012-03-04T13:59:24Z</time>
      </trkpt>
      <trkpt lat="44.14084" lon="4.2845">
        <ele>543.9</ele>
        <time>2012-03-04T13:59:31Z</time>
      </trkpt>
      <trkpt lat="44.14092" lon="4.28449">
        <ele>543.9</ele>
        <time>2012-03-04T13:59:38Z</time>
      </trkpt>
      <trkpt lat="44.14094" lon="4.28449">
        <ele>543.9</ele>
        <time>2012-03-04T13:59:39Z</time>
      </trkpt>
      <trkpt lat="44.14109" lon="4.2845">
        <ele>543.3</ele>
        <time>2012-03-04T13:59:53Z</time>
      </trkpt>
      <trkpt lat="44.14117" lon="4.28451">
        <ele>543.1</ele>
        <time>2012-03-04T13:59:59Z</time>
      </trkpt>
      <trkpt lat="44.14126" lon="4.28453">
        <ele>543.1</ele>
        <time>2012-03-04T14:00:06Z</time>
      </trkpt>
      <trkpt lat="44.14134" lon="4.28454">
        <ele>541.4</ele>
        <time>2012-03-04T14:00:13Z</time>
      </trkpt>
      <trkpt lat="44.14142" lon="4.28455">
        <ele>540.8</ele>
        <time>2012-03-04T14:00:20Z</time>
      </trkpt>
      <trkpt lat="44.14151" lon="4.28457">
        <ele>541.6</ele>
        <time>2012-03-04T14:00:27Z</time>
      </trkpt>
      <trkpt lat="44.14158" lon="4.2846">
        <ele>541.1</ele>
        <time>2012-03-04T14:00:33Z</time>
      </trkpt>
      <trkpt lat="44.14167" lon="4.28462">
        <ele>540.2</ele>
        <time>2012-03-04T14:00:39Z</time>
      </trkpt>
      <trkpt lat="44.14168" lon="4.28463">
        <ele>540</ele>
        <time>2012-03-04T14:00:40Z</time>
      </trkpt>
      <trkpt lat="44.14182" lon="4.28469">
        <ele>539.7</ele>
        <time>2012-03-04T14:00:50Z</time>
      </trkpt>
      <trkpt lat="44.14189" lon="4.28471">
        <ele>539.6</ele>
        <time>2012-03-04T14:00:55Z</time>
      </trkpt>
      <trkpt lat="44.14198" lon="4.28474">
        <ele>539.2</ele>
        <time>2012-03-04T14:01:01Z</time>
      </trkpt>
      <trkpt lat="44.14206" lon="4.28477">
        <ele>538.6</ele>
        <time>2012-03-04T14:01:06Z</time>
      </trkpt>
      <trkpt lat="44.14214" lon="4.2848">
        <ele>537.3</ele>
        <time>2012-03-04T14:01:13Z</time>
      </trkpt>
      <trkpt lat="44.14223" lon="4.28483">
        <ele>537</ele>
        <time>2012-03-04T14:01:19Z</time>
      </trkpt>
      <trkpt lat="44.1423" lon="4.28484">
        <ele>536.5</ele>
        <time>2012-03-04T14:01:25Z</time>
      </trkpt>
      <trkpt lat="44.14239" lon="4.28485">
        <ele>536.3</ele>
        <time>2012-03-04T14:01:32Z</time>
      </trkpt>
      <trkpt lat="44.14248" lon="4.28485">
        <ele>536</ele>
        <time>2012-03-04T14:01:39Z</time>
      </trkpt>
      <trkpt lat="44.14256" lon="4.28487">
        <ele>534.9</ele>
        <time>2012-03-04T14:01:47Z</time>
      </trkpt>
      <trkpt lat="44.14257" lon="4.28487">
        <ele>535</ele>
        <time>2012-03-04T14:01:48Z</time>
      </trkpt>
      <trkpt lat="44.14272" lon="4.28489">
        <ele>534.6</ele>
        <time>2012-03-04T14:02:01Z</time>
      </trkpt>
      <trkpt lat="44.1428" lon="4.28492">
        <ele>533.6</ele>
        <time>2012-03-04T14:02:08Z</time>
      </trkpt>
      <trkpt lat="44.14288" lon="4.28497">
        <ele>533.8</ele>
        <time>2012-03-04T14:02:15Z</time>
      </trkpt>
      <trkpt lat="44.14297" lon="4.28502">
        <ele>532.9</ele>
        <time>2012-03-04T14:02:22Z</time>
      </trkpt>
      <trkpt lat="44.14304" lon="4.28507">
        <ele>532.3</ele>
        <time>2012-03-04T14:02:29Z</time>
      </trkpt>
      <trkpt lat="44.14312" lon="4.28511">
        <ele>531.6</ele>
        <time>2012-03-04T14:02:36Z</time>
      </trkpt>
      <trkpt lat="44.14321" lon="4.28515">
        <ele>532.3</ele>
        <time>2012-03-04T14:02:43Z</time>
      </trkpt>
      <trkpt lat="44.14329" lon="4.28512">
        <ele>531.3</ele>
        <time>2012-03-04T14:02:50Z</time>
      </trkpt>
      <trkpt lat="44.1433" lon="4.28511">
        <ele>531.2</ele>
        <time>2012-03-04T14:02:51Z</time>
      </trkpt>
      <trkpt lat="44.14333" lon="4.28489">
        <ele>530.9</ele>
        <time>2012-03-04T14:03:04Z</time>
      </trkpt>
      <trkpt lat="44.14332" lon="4.28478">
        <ele>530.5</ele>
        <time>2012-03-04T14:03:10Z</time>
      </trkpt>
      <trkpt lat="44.1433" lon="4.28467">
        <ele>530.2</ele>
        <time>2012-03-04T14:03:17Z</time>
      </trkpt>
      <trkpt lat="44.14327" lon="4.28456">
        <ele>530.1</ele>
        <time>2012-03-04T14:03:23Z</time>
      </trkpt>
      <trkpt lat="44.14325" lon="4.28445">
        <ele>529.8</ele>
        <time>2012-03-04T14:03:29Z</time>
      </trkpt>
      <trkpt lat="44.14323" lon="4.28435">
        <ele>528.6</ele>
        <time>2012-03-04T14:03:35Z</time>
      </trkpt>
      <trkpt lat="44.14321" lon="4.28424">
        <ele>529.1</ele>
        <time>2012-03-04T14:03:41Z</time>
      </trkpt>
      <trkpt lat="44.14317" lon="4.28414">
        <ele>528.5</ele>
        <time>2012-03-04T14:03:47Z</time>
      </trkpt>
      <trkpt lat="44.14314" lon="4.28403">
        <ele>529.5</ele>
        <time>2012-03-04T14:03:53Z</time>
      </trkpt>
      <trkpt lat="44.14313" lon="4.28401">
        <ele>529.4</ele>
        <time>2012-03-04T14:03:54Z</time>
      </trkpt>
      <trkpt lat="44.14306" lon="4.28382">
        <ele>527.2</ele>
        <time>2012-03-04T14:04:06Z</time>
      </trkpt>
      <trkpt lat="44.14302" lon="4.28371">
        <ele>527</ele>
        <time>2012-03-04T14:04:13Z</time>
      </trkpt>
      <trkpt lat="44.14296" lon="4.28361">
        <ele>526.7</ele>
        <time>2012-03-04T14:04:20Z</time>
      </trkpt>
      <trkpt lat="44.14292" lon="4.28352">
        <ele>526.4</ele>
        <time>2012-03-04T14:04:27Z</time>
      </trkpt>
      <trkpt lat="44.14287" lon="4.28342">
        <ele>525.6</ele>
        <time>2012-03-04T14:04:34Z</time>
      </trkpt>
      <trkpt lat="44.14282" lon="4.28333">
        <ele>525.2</ele>
        <time>2012-03-04T14:04:40Z</time>
      </trkpt>
      <trkpt lat="44.14278" lon="4.28324">
        <ele>525.1</ele>
        <time>2012-03-04T14:04:46Z</time>
      </trkpt>
      <trkpt lat="44.14276" lon="4.28314">
        <ele>525</ele>
        <time>2012-03-04T14:04:52Z</time>
      </trkpt>
      <trkpt lat="44.14277" lon="4.28302">
        <ele>524.6</ele>
        <time>2012-03-04T14:04:59Z</time>
      </trkpt>
      <trkpt lat="44.14277" lon="4.283">
        <ele>524.6</ele>
        <time>2012-03-04T14:05:00Z</time>
      </trkpt>
      <trkpt lat="44.14283" lon="4.2828">
        <ele>523.7</ele>
        <time>2012-03-04T14:05:13Z</time>
      </trkpt>
      <trkpt lat="44.14288" lon="4.2827">
        <ele>523.4</ele>
        <time>2012-03-04T14:05:21Z</time>
      </trkpt>
      <trkpt lat="44.14294" lon="4.28261">
        <ele>522.8</ele>
        <time>2012-03-04T14:05:29Z</time>
      </trkpt>
      <trkpt lat="44.143" lon="4.28252">
        <ele>521.8</ele>
        <time>2012-03-04T14:05:36Z</time>
      </trkpt>
      <trkpt lat="44.14306" lon="4.28244">
        <ele>521.3</ele>
        <time>2012-03-04T14:05:42Z</time>
      </trkpt>
      <trkpt lat="44.14313" lon="4.28237">
        <ele>520.4</ele>
        <time>2012-03-04T14:05:48Z</time>
      </trkpt>
      <trkpt lat="44.14319" lon="4.28229">
        <ele>519.8</ele>
        <time>2012-03-04T14:05:54Z</time>
      </trkpt>
      <trkpt lat="44.14325" lon="4.28221">
        <ele>519.1</ele>
        <time>2012-03-04T14:06:00Z</time>
      </trkpt>
      <trkpt lat="44.14326" lon="4.2822">
        <ele>518.9</ele>
        <time>2012-03-04T14:06:01Z</time>
      </trkpt>
      <trkpt lat="44.14337" lon="4.28206">
        <ele>518.8</ele>
        <time>2012-03-04T14:06:12Z</time>
      </trkpt>
      <trkpt lat="44.14342" lon="4.28197">
        <ele>518</ele>
        <time>2012-03-04T14:06:19Z</time>
      </trkpt>
      <trkpt lat="44.14348" lon="4.28187">
        <ele>517.8</ele>
        <time>2012-03-04T14:06:26Z</time>
      </trkpt>
      <trkpt lat="44.14353" lon="4.28177">
        <ele>517.9</ele>
        <time>2012-03-04T14:06:34Z</time>
      </trkpt>
      <trkpt lat="44.1436" lon="4.28169">
        <ele>517</ele>
        <time>2012-03-04T14:07:02Z</time>
      </trkpt>
      <trkpt lat="44.14361" lon="4.28168">
        <ele>516.9</ele>
        <time>2012-03-04T14:07:03Z</time>
      </trkpt>
      <trkpt lat="44.14372" lon="4.28153">
        <ele>517.1</ele>
        <time>2012-03-04T14:07:18Z</time>
      </trkpt>
      <trkpt lat="44.14379" lon="4.28146">
        <ele>516.1</ele>
        <time>2012-03-04T14:07:24Z</time>
      </trkpt>
      <trkpt lat="44.14385" lon="4.28141">
        <ele>515.9</ele>
        <time>2012-03-04T14:07:30Z</time>
      </trkpt>
      <trkpt lat="44.14393" lon="4.28138">
        <ele>515.5</ele>
        <time>2012-03-04T14:07:36Z</time>
      </trkpt>
      <trkpt lat="44.14401" lon="4.28134">
        <ele>514.3</ele>
        <time>2012-03-04T14:07:43Z</time>
      </trkpt>
      <trkpt lat="44.14408" lon="4.28128">
        <ele>514.1</ele>
        <time>2012-03-04T14:07:49Z</time>
      </trkpt>
      <trkpt lat="44.14414" lon="4.28121">
        <ele>513.8</ele>
        <time>2012-03-04T14:07:55Z</time>
      </trkpt>
      <trkpt lat="44.1442" lon="4.28112">
        <ele>513.3</ele>
        <time>2012-03-04T14:08:02Z</time>
      </trkpt>
      <trkpt lat="44.14425" lon="4.28103">
        <ele>512.8</ele>
        <time>2012-03-04T14:08:08Z</time>
      </trkpt>
      <trkpt lat="44.14426" lon="4.28102">
        <ele>512.5</ele>
        <time>2012-03-04T14:08:09Z</time>
      </trkpt>
      <trkpt lat="44.14435" lon="4.28085">
        <ele>512.5</ele>
        <time>2012-03-04T14:08:20Z</time>
      </trkpt>
      <trkpt lat="44.1444" lon="4.28075">
        <ele>511.1</ele>
        <time>2012-03-04T14:08:26Z</time>
      </trkpt>
      <trkpt lat="44.14446" lon="4.28066">
        <ele>511.1</ele>
        <time>2012-03-04T14:08:32Z</time>
      </trkpt>
      <trkpt lat="44.14451" lon="4.28058">
        <ele>510.4</ele>
        <time>2012-03-04T14:08:38Z</time>
      </trkpt>
      <trkpt lat="44.14459" lon="4.28052">
        <ele>510.7</ele>
        <time>2012-03-04T14:08:46Z</time>
      </trkpt>
      <trkpt lat="44.14466" lon="4.28046">
        <ele>510.5</ele>
        <time>2012-03-04T14:08:55Z</time>
      </trkpt>
      <trkpt lat="44.14474" lon="4.28041">
        <ele>509.4</ele>
        <time>2012-03-04T14:09:21Z</time>
      </trkpt>
      <trkpt lat="44.14475" lon="4.28041">
        <ele>509.3</ele>
        <time>2012-03-04T14:09:22Z</time>
      </trkpt>
      <trkpt lat="44.14489" lon="4.28032">
        <ele>509.2</ele>
        <time>2012-03-04T14:09:38Z</time>
      </trkpt>
      <trkpt lat="44.14497" lon="4.28026">
        <ele>510.6</ele>
        <time>2012-03-04T14:09:46Z</time>
      </trkpt>
      <trkpt lat="44.14503" lon="4.28019">
        <ele>509.8</ele>
        <time>2012-03-04T14:09:54Z</time>
      </trkpt>
      <trkpt lat="44.1451" lon="4.28012">
        <ele>508.7</ele>
        <time>2012-03-04T14:10:02Z</time>
      </trkpt>
      <trkpt lat="44.14518" lon="4.28005">
        <ele>508.5</ele>
        <time>2012-03-04T14:10:11Z</time>
      </trkpt>
      <trkpt lat="44.14525" lon="4.28001">
        <ele>508.9</ele>
        <time>2012-03-04T14:10:19Z</time>
      </trkpt>
      <trkpt lat="44.14534" lon="4.27999">
        <ele>507</ele>
        <time>2012-03-04T14:10:27Z</time>
      </trkpt>
      <trkpt lat="44.14535" lon="4.27999">
        <ele>506.8</ele>
        <time>2012-03-04T14:10:28Z</time>
      </trkpt>
      <trkpt lat="44.14551" lon="4.27998">
        <ele>505.2</ele>
        <time>2012-03-04T14:10:43Z</time>
      </trkpt>
      <trkpt lat="44.14559" lon="4.28">
        <ele>504.7</ele>
        <time>2012-03-04T14:10:51Z</time>
      </trkpt>
      <trkpt lat="44.14551" lon="4.28">
        <ele>503.7</ele>
        <time>2012-03-04T14:11:13Z</time>
      </trkpt>
      <trkpt lat="44.14555" lon="4.28011">
        <ele>505.6</ele>
        <time>2012-03-04T14:11:49Z</time>
      </trkpt>
      <trkpt lat="44.14555" lon="4.28011">
        <ele>505.8</ele>
        <time>2012-03-04T14:11:50Z</time>
      </trkpt>
      <trkpt lat="44.14561" lon="4.28001">
        <ele>505.2</ele>
        <time>2012-03-04T14:17:23Z</time>
      </trkpt>
      <trkpt lat="44.14576" lon="4.28008">
        <ele>503.4</ele>
        <time>2012-03-04T14:17:37Z</time>
      </trkpt>
      <trkpt lat="44.14583" lon="4.28014">
        <ele>501.8</ele>
        <time>2012-03-04T14:17:45Z</time>
      </trkpt>
      <trkpt lat="44.14591" lon="4.28021">
        <ele>502</ele>
        <time>2012-03-04T14:17:54Z</time>
      </trkpt>
      <trkpt lat="44.14598" lon="4.28026">
        <ele>500.7</ele>
        <time>2012-03-04T14:18:03Z</time>
      </trkpt>
      <trkpt lat="44.14606" lon="4.28028">
        <ele>499.9</ele>
        <time>2012-03-04T14:18:13Z</time>
      </trkpt>
      <trkpt lat="44.14614" lon="4.28024">
        <ele>499</ele>
        <time>2012-03-04T14:18:22Z</time>
      </trkpt>
      <trkpt lat="44.14622" lon="4.28019">
        <ele>496</ele>
        <time>2012-03-04T14:18:30Z</time>
      </trkpt>
      <trkpt lat="44.14623" lon="4.28018">
        <ele>494.9</ele>
        <time>2012-03-04T14:18:31Z</time>
      </trkpt>
      <trkpt lat="44.14634" lon="4.28002">
        <ele>495.8</ele>
        <time>2012-03-04T14:18:46Z</time>
      </trkpt>
      <trkpt lat="44.14639" lon="4.27992">
        <ele>494.4</ele>
        <time>2012-03-04T14:18:55Z</time>
      </trkpt>
      <trkpt lat="44.14644" lon="4.27982">
        <ele>493.4</ele>
        <time>2012-03-04T14:19:04Z</time>
      </trkpt>
      <trkpt lat="44.14648" lon="4.27973">
        <ele>491.9</ele>
        <time>2012-03-04T14:19:12Z</time>
      </trkpt>
      <trkpt lat="44.14652" lon="4.27962">
        <ele>491.1</ele>
        <time>2012-03-04T14:19:20Z</time>
      </trkpt>
      <trkpt lat="44.14656" lon="4.27952">
        <ele>490.2</ele>
        <time>2012-03-04T14:19:26Z</time>
      </trkpt>
      <trkpt lat="44.14661" lon="4.27942">
        <ele>488.8</ele>
        <time>2012-03-04T14:19:34Z</time>
      </trkpt>
      <trkpt lat="44.14662" lon="4.27941">
        <ele>488.6</ele>
        <time>2012-03-04T14:19:35Z</time>
      </trkpt>
      <trkpt lat="44.14673" lon="4.27929">
        <ele>487.7</ele>
        <time>2012-03-04T14:19:48Z</time>
      </trkpt>
      <trkpt lat="44.1468" lon="4.27923">
        <ele>487.6</ele>
        <time>2012-03-04T14:19:55Z</time>
      </trkpt>
      <trkpt lat="44.14687" lon="4.27917">
        <ele>487.8</ele>
        <time>2012-03-04T14:20:04Z</time>
      </trkpt>
      <trkpt lat="44.14694" lon="4.2791">
        <ele>488.2</ele>
        <time>2012-03-04T14:20:12Z</time>
      </trkpt>
      <trkpt lat="44.147" lon="4.27902">
        <ele>487.4</ele>
        <time>2012-03-04T14:20:22Z</time>
      </trkpt>
      <trkpt lat="44.14707" lon="4.27893">
        <ele>487.1</ele>
        <time>2012-03-04T14:20:31Z</time>
      </trkpt>
      <trkpt lat="44.14714" lon="4.27886">
        <ele>487.1</ele>
        <time>2012-03-04T14:20:39Z</time>
      </trkpt>
      <trkpt lat="44.14714" lon="4.27885">
        <ele>486.9</ele>
        <time>2012-03-04T14:20:40Z</time>
      </trkpt>
      <trkpt lat="44.14727" lon="4.27874">
        <ele>486.5</ele>
        <time>2012-03-04T14:20:53Z</time>
      </trkpt>
      <trkpt lat="44.14734" lon="4.27868">
        <ele>485.8</ele>
        <time>2012-03-04T14:21:00Z</time>
      </trkpt>
      <trkpt lat="44.14742" lon="4.27863">
        <ele>485.2</ele>
        <time>2012-03-04T14:21:07Z</time>
      </trkpt>
      <trkpt lat="44.14749" lon="4.27858">
        <ele>485.1</ele>
        <time>2012-03-04T14:21:14Z</time>
      </trkpt>
      <trkpt lat="44.14756" lon="4.27853">
        <ele>484.1</ele>
        <time>2012-03-04T14:21:20Z</time>
      </trkpt>
      <trkpt lat="44.14764" lon="4.27848">
        <ele>483.2</ele>
        <time>2012-03-04T14:21:26Z</time>
      </trkpt>
      <trkpt lat="44.14771" lon="4.27844">
        <ele>483.7</ele>
        <time>2012-03-04T14:21:32Z</time>
      </trkpt>
      <trkpt lat="44.14778" lon="4.27839">
        <ele>483.1</ele>
        <time>2012-03-04T14:21:38Z</time>
      </trkpt>
      <trkpt lat="44.14785" lon="4.27833">
        <ele>482.3</ele>
        <time>2012-03-04T14:21:45Z</time>
      </trkpt>
      <trkpt lat="44.14786" lon="4.27832">
        <ele>482</ele>
        <time>2012-03-04T14:21:46Z</time>
      </trkpt>
      <trkpt lat="44.148" lon="4.27823">
        <ele>481.8</ele>
        <time>2012-03-04T14:21:57Z</time>
      </trkpt>
      <trkpt lat="44.14808" lon="4.2782">
        <ele>480.4</ele>
        <time>2012-03-04T14:22:03Z</time>
      </trkpt>
      <trkpt lat="44.14816" lon="4.27815">
        <ele>464.1</ele>
        <time>2012-03-04T14:22:09Z</time>
      </trkpt>
      <trkpt lat="44.14823" lon="4.27811">
        <ele>459.9</ele>
        <time>2012-03-04T14:22:15Z</time>
      </trkpt>
      <trkpt lat="44.14831" lon="4.27805">
        <ele>457.7</ele>
        <time>2012-03-04T14:22:22Z</time>
      </trkpt>
      <trkpt lat="44.14838" lon="4.27798">
        <ele>458.2</ele>
        <time>2012-03-04T14:22:29Z</time>
      </trkpt>
      <trkpt lat="44.14844" lon="4.27791">
        <ele>457.9</ele>
        <time>2012-03-04T14:22:35Z</time>
      </trkpt>
      <trkpt lat="44.14851" lon="4.27782">
        <ele>457.8</ele>
        <time>2012-03-04T14:22:43Z</time>
      </trkpt>
      <trkpt lat="44.14854" lon="4.27771">
        <ele>456.8</ele>
        <time>2012-03-04T14:22:53Z</time>
      </trkpt>
      <trkpt lat="44.14855" lon="4.2777">
        <ele>456.7</ele>
        <time>2012-03-04T14:22:54Z</time>
      </trkpt>
      <trkpt lat="44.1486" lon="4.2775">
        <ele>456</ele>
        <time>2012-03-04T14:23:08Z</time>
      </trkpt>
      <trkpt lat="44.14866" lon="4.27741">
        <ele>456.7</ele>
        <time>2012-03-04T14:23:19Z</time>
      </trkpt>
      <trkpt lat="44.14872" lon="4.27733">
        <ele>459.4</ele>
        <time>2012-03-04T14:23:32Z</time>
      </trkpt>
      <trkpt lat="44.14877" lon="4.27723">
        <ele>459.7</ele>
        <time>2012-03-04T14:23:42Z</time>
      </trkpt>
      <trkpt lat="44.14882" lon="4.27715">
        <ele>460.6</ele>
        <time>2012-03-04T14:23:52Z</time>
      </trkpt>
      <trkpt lat="44.14891" lon="4.27715">
        <ele>460.6</ele>
        <time>2012-03-04T14:24:06Z</time>
      </trkpt>
      <trkpt lat="44.14892" lon="4.27715">
        <ele>460.6</ele>
        <time>2012-03-04T14:24:07Z</time>
      </trkpt>
      <trkpt lat="44.14903" lon="4.277">
        <ele>461.9</ele>
        <time>2012-03-04T14:24:42Z</time>
      </trkpt>
      <trkpt lat="44.14907" lon="4.27691">
        <ele>463.1</ele>
        <time>2012-03-04T14:24:48Z</time>
      </trkpt>
      <trkpt lat="44.14911" lon="4.2768">
        <ele>465.9</ele>
        <time>2012-03-04T14:25:00Z</time>
      </trkpt>
      <trkpt lat="44.14916" lon="4.2767">
        <ele>465.7</ele>
        <time>2012-03-04T14:25:13Z</time>
      </trkpt>
      <trkpt lat="44.14917" lon="4.2767">
        <ele>465.8</ele>
        <time>2012-03-04T14:25:14Z</time>
      </trkpt>
      <trkpt lat="44.14933" lon="4.2768">
        <ele>468.3</ele>
        <time>2012-03-04T14:26:41Z</time>
      </trkpt>
      <trkpt lat="44.14933" lon="4.27679">
        <ele>468.2</ele>
        <time>2012-03-04T14:26:42Z</time>
      </trkpt>
      <trkpt lat="44.14937" lon="4.2766">
        <ele>465.8</ele>
        <time>2012-03-04T14:27:36Z</time>
      </trkpt>
      <trkpt lat="44.14938" lon="4.27648">
        <ele>463.4</ele>
        <time>2012-03-04T14:27:46Z</time>
      </trkpt>
      <trkpt lat="44.14938" lon="4.27647">
        <ele>463.2</ele>
        <time>2012-03-04T14:27:47Z</time>
      </trkpt>
      <trkpt lat="44.1495" lon="4.27636">
        <ele>460.9</ele>
        <time>2012-03-04T14:28:02Z</time>
      </trkpt>
      <trkpt lat="44.14955" lon="4.27644">
        <ele>461.2</ele>
        <time>2012-03-04T14:28:09Z</time>
      </trkpt>
      <trkpt lat="44.14951" lon="4.27634">
        <ele>461.6</ele>
        <time>2012-03-04T14:30:55Z</time>
      </trkpt>
      <trkpt lat="44.1495" lon="4.27634">
        <ele>461.4</ele>
        <time>2012-03-04T14:30:56Z</time>
      </trkpt>
      <trkpt lat="44.1494" lon="4.2765">
        <ele>462.2</ele>
        <time>2012-03-04T14:31:14Z</time>
      </trkpt>
      <trkpt lat="44.14932" lon="4.27653">
        <ele>462.7</ele>
        <time>2012-03-04T14:31:24Z</time>
      </trkpt>
      <trkpt lat="44.14925" lon="4.2766">
        <ele>463.4</ele>
        <time>2012-03-04T14:31:34Z</time>
      </trkpt>
      <trkpt lat="44.1492" lon="4.2767">
        <ele>465.8</ele>
        <time>2012-03-04T14:31:57Z</time>
      </trkpt>
      <trkpt lat="44.1492" lon="4.2767">
        <ele>465.8</ele>
        <time>2012-03-04T14:31:58Z</time>
      </trkpt>
      <trkpt lat="44.14912" lon="4.27688">
        <ele>465.7</ele>
        <time>2012-03-04T14:32:33Z</time>
      </trkpt>
      <trkpt lat="44.14907" lon="4.27699">
        <ele>464.6</ele>
        <time>2012-03-04T14:32:42Z</time>
      </trkpt>
      <trkpt lat="44.14902" lon="4.27709">
        <ele>462.8</ele>
        <time>2012-03-04T14:32:51Z</time>
      </trkpt>
      <trkpt lat="44.14894" lon="4.2771">
        <ele>461.6</ele>
        <time>2012-03-04T14:33:04Z</time>
      </trkpt>
      <trkpt lat="44.14893" lon="4.2771">
        <ele>461.6</ele>
        <time>2012-03-04T14:33:05Z</time>
      </trkpt>
      <trkpt lat="44.14878" lon="4.27713">
        <ele>461.5</ele>
        <time>2012-03-04T14:33:15Z</time>
      </trkpt>
      <trkpt lat="44.14871" lon="4.27721">
        <ele>460.2</ele>
        <time>2012-03-04T14:33:23Z</time>
      </trkpt>
      <trkpt lat="44.14865" lon="4.27729">
        <ele>459.5</ele>
        <time>2012-03-04T14:33:30Z</time>
      </trkpt>
      <trkpt lat="44.14857" lon="4.27734">
        <ele>458.1</ele>
        <time>2012-03-04T14:33:37Z</time>
      </trkpt>
      <trkpt lat="44.14853" lon="4.27744">
        <ele>457.2</ele>
        <time>2012-03-04T14:33:44Z</time>
      </trkpt>
      <trkpt lat="44.14853" lon="4.27755">
        <ele>457</ele>
        <time>2012-03-04T14:33:51Z</time>
      </trkpt>
      <trkpt lat="44.1485" lon="4.27766">
        <ele>456.2</ele>
        <time>2012-03-04T14:33:58Z</time>
      </trkpt>
      <trkpt lat="44.14851" lon="4.27777">
        <ele>457.2</ele>
        <time>2012-03-04T14:34:19Z</time>
      </trkpt>
      <trkpt lat="44.14851" lon="4.27779">
        <ele>457.2</ele>
        <time>2012-03-04T14:34:20Z</time>
      </trkpt>
      <trkpt lat="44.14866" lon="4.27787">
        <ele>456.3</ele>
        <time>2012-03-04T14:34:36Z</time>
      </trkpt>
      <trkpt lat="44.14874" lon="4.27783">
        <ele>455.1</ele>
        <time>2012-03-04T14:34:43Z</time>
      </trkpt>
      <trkpt lat="44.1488" lon="4.27776">
        <ele>454</ele>
        <time>2012-03-04T14:34:50Z</time>
      </trkpt>
      <trkpt lat="44.14885" lon="4.27767">
        <ele>453.8</ele>
        <time>2012-03-04T14:34:57Z</time>
      </trkpt>
      <trkpt lat="44.14893" lon="4.27764">
        <ele>452</ele>
        <time>2012-03-04T14:35:06Z</time>
      </trkpt>
      <trkpt lat="44.14895" lon="4.27776">
        <ele>452.3</ele>
        <time>2012-03-04T14:35:46Z</time>
      </trkpt>
      <trkpt lat="44.14895" lon="4.27777">
        <ele>452.3</ele>
        <time>2012-03-04T14:35:47Z</time>
      </trkpt>
      <trkpt lat="44.14891" lon="4.27799">
        <ele>448.7</ele>
        <time>2012-03-04T14:36:01Z</time>
      </trkpt>
      <trkpt lat="44.14891" lon="4.2781">
        <ele>447.1</ele>
        <time>2012-03-04T14:36:08Z</time>
      </trkpt>
      <trkpt lat="44.14898" lon="4.27803">
        <ele>444.4</ele>
        <time>2012-03-04T14:36:28Z</time>
      </trkpt>
      <trkpt lat="44.14902" lon="4.27792">
        <ele>441.3</ele>
        <time>2012-03-04T14:36:44Z</time>
      </trkpt>
      <trkpt lat="44.14909" lon="4.27783">
        <ele>438.7</ele>
        <time>2012-03-04T14:36:55Z</time>
      </trkpt>
      <trkpt lat="44.14909" lon="4.27783">
        <ele>438.8</ele>
        <time>2012-03-04T14:36:56Z</time>
      </trkpt>
      <trkpt lat="44.14922" lon="4.27769">
        <ele>436.1</ele>
        <time>2012-03-04T14:37:15Z</time>
      </trkpt>
      <trkpt lat="44.14929" lon="4.27761">
        <ele>433.3</ele>
        <time>2012-03-04T14:37:25Z</time>
      </trkpt>
      <trkpt lat="44.14936" lon="4.27758">
        <ele>431.6</ele>
        <time>2012-03-04T14:37:32Z</time>
      </trkpt>
      <trkpt lat="44.14944" lon="4.27754">
        <ele>429.2</ele>
        <time>2012-03-04T14:37:40Z</time>
      </trkpt>
      <trkpt lat="44.14951" lon="4.27747">
        <ele>428.2</ele>
        <time>2012-03-04T14:37:48Z</time>
      </trkpt>
      <trkpt lat="44.14958" lon="4.27739">
        <ele>426.9</ele>
        <time>2012-03-04T14:37:56Z</time>
      </trkpt>
      <trkpt lat="44.14959" lon="4.27739">
        <ele>426.7</ele>
        <time>2012-03-04T14:37:57Z</time>
      </trkpt>
      <trkpt lat="44.14974" lon="4.27731">
        <ele>423.8</ele>
        <time>2012-03-04T14:38:14Z</time>
      </trkpt>
      <trkpt lat="44.14982" lon="4.27725">
        <ele>422.5</ele>
        <time>2012-03-04T14:38:22Z</time>
      </trkpt>
      <trkpt lat="44.14989" lon="4.2772">
        <ele>420.2</ele>
        <time>2012-03-04T14:38:34Z</time>
      </trkpt>
      <trkpt lat="44.14998" lon="4.2772">
        <ele>418.6</ele>
        <time>2012-03-04T14:38:44Z</time>
      </trkpt>
      <trkpt lat="44.15006" lon="4.27717">
        <ele>416.8</ele>
        <time>2012-03-04T14:38:55Z</time>
      </trkpt>
      <trkpt lat="44.15014" lon="4.27713">
        <ele>413.7</ele>
        <time>2012-03-04T14:39:06Z</time>
      </trkpt>
      <trkpt lat="44.15015" lon="4.27711">
        <ele>413.6</ele>
        <time>2012-03-04T14:39:07Z</time>
      </trkpt>
      <trkpt lat="44.15024" lon="4.27693">
        <ele>411.2</ele>
        <time>2012-03-04T14:39:20Z</time>
      </trkpt>
      <trkpt lat="44.15032" lon="4.27688">
        <ele>410</ele>
        <time>2012-03-04T14:39:29Z</time>
      </trkpt>
      <trkpt lat="44.1504" lon="4.27682">
        <ele>408.2</ele>
        <time>2012-03-04T14:39:38Z</time>
      </trkpt>
      <trkpt lat="44.15048" lon="4.27676">
        <ele>406.7</ele>
        <time>2012-03-04T14:39:46Z</time>
      </trkpt>
      <trkpt lat="44.15055" lon="4.27671">
        <ele>405.1</ele>
        <time>2012-03-04T14:39:54Z</time>
      </trkpt>
      <trkpt lat="44.1506" lon="4.2766">
        <ele>403.2</ele>
        <time>2012-03-04T14:40:03Z</time>
      </trkpt>
      <trkpt lat="44.15067" lon="4.27655">
        <ele>402.2</ele>
        <time>2012-03-04T14:40:11Z</time>
      </trkpt>
      <trkpt lat="44.15068" lon="4.27654">
        <ele>402</ele>
        <time>2012-03-04T14:40:12Z</time>
      </trkpt>
      <trkpt lat="44.15078" lon="4.27638">
        <ele>399.5</ele>
        <time>2012-03-04T14:40:24Z</time>
      </trkpt>
      <trkpt lat="44.15083" lon="4.27628">
        <ele>399.9</ele>
        <time>2012-03-04T14:40:31Z</time>
      </trkpt>
      <trkpt lat="44.15088" lon="4.27618">
        <ele>397.5</ele>
        <time>2012-03-04T14:40:39Z</time>
      </trkpt>
      <trkpt lat="44.15093" lon="4.27609">
        <ele>399.2</ele>
        <time>2012-03-04T14:40:47Z</time>
      </trkpt>
      <trkpt lat="44.15098" lon="4.276">
        <ele>398.8</ele>
        <time>2012-03-04T14:40:54Z</time>
      </trkpt>
      <trkpt lat="44.15104" lon="4.27591">
        <ele>397.8</ele>
        <time>2012-03-04T14:41:02Z</time>
      </trkpt>
      <trkpt lat="44.15109" lon="4.27582">
        <ele>394.4</ele>
        <time>2012-03-04T14:41:10Z</time>
      </trkpt>
      <trkpt lat="44.15115" lon="4.27574">
        <ele>396.3</ele>
        <time>2012-03-04T14:41:18Z</time>
      </trkpt>
      <trkpt lat="44.15116" lon="4.27573">
        <ele>396.4</ele>
        <time>2012-03-04T14:41:19Z</time>
      </trkpt>
      <trkpt lat="44.15128" lon="4.2756">
        <ele>395.1</ele>
        <time>2012-03-04T14:41:34Z</time>
      </trkpt>
      <trkpt lat="44.15135" lon="4.27554">
        <ele>393.3</ele>
        <time>2012-03-04T14:41:42Z</time>
      </trkpt>
      <trkpt lat="44.15142" lon="4.27546">
        <ele>392.7</ele>
        <time>2012-03-04T14:41:49Z</time>
      </trkpt>
      <trkpt lat="44.15148" lon="4.27539">
        <ele>391.3</ele>
        <time>2012-03-04T14:41:56Z</time>
      </trkpt>
      <trkpt lat="44.15154" lon="4.27532">
        <ele>391.4</ele>
        <time>2012-03-04T14:42:02Z</time>
      </trkpt>
      <trkpt lat="44.15159" lon="4.27524">
        <ele>391</ele>
        <time>2012-03-04T14:42:08Z</time>
      </trkpt>
      <trkpt lat="44.15165" lon="4.27515">
        <ele>390.2</ele>
        <time>2012-03-04T14:42:15Z</time>
      </trkpt>
      <trkpt lat="44.15171" lon="4.27506">
        <ele>389.2</ele>
        <time>2012-03-04T14:42:22Z</time>
      </trkpt>
      <trkpt lat="44.15172" lon="4.27505">
        <ele>389</ele>
        <time>2012-03-04T14:42:23Z</time>
      </trkpt>
      <trkpt lat="44.15182" lon="4.27487">
        <ele>388.7</ele>
        <time>2012-03-04T14:42:36Z</time>
      </trkpt>
      <trkpt lat="44.15188" lon="4.27477">
        <ele>387.4</ele>
        <time>2012-03-04T14:42:42Z</time>
      </trkpt>
      <trkpt lat="44.15193" lon="4.27467">
        <ele>386.8</ele>
        <time>2012-03-04T14:42:49Z</time>
      </trkpt>
      <trkpt lat="44.15197" lon="4.27457">
        <ele>386.9</ele>
        <time>2012-03-04T14:42:57Z</time>
      </trkpt>
      <trkpt lat="44.152" lon="4.27447">
        <ele>387.2</ele>
        <time>2012-03-04T14:43:05Z</time>
      </trkpt>
      <trkpt lat="44.15203" lon="4.27435">
        <ele>385.4</ele>
        <time>2012-03-04T14:43:45Z</time>
      </trkpt>
      <trkpt lat="44.15204" lon="4.27434">
        <ele>385.2</ele>
        <time>2012-03-04T14:43:46Z</time>
      </trkpt>
      <trkpt lat="44.15211" lon="4.27413">
        <ele>385.2</ele>
        <time>2012-03-04T14:43:59Z</time>
      </trkpt>
      <trkpt lat="44.15215" lon="4.27403">
        <ele>384.8</ele>
        <time>2012-03-04T14:44:06Z</time>
      </trkpt>
      <trkpt lat="44.15219" lon="4.27393">
        <ele>385.1</ele>
        <time>2012-03-04T14:44:13Z</time>
      </trkpt>
      <trkpt lat="44.15223" lon="4.27383">
        <ele>385.6</ele>
        <time>2012-03-04T14:44:20Z</time>
      </trkpt>
      <trkpt lat="44.15226" lon="4.27373">
        <ele>386</ele>
        <time>2012-03-04T14:44:26Z</time>
      </trkpt>
      <trkpt lat="44.15228" lon="4.27361">
        <ele>386.5</ele>
        <time>2012-03-04T14:44:33Z</time>
      </trkpt>
      <trkpt lat="44.15229" lon="4.27349">
        <ele>386.5</ele>
        <time>2012-03-04T14:44:40Z</time>
      </trkpt>
      <trkpt lat="44.15229" lon="4.27338">
        <ele>386.6</ele>
        <time>2012-03-04T14:44:46Z</time>
      </trkpt>
      <trkpt lat="44.15228" lon="4.27336">
        <ele>386.6</ele>
        <time>2012-03-04T14:44:47Z</time>
      </trkpt>
      <trkpt lat="44.15228" lon="4.27315">
        <ele>387.3</ele>
        <time>2012-03-04T14:44:59Z</time>
      </trkpt>
      <trkpt lat="44.15228" lon="4.27303">
        <ele>386.7</ele>
        <time>2012-03-04T14:45:06Z</time>
      </trkpt>
      <trkpt lat="44.15228" lon="4.27292">
        <ele>387.8</ele>
        <time>2012-03-04T14:45:12Z</time>
      </trkpt>
      <trkpt lat="44.15229" lon="4.2728">
        <ele>388.2</ele>
        <time>2012-03-04T14:45:18Z</time>
      </trkpt>
      <trkpt lat="44.15231" lon="4.27269">
        <ele>387.9</ele>
        <time>2012-03-04T14:45:24Z</time>
      </trkpt>
      <trkpt lat="44.15232" lon="4.27258">
        <ele>388.9</ele>
        <time>2012-03-04T14:45:31Z</time>
      </trkpt>
      <trkpt lat="44.15234" lon="4.27247">
        <ele>388.6</ele>
        <time>2012-03-04T14:45:38Z</time>
      </trkpt>
      <trkpt lat="44.15234" lon="4.27236">
        <ele>389.5</ele>
        <time>2012-03-04T14:45:46Z</time>
      </trkpt>
      <trkpt lat="44.15236" lon="4.27224">
        <ele>390.3</ele>
        <time>2012-03-04T14:45:54Z</time>
      </trkpt>
      <trkpt lat="44.15236" lon="4.27222">
        <ele>390.5</ele>
        <time>2012-03-04T14:45:55Z</time>
      </trkpt>
      <trkpt lat="44.15238" lon="4.272">
        <ele>390.8</ele>
        <time>2012-03-04T14:46:09Z</time>
      </trkpt>
      <trkpt lat="44.15237" lon="4.27189">
        <ele>392.3</ele>
        <time>2012-03-04T14:46:16Z</time>
      </trkpt>
      <trkpt lat="44.15238" lon="4.27178">
        <ele>392.8</ele>
        <time>2012-03-04T14:46:23Z</time>
      </trkpt>
      <trkpt lat="44.15238" lon="4.27167">
        <ele>393.9</ele>
        <time>2012-03-04T14:46:29Z</time>
      </trkpt>
      <trkpt lat="44.15233" lon="4.27156">
        <ele>393.9</ele>
        <time>2012-03-04T14:46:36Z</time>
      </trkpt>
      <trkpt lat="44.1523" lon="4.27145">
        <ele>394.9</ele>
        <time>2012-03-04T14:46:42Z</time>
      </trkpt>
      <trkpt lat="44.15228" lon="4.27133">
        <ele>395.2</ele>
        <time>2012-03-04T14:46:49Z</time>
      </trkpt>
      <trkpt lat="44.15225" lon="4.27123">
        <ele>395.7</ele>
        <time>2012-03-04T14:46:56Z</time>
      </trkpt>
      <trkpt lat="44.15225" lon="4.27121">
        <ele>395.6</ele>
        <time>2012-03-04T14:46:57Z</time>
      </trkpt>
      <trkpt lat="44.15223" lon="4.27098">
        <ele>397</ele>
        <time>2012-03-04T14:47:11Z</time>
      </trkpt>
      <trkpt lat="44.15221" lon="4.27086">
        <ele>398.5</ele>
        <time>2012-03-04T14:47:20Z</time>
      </trkpt>
      <trkpt lat="44.15219" lon="4.27075">
        <ele>400.2</ele>
        <time>2012-03-04T14:47:32Z</time>
      </trkpt>
      <trkpt lat="44.1521" lon="4.27076">
        <ele>399</ele>
        <time>2012-03-04T14:48:28Z</time>
      </trkpt>
      <trkpt lat="44.15209" lon="4.27077">
        <ele>399.5</ele>
        <time>2012-03-04T14:48:29Z</time>
      </trkpt>
      <trkpt lat="44.15196" lon="4.27087">
        <ele>399.3</ele>
        <time>2012-03-04T14:48:42Z</time>
      </trkpt>
      <trkpt lat="44.15189" lon="4.27091">
        <ele>399.9</ele>
        <time>2012-03-04T14:48:48Z</time>
      </trkpt>
      <trkpt lat="44.15181" lon="4.27096">
        <ele>399.5</ele>
        <time>2012-03-04T14:48:54Z</time>
      </trkpt>
      <trkpt lat="44.15173" lon="4.271">
        <ele>400.6</ele>
        <time>2012-03-04T14:49:01Z</time>
      </trkpt>
      <trkpt lat="44.15165" lon="4.27104">
        <ele>400.5</ele>
        <time>2012-03-04T14:49:07Z</time>
      </trkpt>
      <trkpt lat="44.15157" lon="4.27108">
        <ele>401.4</ele>
        <time>2012-03-04T14:49:14Z</time>
      </trkpt>
      <trkpt lat="44.15149" lon="4.27111">
        <ele>401.9</ele>
        <time>2012-03-04T14:49:47Z</time>
      </trkpt>
      <trkpt lat="44.15148" lon="4.27111">
        <ele>401.7</ele>
        <time>2012-03-04T14:49:48Z</time>
      </trkpt>
      <trkpt lat="44.15135" lon="4.271">
        <ele>401.5</ele>
        <time>2012-03-04T14:50:04Z</time>
      </trkpt>
      <trkpt lat="44.15129" lon="4.27091">
        <ele>401.3</ele>
        <time>2012-03-04T14:50:12Z</time>
      </trkpt>
      <trkpt lat="44.15125" lon="4.2708">
        <ele>400.8</ele>
        <time>2012-03-04T14:50:19Z</time>
      </trkpt>
      <trkpt lat="44.1512" lon="4.2707">
        <ele>400.1</ele>
        <time>2012-03-04T14:50:26Z</time>
      </trkpt>
      <trkpt lat="44.15115" lon="4.27061">
        <ele>399.6</ele>
        <time>2012-03-04T14:50:32Z</time>
      </trkpt>
      <trkpt lat="44.15111" lon="4.27052">
        <ele>399.5</ele>
        <time>2012-03-04T14:50:38Z</time>
      </trkpt>
      <trkpt lat="44.15107" lon="4.27042">
        <ele>399</ele>
        <time>2012-03-04T14:50:45Z</time>
      </trkpt>
      <trkpt lat="44.15104" lon="4.27032">
        <ele>398.7</ele>
        <time>2012-03-04T14:50:51Z</time>
      </trkpt>
      <trkpt lat="44.15103" lon="4.2703">
        <ele>398.6</ele>
        <time>2012-03-04T14:50:52Z</time>
      </trkpt>
      <trkpt lat="44.15096" lon="4.2701">
        <ele>397.7</ele>
        <time>2012-03-04T14:51:05Z</time>
      </trkpt>
      <trkpt lat="44.15091" lon="4.27">
        <ele>397</ele>
        <time>2012-03-04T14:51:12Z</time>
      </trkpt>
      <trkpt lat="44.15084" lon="4.26994">
        <ele>396.9</ele>
        <time>2012-03-04T14:51:18Z</time>
      </trkpt>
      <trkpt lat="44.15076" lon="4.26987">
        <ele>396.5</ele>
        <time>2012-03-04T14:51:25Z</time>
      </trkpt>
      <trkpt lat="44.15069" lon="4.26982">
        <ele>396.6</ele>
        <time>2012-03-04T14:51:31Z</time>
      </trkpt>
      <trkpt lat="44.15061" lon="4.26979">
        <ele>395.5</ele>
        <time>2012-03-04T14:51:37Z</time>
      </trkpt>
      <trkpt lat="44.15054" lon="4.26974">
        <ele>395.8</ele>
        <time>2012-03-04T14:51:43Z</time>
      </trkpt>
      <trkpt lat="44.15046" lon="4.2697">
        <ele>395.2</ele>
        <time>2012-03-04T14:51:50Z</time>
      </trkpt>
      <trkpt lat="44.15039" lon="4.26966">
        <ele>395.1</ele>
        <time>2012-03-04T14:51:57Z</time>
      </trkpt>
      <trkpt lat="44.15038" lon="4.26965">
        <ele>395.1</ele>
        <time>2012-03-04T14:51:58Z</time>
      </trkpt>
      <trkpt lat="44.15024" lon="4.26956">
        <ele>395</ele>
        <time>2012-03-04T14:52:13Z</time>
      </trkpt>
      <trkpt lat="44.15016" lon="4.26953">
        <ele>393.5</ele>
        <time>2012-03-04T14:52:20Z</time>
      </trkpt>
      <trkpt lat="44.15007" lon="4.2695">
        <ele>393.7</ele>
        <time>2012-03-04T14:52:28Z</time>
      </trkpt>
      <trkpt lat="44.14999" lon="4.26949">
        <ele>393.5</ele>
        <time>2012-03-04T14:52:34Z</time>
      </trkpt>
      <trkpt lat="44.14991" lon="4.26948">
        <ele>393</ele>
        <time>2012-03-04T14:52:41Z</time>
      </trkpt>
      <trkpt lat="44.14982" lon="4.26949">
        <ele>392.6</ele>
        <time>2012-03-04T14:52:48Z</time>
      </trkpt>
      <trkpt lat="44.14973" lon="4.26951">
        <ele>392.7</ele>
        <time>2012-03-04T14:52:55Z</time>
      </trkpt>
      <trkpt lat="44.14965" lon="4.26952">
        <ele>391.4</ele>
        <time>2012-03-04T14:53:06Z</time>
      </trkpt>
      <trkpt lat="44.14964" lon="4.26952">
        <ele>391.3</ele>
        <time>2012-03-04T14:53:07Z</time>
      </trkpt>
      <trkpt lat="44.14948" lon="4.26954">
        <ele>390.9</ele>
        <time>2012-03-04T14:53:21Z</time>
      </trkpt>
      <trkpt lat="44.1494" lon="4.26956">
        <ele>391</ele>
        <time>2012-03-04T14:53:28Z</time>
      </trkpt>
      <trkpt lat="44.14931" lon="4.26957">
        <ele>389.5</ele>
        <time>2012-03-04T14:53:35Z</time>
      </trkpt>
      <trkpt lat="44.14922" lon="4.26959">
        <ele>388.6</ele>
        <time>2012-03-04T14:53:41Z</time>
      </trkpt>
      <trkpt lat="44.14914" lon="4.26959">
        <ele>388.3</ele>
        <time>2012-03-04T14:53:47Z</time>
      </trkpt>
      <trkpt lat="44.14906" lon="4.26959">
        <ele>387.7</ele>
        <time>2012-03-04T14:53:53Z</time>
      </trkpt>
      <trkpt lat="44.14897" lon="4.26958">
        <ele>387.5</ele>
        <time>2012-03-04T14:54:00Z</time>
      </trkpt>
      <trkpt lat="44.14889" lon="4.26957">
        <ele>387.6</ele>
        <time>2012-03-04T14:54:07Z</time>
      </trkpt>
      <trkpt lat="44.14888" lon="4.26956">
        <ele>387.4</ele>
        <time>2012-03-04T14:54:08Z</time>
      </trkpt>
      <trkpt lat="44.14872" lon="4.26955">
        <ele>387.8</ele>
        <time>2012-03-04T14:54:22Z</time>
      </trkpt>
      <trkpt lat="44.14864" lon="4.26953">
        <ele>387.3</ele>
        <time>2012-03-04T14:54:30Z</time>
      </trkpt>
      <trkpt lat="44.14856" lon="4.2695">
        <ele>387.8</ele>
        <time>2012-03-04T14:54:38Z</time>
      </trkpt>
      <trkpt lat="44.14848" lon="4.26948">
        <ele>388</ele>
        <time>2012-03-04T14:54:46Z</time>
      </trkpt>
      <trkpt lat="44.1484" lon="4.26944">
        <ele>386.5</ele>
        <time>2012-03-04T14:55:05Z</time>
      </trkpt>
      <trkpt lat="44.14832" lon="4.26939">
        <ele>385.8</ele>
        <time>2012-03-04T14:55:12Z</time>
      </trkpt>
      <trkpt lat="44.14831" lon="4.26939">
        <ele>385.4</ele>
        <time>2012-03-04T14:55:13Z</time>
      </trkpt>
      <trkpt lat="44.14818" lon="4.26926">
        <ele>383.7</ele>
        <time>2012-03-04T14:55:26Z</time>
      </trkpt>
      <trkpt lat="44.14814" lon="4.26917">
        <ele>383</ele>
        <time>2012-03-04T14:55:33Z</time>
      </trkpt>
      <trkpt lat="44.14811" lon="4.26906">
        <ele>382.2</ele>
        <time>2012-03-04T14:55:40Z</time>
      </trkpt>
      <trkpt lat="44.14808" lon="4.26895">
        <ele>380.5</ele>
        <time>2012-03-04T14:55:48Z</time>
      </trkpt>
      <trkpt lat="44.14805" lon="4.26883">
        <ele>379.8</ele>
        <time>2012-03-04T14:55:55Z</time>
      </trkpt>
      <trkpt lat="44.14804" lon="4.26871">
        <ele>377.7</ele>
        <time>2012-03-04T14:56:02Z</time>
      </trkpt>
      <trkpt lat="44.14804" lon="4.26859">
        <ele>377.2</ele>
        <time>2012-03-04T14:56:09Z</time>
      </trkpt>
      <trkpt lat="44.14807" lon="4.26847">
        <ele>376</ele>
        <time>2012-03-04T14:57:31Z</time>
      </trkpt>
      <trkpt lat="44.14807" lon="4.26846">
        <ele>375.8</ele>
        <time>2012-03-04T14:57:31Z</time>
      </trkpt>
      <trkpt lat="44.14817" lon="4.26828">
        <ele>373.5</ele>
        <time>2012-03-04T14:57:45Z</time>
      </trkpt>
      <trkpt lat="44.14825" lon="4.26824">
        <ele>372.7</ele>
        <time>2012-03-04T14:57:52Z</time>
      </trkpt>
      <trkpt lat="44.14834" lon="4.26824">
        <ele>372.4</ele>
        <time>2012-03-04T14:58:00Z</time>
      </trkpt>
      <trkpt lat="44.14843" lon="4.26823">
        <ele>371.4</ele>
        <time>2012-03-04T14:58:08Z</time>
      </trkpt>
      <trkpt lat="44.14841" lon="4.2681">
        <ele>370.8</ele>
        <time>2012-03-04T14:58:17Z</time>
      </trkpt>
      <trkpt lat="44.14833" lon="4.26805">
        <ele>369.8</ele>
        <time>2012-03-04T14:58:23Z</time>
      </trkpt>
      <trkpt lat="44.14826" lon="4.268">
        <ele>368.9</ele>
        <time>2012-03-04T14:58:30Z</time>
      </trkpt>
      <trkpt lat="44.14819" lon="4.26791">
        <ele>368</ele>
        <time>2012-03-04T14:58:37Z</time>
      </trkpt>
      <trkpt lat="44.14819" lon="4.2679">
        <ele>367.7</ele>
        <time>2012-03-04T14:58:38Z</time>
      </trkpt>
      <trkpt lat="44.14814" lon="4.2677">
        <ele>366.1</ele>
        <time>2012-03-04T14:58:51Z</time>
      </trkpt>
      <trkpt lat="44.14813" lon="4.2676">
        <ele>365.3</ele>
        <time>2012-03-04T14:58:57Z</time>
      </trkpt>
      <trkpt lat="44.14812" lon="4.26749">
        <ele>364</ele>
        <time>2012-03-04T14:59:04Z</time>
      </trkpt>
      <trkpt lat="44.14808" lon="4.26738">
        <ele>361.8</ele>
        <time>2012-03-04T14:59:12Z</time>
      </trkpt>
      <trkpt lat="44.14813" lon="4.26727">
        <ele>358.9</ele>
        <time>2012-03-04T15:02:05Z</time>
      </trkpt>
      <trkpt lat="44.14813" lon="4.26727">
        <ele>359</ele>
        <time>2012-03-04T15:02:06Z</time>
      </trkpt>
      <trkpt lat="44.14799" lon="4.26717">
        <ele>363.3</ele>
        <time>2012-03-04T15:02:55Z</time>
      </trkpt>
      <trkpt lat="44.14797" lon="4.26706">
        <ele>358.8</ele>
        <time>2012-03-04T15:03:05Z</time>
      </trkpt>
      <trkpt lat="44.14793" lon="4.26695">
        <ele>356.6</ele>
        <time>2012-03-04T15:03:12Z</time>
      </trkpt>
      <trkpt lat="44.14792" lon="4.26694">
        <ele>356.4</ele>
        <time>2012-03-04T15:03:13Z</time>
      </trkpt>
      <trkpt lat="44.14783" lon="4.26676">
        <ele>355.9</ele>
        <time>2012-03-04T15:03:28Z</time>
      </trkpt>
      <trkpt lat="44.14777" lon="4.26667">
        <ele>354.5</ele>
        <time>2012-03-04T15:03:35Z</time>
      </trkpt>
      <trkpt lat="44.14773" lon="4.26657">
        <ele>355</ele>
        <time>2012-03-04T15:03:42Z</time>
      </trkpt>
      <trkpt lat="44.14772" lon="4.26646">
        <ele>355.2</ele>
        <time>2012-03-04T15:03:49Z</time>
      </trkpt>
      <trkpt lat="44.14775" lon="4.26634">
        <ele>355.3</ele>
        <time>2012-03-04T15:03:56Z</time>
      </trkpt>
      <trkpt lat="44.14776" lon="4.26623">
        <ele>354.5</ele>
        <time>2012-03-04T15:04:03Z</time>
      </trkpt>
      <trkpt lat="44.14776" lon="4.26612">
        <ele>354.3</ele>
        <time>2012-03-04T15:04:10Z</time>
      </trkpt>
      <trkpt lat="44.14774" lon="4.26601">
        <ele>353.7</ele>
        <time>2012-03-04T15:04:17Z</time>
      </trkpt>
      <trkpt lat="44.14773" lon="4.26599">
        <ele>353.6</ele>
        <time>2012-03-04T15:04:18Z</time>
      </trkpt>
      <trkpt lat="44.14763" lon="4.26585">
        <ele>350.6</ele>
        <time>2012-03-04T15:04:30Z</time>
      </trkpt>
      <trkpt lat="44.14756" lon="4.26577">
        <ele>349.4</ele>
        <time>2012-03-04T15:04:37Z</time>
      </trkpt>
      <trkpt lat="44.14749" lon="4.2657">
        <ele>348.1</ele>
        <time>2012-03-04T15:04:45Z</time>
      </trkpt>
      <trkpt lat="44.14743" lon="4.26562">
        <ele>347.8</ele>
        <time>2012-03-04T15:04:51Z</time>
      </trkpt>
      <trkpt lat="44.14737" lon="4.26554">
        <ele>345.8</ele>
        <time>2012-03-04T15:04:57Z</time>
      </trkpt>
      <trkpt lat="44.14733" lon="4.26544">
        <ele>344.8</ele>
        <time>2012-03-04T15:05:03Z</time>
      </trkpt>
      <trkpt lat="44.14729" lon="4.26533">
        <ele>342.8</ele>
        <time>2012-03-04T15:05:10Z</time>
      </trkpt>
      <trkpt lat="44.14725" lon="4.26523">
        <ele>341.5</ele>
        <time>2012-03-04T15:05:16Z</time>
      </trkpt>
      <trkpt lat="44.14722" lon="4.26512">
        <ele>340.2</ele>
        <time>2012-03-04T15:05:22Z</time>
      </trkpt>
      <trkpt lat="44.14722" lon="4.2651">
        <ele>340</ele>
        <time>2012-03-04T15:05:23Z</time>
      </trkpt>
      <trkpt lat="44.14716" lon="4.2649">
        <ele>338.3</ele>
        <time>2012-03-04T15:05:34Z</time>
      </trkpt>
      <trkpt lat="44.14714" lon="4.26479">
        <ele>337.4</ele>
        <time>2012-03-04T15:05:40Z</time>
      </trkpt>
      <trkpt lat="44.14713" lon="4.26468">
        <ele>336.6</ele>
        <time>2012-03-04T15:05:46Z</time>
      </trkpt>
      <trkpt lat="44.14711" lon="4.26456">
        <ele>336.8</ele>
        <time>2012-03-04T15:05:53Z</time>
      </trkpt>
      <trkpt lat="44.1471" lon="4.26444">
        <ele>335.9</ele>
        <time>2012-03-04T15:06:00Z</time>
      </trkpt>
      <trkpt lat="44.14708" lon="4.26432">
        <ele>337.6</ele>
        <time>2012-03-04T15:06:07Z</time>
      </trkpt>
      <trkpt lat="44.14706" lon="4.2642">
        <ele>338.6</ele>
        <time>2012-03-04T15:06:14Z</time>
      </trkpt>
      <trkpt lat="44.14703" lon="4.2641">
        <ele>337.2</ele>
        <time>2012-03-04T15:06:20Z</time>
      </trkpt>
      <trkpt lat="44.14701" lon="4.26398">
        <ele>336.9</ele>
        <time>2012-03-04T15:06:27Z</time>
      </trkpt>
      <trkpt lat="44.147" lon="4.26396">
        <ele>336.9</ele>
        <time>2012-03-04T15:06:28Z</time>
      </trkpt>
      <trkpt lat="44.14698" lon="4.26375">
        <ele>336.2</ele>
        <time>2012-03-04T15:06:40Z</time>
      </trkpt>
      <trkpt lat="44.14699" lon="4.26364">
        <ele>337.4</ele>
        <time>2012-03-04T15:06:46Z</time>
      </trkpt>
      <trkpt lat="44.147" lon="4.26353">
        <ele>337</ele>
        <time>2012-03-04T15:06:54Z</time>
      </trkpt>
      <trkpt lat="44.14703" lon="4.26342">
        <ele>338.4</ele>
        <time>2012-03-04T15:07:01Z</time>
      </trkpt>
      <trkpt lat="44.14706" lon="4.26331">
        <ele>338.6</ele>
        <time>2012-03-04T15:07:09Z</time>
      </trkpt>
      <trkpt lat="44.14708" lon="4.2632">
        <ele>339.3</ele>
        <time>2012-03-04T15:07:16Z</time>
      </trkpt>
      <trkpt lat="44.14708" lon="4.26308">
        <ele>339.7</ele>
        <time>2012-03-04T15:07:23Z</time>
      </trkpt>
      <trkpt lat="44.14709" lon="4.26296">
        <ele>339.4</ele>
        <time>2012-03-04T15:07:30Z</time>
      </trkpt>
      <trkpt lat="44.14709" lon="4.26294">
        <ele>339.2</ele>
        <time>2012-03-04T15:07:31Z</time>
      </trkpt>
      <trkpt lat="44.1471" lon="4.26273">
        <ele>338.5</ele>
        <time>2012-03-04T15:07:43Z</time>
      </trkpt>
      <trkpt lat="44.1471" lon="4.26262">
        <ele>338.8</ele>
        <time>2012-03-04T15:07:49Z</time>
      </trkpt>
      <trkpt lat="44.14711" lon="4.2625">
        <ele>338.8</ele>
        <time>2012-03-04T15:07:56Z</time>
      </trkpt>
      <trkpt lat="44.14711" lon="4.26238">
        <ele>338.3</ele>
        <time>2012-03-04T15:08:03Z</time>
      </trkpt>
      <trkpt lat="44.1471" lon="4.26227">
        <ele>336.8</ele>
        <time>2012-03-04T15:08:10Z</time>
      </trkpt>
      <trkpt lat="44.14709" lon="4.26215">
        <ele>335.3</ele>
        <time>2012-03-04T15:08:18Z</time>
      </trkpt>
      <trkpt lat="44.14707" lon="4.26203">
        <ele>333.2</ele>
        <time>2012-03-04T15:08:26Z</time>
      </trkpt>
      <trkpt lat="44.14707" lon="4.26191">
        <ele>332</ele>
        <time>2012-03-04T15:08:33Z</time>
      </trkpt>
      <trkpt lat="44.14707" lon="4.26189">
        <ele>331.9</ele>
        <time>2012-03-04T15:08:34Z</time>
      </trkpt>
      <trkpt lat="44.14708" lon="4.26169">
        <ele>330</ele>
        <time>2012-03-04T15:08:46Z</time>
      </trkpt>
      <trkpt lat="44.14711" lon="4.26158">
        <ele>328.6</ele>
        <time>2012-03-04T15:08:52Z</time>
      </trkpt>
      <trkpt lat="44.14715" lon="4.26148">
        <ele>327.1</ele>
        <time>2012-03-04T15:08:59Z</time>
      </trkpt>
      <trkpt lat="44.14719" lon="4.26138">
        <ele>326.6</ele>
        <time>2012-03-04T15:09:06Z</time>
      </trkpt>
      <trkpt lat="44.14723" lon="4.26127">
        <ele>324.9</ele>
        <time>2012-03-04T15:09:14Z</time>
      </trkpt>
      <trkpt lat="44.14725" lon="4.26115">
        <ele>323.7</ele>
        <time>2012-03-04T15:09:25Z</time>
      </trkpt>
      <trkpt lat="44.14725" lon="4.26103">
        <ele>322.1</ele>
        <time>2012-03-04T15:09:33Z</time>
      </trkpt>
      <trkpt lat="44.14725" lon="4.26092">
        <ele>319.7</ele>
        <time>2012-03-04T15:09:41Z</time>
      </trkpt>
      <trkpt lat="44.14725" lon="4.2609">
        <ele>319.5</ele>
        <time>2012-03-04T15:09:42Z</time>
      </trkpt>
      <trkpt lat="44.14723" lon="4.26069">
        <ele>316.3</ele>
        <time>2012-03-04T15:09:56Z</time>
      </trkpt>
      <trkpt lat="44.14717" lon="4.26061">
        <ele>314.8</ele>
        <time>2012-03-04T15:10:04Z</time>
      </trkpt>
      <trkpt lat="44.1471" lon="4.26056">
        <ele>312.9</ele>
        <time>2012-03-04T15:10:11Z</time>
      </trkpt>
      <trkpt lat="44.14703" lon="4.2605">
        <ele>311.5</ele>
        <time>2012-03-04T15:10:18Z</time>
      </trkpt>
      <trkpt lat="44.14695" lon="4.26046">
        <ele>311.1</ele>
        <time>2012-03-04T15:10:25Z</time>
      </trkpt>
      <trkpt lat="44.14688" lon="4.26039">
        <ele>309.8</ele>
        <time>2012-03-04T15:10:32Z</time>
      </trkpt>
      <trkpt lat="44.14683" lon="4.2603">
        <ele>308.9</ele>
        <time>2012-03-04T15:10:38Z</time>
      </trkpt>
      <trkpt lat="44.14679" lon="4.26019">
        <ele>308.5</ele>
        <time>2012-03-04T15:10:45Z</time>
      </trkpt>
      <trkpt lat="44.14679" lon="4.26018">
        <ele>308.5</ele>
        <time>2012-03-04T15:10:46Z</time>
      </trkpt>
      <trkpt lat="44.14671" lon="4.25998">
        <ele>306.1</ele>
        <time>2012-03-04T15:11:00Z</time>
      </trkpt>
      <trkpt lat="44.1467" lon="4.25986">
        <ele>305.5</ele>
        <time>2012-03-04T15:11:08Z</time>
      </trkpt>
      <trkpt lat="44.14669" lon="4.25974">
        <ele>306</ele>
        <time>2012-03-04T15:11:25Z</time>
      </trkpt>
      <trkpt lat="44.14672" lon="4.25962">
        <ele>305.8</ele>
        <time>2012-03-04T15:11:32Z</time>
      </trkpt>
      <trkpt lat="44.14673" lon="4.25951">
        <ele>305.4</ele>
        <time>2012-03-04T15:11:39Z</time>
      </trkpt>
      <trkpt lat="44.14676" lon="4.2594">
        <ele>304.5</ele>
        <time>2012-03-04T15:11:46Z</time>
      </trkpt>
      <trkpt lat="44.14676" lon="4.25939">
        <ele>304.5</ele>
        <time>2012-03-04T15:11:47Z</time>
      </trkpt>
      <trkpt lat="44.14677" lon="4.25917">
        <ele>302.2</ele>
        <time>2012-03-04T15:12:00Z</time>
      </trkpt>
      <trkpt lat="44.14677" lon="4.25905">
        <ele>301.9</ele>
        <time>2012-03-04T15:12:07Z</time>
      </trkpt>
      <trkpt lat="44.14679" lon="4.25893">
        <ele>300.9</ele>
        <time>2012-03-04T15:12:14Z</time>
      </trkpt>
      <trkpt lat="44.14683" lon="4.25882">
        <ele>298.8</ele>
        <time>2012-03-04T15:12:21Z</time>
      </trkpt>
      <trkpt lat="44.14688" lon="4.25872">
        <ele>298.7</ele>
        <time>2012-03-04T15:12:28Z</time>
      </trkpt>
      <trkpt lat="44.14691" lon="4.25862">
        <ele>297.2</ele>
        <time>2012-03-04T15:12:35Z</time>
      </trkpt>
      <trkpt lat="44.14694" lon="4.25851">
        <ele>296.8</ele>
        <time>2012-03-04T15:12:42Z</time>
      </trkpt>
      <trkpt lat="44.14696" lon="4.2584">
        <ele>295.5</ele>
        <time>2012-03-04T15:12:49Z</time>
      </trkpt>
      <trkpt lat="44.14696" lon="4.25839">
        <ele>295.4</ele>
        <time>2012-03-04T15:12:50Z</time>
      </trkpt>
      <trkpt lat="44.14702" lon="4.2582">
        <ele>293.7</ele>
        <time>2012-03-04T15:15:04Z</time>
      </trkpt>
      <trkpt lat="44.14703" lon="4.2582">
        <ele>293.6</ele>
        <time>2012-03-04T15:15:05Z</time>
      </trkpt>
      <trkpt lat="44.14719" lon="4.25819">
        <ele>292.5</ele>
        <time>2012-03-04T15:15:21Z</time>
      </trkpt>
      <trkpt lat="44.14728" lon="4.2582">
        <ele>291.4</ele>
        <time>2012-03-04T15:15:43Z</time>
      </trkpt>
      <trkpt lat="44.14736" lon="4.2582">
        <ele>290.4</ele>
        <time>2012-03-04T15:16:10Z</time>
      </trkpt>
      <trkpt lat="44.14737" lon="4.25821">
        <ele>290.5</ele>
        <time>2012-03-04T15:16:11Z</time>
      </trkpt>
      <trkpt lat="44.14736" lon="4.25818">
        <ele>289</ele>
        <time>2012-03-04T15:18:23Z</time>
      </trkpt>
      <trkpt lat="44.14736" lon="4.25818">
        <ele>289.2</ele>
        <time>2012-03-04T15:18:24Z</time>
      </trkpt>
      <trkpt lat="44.1472" lon="4.25819">
        <ele>291.2</ele>
        <time>2012-03-04T15:18:44Z</time>
      </trkpt>
      <trkpt lat="44.14712" lon="4.2582">
        <ele>292.7</ele>
        <time>2012-03-04T15:18:54Z</time>
      </trkpt>
      <trkpt lat="44.14704" lon="4.25818">
        <ele>293.3</ele>
        <time>2012-03-04T15:19:05Z</time>
      </trkpt>
      <trkpt lat="44.14698" lon="4.2581">
        <ele>292.8</ele>
        <time>2012-03-04T15:19:14Z</time>
      </trkpt>
      <trkpt lat="44.14694" lon="4.25799">
        <ele>292.6</ele>
        <time>2012-03-04T15:19:22Z</time>
      </trkpt>
      <trkpt lat="44.14691" lon="4.25787">
        <ele>291.5</ele>
        <time>2012-03-04T15:19:29Z</time>
      </trkpt>
      <trkpt lat="44.14691" lon="4.25785">
        <ele>291.5</ele>
        <time>2012-03-04T15:19:30Z</time>
      </trkpt>
      <trkpt lat="44.14696" lon="4.25765">
        <ele>290</ele>
        <time>2012-03-04T15:19:42Z</time>
      </trkpt>
      <trkpt lat="44.14701" lon="4.25755">
        <ele>289.2</ele>
        <time>2012-03-04T15:19:49Z</time>
      </trkpt>
      <trkpt lat="44.14706" lon="4.25745">
        <ele>288.4</ele>
        <time>2012-03-04T15:19:55Z</time>
      </trkpt>
      <trkpt lat="44.14709" lon="4.25735">
        <ele>287.3</ele>
        <time>2012-03-04T15:20:01Z</time>
      </trkpt>
      <trkpt lat="44.14708" lon="4.25724">
        <ele>286.9</ele>
        <time>2012-03-04T15:20:07Z</time>
      </trkpt>
      <trkpt lat="44.14707" lon="4.25713">
        <ele>286.6</ele>
        <time>2012-03-04T15:20:13Z</time>
      </trkpt>
      <trkpt lat="44.14705" lon="4.25702">
        <ele>285.9</ele>
        <time>2012-03-04T15:20:19Z</time>
      </trkpt>
      <trkpt lat="44.14703" lon="4.2569">
        <ele>285.1</ele>
        <time>2012-03-04T15:20:25Z</time>
      </trkpt>
      <trkpt lat="44.14704" lon="4.25679">
        <ele>284.3</ele>
        <time>2012-03-04T15:20:31Z</time>
      </trkpt>
      <trkpt lat="44.14704" lon="4.25677">
        <ele>284.2</ele>
        <time>2012-03-04T15:20:32Z</time>
      </trkpt>
      <trkpt lat="44.14704" lon="4.25656">
        <ele>284.1</ele>
        <time>2012-03-04T15:20:44Z</time>
      </trkpt>
      <trkpt lat="44.14705" lon="4.25644">
        <ele>283.3</ele>
        <time>2012-03-04T15:20:50Z</time>
      </trkpt>
      <trkpt lat="44.14706" lon="4.25632">
        <ele>282.9</ele>
        <time>2012-03-04T15:20:57Z</time>
      </trkpt>
      <trkpt lat="44.14706" lon="4.25621">
        <ele>282.2</ele>
        <time>2012-03-04T15:21:03Z</time>
      </trkpt>
      <trkpt lat="44.14706" lon="4.2561">
        <ele>281.5</ele>
        <time>2012-03-04T15:21:09Z</time>
      </trkpt>
      <trkpt lat="44.14705" lon="4.25597">
        <ele>280.9</ele>
        <time>2012-03-04T15:21:16Z</time>
      </trkpt>
      <trkpt lat="44.14705" lon="4.25585">
        <ele>281.1</ele>
        <time>2012-03-04T15:21:23Z</time>
      </trkpt>
      <trkpt lat="44.14704" lon="4.25574">
        <ele>280.2</ele>
        <time>2012-03-04T15:21:29Z</time>
      </trkpt>
      <trkpt lat="44.14704" lon="4.25564">
        <ele>279.5</ele>
        <time>2012-03-04T15:21:35Z</time>
      </trkpt>
      <trkpt lat="44.14704" lon="4.25562">
        <ele>279.1</ele>
        <time>2012-03-04T15:21:36Z</time>
      </trkpt>
      <trkpt lat="44.14704" lon="4.2554">
        <ele>277.2</ele>
        <time>2012-03-04T15:21:47Z</time>
      </trkpt>
      <trkpt lat="44.14703" lon="4.25528">
        <ele>277.3</ele>
        <time>2012-03-04T15:21:54Z</time>
      </trkpt>
      <trkpt lat="44.14703" lon="4.25517">
        <ele>277.2</ele>
        <time>2012-03-04T15:22:00Z</time>
      </trkpt>
      <trkpt lat="44.14702" lon="4.25505">
        <ele>276.5</ele>
        <time>2012-03-04T15:22:06Z</time>
      </trkpt>
      <trkpt lat="44.14701" lon="4.25493">
        <ele>275.4</ele>
        <time>2012-03-04T15:22:12Z</time>
      </trkpt>
      <trkpt lat="44.147" lon="4.25481">
        <ele>274.8</ele>
        <time>2012-03-04T15:22:19Z</time>
      </trkpt>
      <trkpt lat="44.14699" lon="4.2547">
        <ele>273</ele>
        <time>2012-03-04T15:22:27Z</time>
      </trkpt>
      <trkpt lat="44.14699" lon="4.25459">
        <ele>271.8</ele>
        <time>2012-03-04T15:22:34Z</time>
      </trkpt>
      <trkpt lat="44.14699" lon="4.25447">
        <ele>270.3</ele>
        <time>2012-03-04T15:22:41Z</time>
      </trkpt>
      <trkpt lat="44.14699" lon="4.25445">
        <ele>270.1</ele>
        <time>2012-03-04T15:22:42Z</time>
      </trkpt>
      <trkpt lat="44.147" lon="4.25424">
        <ele>268.7</ele>
        <time>2012-03-04T15:22:54Z</time>
      </trkpt>
      <trkpt lat="44.147" lon="4.25413">
        <ele>268.5</ele>
        <time>2012-03-04T15:23:00Z</time>
      </trkpt>
      <trkpt lat="44.147" lon="4.25402">
        <ele>267.2</ele>
        <time>2012-03-04T15:23:06Z</time>
      </trkpt>
      <trkpt lat="44.14699" lon="4.25391">
        <ele>265.8</ele>
        <time>2012-03-04T15:23:12Z</time>
      </trkpt>
      <trkpt lat="44.14697" lon="4.25379">
        <ele>266.2</ele>
        <time>2012-03-04T15:23:19Z</time>
      </trkpt>
      <trkpt lat="44.14696" lon="4.25367">
        <ele>264.8</ele>
        <time>2012-03-04T15:23:26Z</time>
      </trkpt>
      <trkpt lat="44.14697" lon="4.25356">
        <ele>263.2</ele>
        <time>2012-03-04T15:23:33Z</time>
      </trkpt>
      <trkpt lat="44.14698" lon="4.25345">
        <ele>262.8</ele>
        <time>2012-03-04T15:23:40Z</time>
      </trkpt>
      <trkpt lat="44.14698" lon="4.25334">
        <ele>263.1</ele>
        <time>2012-03-04T15:23:46Z</time>
      </trkpt>
      <trkpt lat="44.14697" lon="4.25332">
        <ele>262.8</ele>
        <time>2012-03-04T15:23:47Z</time>
      </trkpt>
      <trkpt lat="44.14686" lon="4.25317">
        <ele>262.2</ele>
        <time>2012-03-04T15:24:03Z</time>
      </trkpt>
      <trkpt lat="44.14681" lon="4.25306">
        <ele>261.6</ele>
        <time>2012-03-04T15:25:06Z</time>
      </trkpt>
      <trkpt lat="44.1468" lon="4.25305">
        <ele>261.9</ele>
        <time>2012-03-04T15:25:07Z</time>
      </trkpt>
      <trkpt lat="44.14671" lon="4.25288">
        <ele>261.9</ele>
        <time>2012-03-04T15:25:17Z</time>
      </trkpt>
      <trkpt lat="44.14666" lon="4.25278">
        <ele>261.9</ele>
        <time>2012-03-04T15:25:23Z</time>
      </trkpt>
      <trkpt lat="44.14662" lon="4.25267">
        <ele>261.5</ele>
        <time>2012-03-04T15:25:29Z</time>
      </trkpt>
      <trkpt lat="44.14659" lon="4.25255">
        <ele>261.3</ele>
        <time>2012-03-04T15:25:36Z</time>
      </trkpt>
      <trkpt lat="44.14657" lon="4.25244">
        <ele>260.8</ele>
        <time>2012-03-04T15:25:47Z</time>
      </trkpt>
      <trkpt lat="44.14653" lon="4.25233">
        <ele>259.5</ele>
        <time>2012-03-04T15:25:54Z</time>
      </trkpt>
      <trkpt lat="44.1465" lon="4.25222">
        <ele>259.4</ele>
        <time>2012-03-04T15:26:00Z</time>
      </trkpt>
      <trkpt lat="44.14648" lon="4.25211">
        <ele>259.8</ele>
        <time>2012-03-04T15:26:06Z</time>
      </trkpt>
      <trkpt lat="44.14647" lon="4.252">
        <ele>259.2</ele>
        <time>2012-03-04T15:26:12Z</time>
      </trkpt>
      <trkpt lat="44.14647" lon="4.25198">
        <ele>259</ele>
        <time>2012-03-04T15:26:13Z</time>
      </trkpt>
      <trkpt lat="44.14648" lon="4.25177">
        <ele>257.5</ele>
        <time>2012-03-04T15:26:25Z</time>
      </trkpt>
      <trkpt lat="44.14645" lon="4.25165">
        <ele>257.5</ele>
        <time>2012-03-04T15:26:45Z</time>
      </trkpt>
      <trkpt lat="44.14653" lon="4.25171">
        <ele>257</ele>
        <time>2012-03-04T15:27:13Z</time>
      </trkpt>
      <trkpt lat="44.14654" lon="4.2517">
        <ele>256.7</ele>
        <time>2012-03-04T15:27:14Z</time>
      </trkpt>
      <trkpt lat="44.14663" lon="4.25151">
        <ele>256.1</ele>
        <time>2012-03-04T15:27:26Z</time>
      </trkpt>
      <trkpt lat="44.14666" lon="4.2514">
        <ele>256</ele>
        <time>2012-03-04T15:27:32Z</time>
      </trkpt>
      <trkpt lat="44.14669" lon="4.2513">
        <ele>255.2</ele>
        <time>2012-03-04T15:27:38Z</time>
      </trkpt>
      <trkpt lat="44.14672" lon="4.2512">
        <ele>255</ele>
        <time>2012-03-04T15:27:44Z</time>
      </trkpt>
      <trkpt lat="44.14674" lon="4.25109">
        <ele>254.4</ele>
        <time>2012-03-04T15:27:50Z</time>
      </trkpt>
      <trkpt lat="44.14676" lon="4.25098">
        <ele>254.5</ele>
        <time>2012-03-04T15:27:56Z</time>
      </trkpt>
      <trkpt lat="44.14676" lon="4.25088">
        <ele>254.4</ele>
        <time>2012-03-04T15:28:02Z</time>
      </trkpt>
      <trkpt lat="44.14676" lon="4.25077">
        <ele>254</ele>
        <time>2012-03-04T15:28:08Z</time>
      </trkpt>
      <trkpt lat="44.14675" lon="4.25065">
        <ele>253.7</ele>
        <time>2012-03-04T15:28:14Z</time>
      </trkpt>
      <trkpt lat="44.14675" lon="4.25063">
        <ele>253.6</ele>
        <time>2012-03-04T15:28:15Z</time>
      </trkpt>
      <trkpt lat="44.14674" lon="4.25043">
        <ele>253.8</ele>
        <time>2012-03-04T15:28:26Z</time>
      </trkpt>
      <trkpt lat="44.14674" lon="4.25031">
        <ele>252.9</ele>
        <time>2012-03-04T15:28:33Z</time>
      </trkpt>
      <trkpt lat="44.14675" lon="4.25019">
        <ele>251.9</ele>
        <time>2012-03-04T15:28:40Z</time>
      </trkpt>
      <trkpt lat="44.14678" lon="4.25007">
        <ele>251.3</ele>
        <time>2012-03-04T15:29:57Z</time>
      </trkpt>
      <trkpt lat="44.14678" lon="4.25006">
        <ele>251.6</ele>
        <time>2012-03-04T15:29:58Z</time>
      </trkpt>
      <trkpt lat="44.14693" lon="4.25002">
        <ele>251.2</ele>
        <time>2012-03-04T15:30:10Z</time>
      </trkpt>
      <trkpt lat="44.14701" lon="4.25001">
        <ele>251.3</ele>
        <time>2012-03-04T15:30:17Z</time>
      </trkpt>
      <trkpt lat="44.1471" lon="4.25">
        <ele>251</ele>
        <time>2012-03-04T15:30:25Z</time>
      </trkpt>
      <trkpt lat="44.14718" lon="4.24997">
        <ele>250</ele>
        <time>2012-03-04T15:30:32Z</time>
      </trkpt>
      <trkpt lat="44.14726" lon="4.24995">
        <ele>251.6</ele>
        <time>2012-03-04T15:30:39Z</time>
      </trkpt>
      <trkpt lat="44.14734" lon="4.24994">
        <ele>252.1</ele>
        <time>2012-03-04T15:30:43Z</time>
      </trkpt>
      <trkpt lat="44.14741" lon="4.24993">
        <ele>251.8</ele>
        <time>2012-03-04T15:30:48Z</time>
      </trkpt>
      <trkpt lat="44.14749" lon="4.24991">
        <ele>250.7</ele>
        <time>2012-03-04T15:30:53Z</time>
      </trkpt>
      <trkpt lat="44.14757" lon="4.2499">
        <ele>251</ele>
        <time>2012-03-04T15:30:59Z</time>
      </trkpt>
      <trkpt lat="44.14758" lon="4.2499">
        <ele>251</ele>
        <time>2012-03-04T15:31:00Z</time>
      </trkpt>
      <trkpt lat="44.14773" lon="4.24988">
        <ele>250.6</ele>
        <time>2012-03-04T15:31:12Z</time>
      </trkpt>
      <trkpt lat="44.14781" lon="4.24984">
        <ele>250.4</ele>
        <time>2012-03-04T15:31:18Z</time>
      </trkpt>
      <trkpt lat="44.14786" lon="4.24976">
        <ele>250.1</ele>
        <time>2012-03-04T15:31:24Z</time>
      </trkpt>
      <trkpt lat="44.14791" lon="4.24965">
        <ele>248.8</ele>
        <time>2012-03-04T15:31:31Z</time>
      </trkpt>
      <trkpt lat="44.14795" lon="4.24956">
        <ele>248.9</ele>
        <time>2012-03-04T15:31:37Z</time>
      </trkpt>
      <trkpt lat="44.14801" lon="4.24948">
        <ele>247.1</ele>
        <time>2012-03-04T15:31:44Z</time>
      </trkpt>
      <trkpt lat="44.14808" lon="4.24942">
        <ele>246.1</ele>
        <time>2012-03-04T15:31:50Z</time>
      </trkpt>
      <trkpt lat="44.14816" lon="4.24938">
        <ele>244.4</ele>
        <time>2012-03-04T15:31:57Z</time>
      </trkpt>
      <trkpt lat="44.14822" lon="4.24929">
        <ele>244</ele>
        <time>2012-03-04T15:32:03Z</time>
      </trkpt>
      <trkpt lat="44.14822" lon="4.24927">
        <ele>243.8</ele>
        <time>2012-03-04T15:32:04Z</time>
      </trkpt>
      <trkpt lat="44.14817" lon="4.24908">
        <ele>242.3</ele>
        <time>2012-03-04T15:32:15Z</time>
      </trkpt>
      <trkpt lat="44.14811" lon="4.24899">
        <ele>241.7</ele>
        <time>2012-03-04T15:32:22Z</time>
      </trkpt>
      <trkpt lat="44.14803" lon="4.24892">
        <ele>241.3</ele>
        <time>2012-03-04T15:32:28Z</time>
      </trkpt>
      <trkpt lat="44.14795" lon="4.24889">
        <ele>239.7</ele>
        <time>2012-03-04T15:32:36Z</time>
      </trkpt>
      <trkpt lat="44.14788" lon="4.24886">
        <ele>238.7</ele>
        <time>2012-03-04T15:32:42Z</time>
      </trkpt>
      <trkpt lat="44.1478" lon="4.24882">
        <ele>239</ele>
        <time>2012-03-04T15:32:48Z</time>
      </trkpt>
      <trkpt lat="44.14772" lon="4.24877">
        <ele>237.4</ele>
        <time>2012-03-04T15:32:54Z</time>
      </trkpt>
      <trkpt lat="44.14765" lon="4.24872">
        <ele>236.1</ele>
        <time>2012-03-04T15:33:00Z</time>
      </trkpt>
      <trkpt lat="44.14758" lon="4.24868">
        <ele>235.1</ele>
        <time>2012-03-04T15:33:05Z</time>
      </trkpt>
      <trkpt lat="44.14756" lon="4.24867">
        <ele>235</ele>
        <time>2012-03-04T15:33:06Z</time>
      </trkpt>
      <trkpt lat="44.14743" lon="4.24859">
        <ele>232.8</ele>
        <time>2012-03-04T15:33:16Z</time>
      </trkpt>
      <trkpt lat="44.14735" lon="4.24855">
        <ele>231.4</ele>
        <time>2012-03-04T15:33:22Z</time>
      </trkpt>
      <trkpt lat="44.14727" lon="4.24849">
        <ele>229.9</ele>
        <time>2012-03-04T15:33:28Z</time>
      </trkpt>
      <trkpt lat="44.14723" lon="4.24838">
        <ele>228.3</ele>
        <time>2012-03-04T15:33:35Z</time>
      </trkpt>
      <trkpt lat="44.14723" lon="4.24826">
        <ele>226.7</ele>
        <time>2012-03-04T15:33:41Z</time>
      </trkpt>
      <trkpt lat="44.14726" lon="4.24815">
        <ele>226.1</ele>
        <time>2012-03-04T15:33:49Z</time>
      </trkpt>
      <trkpt lat="44.1473" lon="4.24804">
        <ele>225.6</ele>
        <time>2012-03-04T15:33:56Z</time>
      </trkpt>
      <trkpt lat="44.14734" lon="4.24794">
        <ele>225.2</ele>
        <time>2012-03-04T15:34:03Z</time>
      </trkpt>
      <trkpt lat="44.14739" lon="4.24783">
        <ele>223.2</ele>
        <time>2012-03-04T15:34:10Z</time>
      </trkpt>
      <trkpt lat="44.14739" lon="4.24782">
        <ele>222.9</ele>
        <time>2012-03-04T15:34:11Z</time>
      </trkpt>
      <trkpt lat="44.14743" lon="4.24761">
        <ele>220.7</ele>
        <time>2012-03-04T15:34:45Z</time>
      </trkpt>
      <trkpt lat="44.1474" lon="4.2475">
        <ele>219.2</ele>
        <time>2012-03-04T15:34:53Z</time>
      </trkpt>
      <trkpt lat="44.14733" lon="4.24744">
        <ele>218</ele>
        <time>2012-03-04T15:35:01Z</time>
      </trkpt>
      <trkpt lat="44.14724" lon="4.24742">
        <ele>217.1</ele>
        <time>2012-03-04T15:36:06Z</time>
      </trkpt>
      <trkpt lat="44.14724" lon="4.24742">
        <ele>217.1</ele>
        <time>2012-03-04T15:36:07Z</time>
      </trkpt>
      <trkpt lat="44.14708" lon="4.24746">
        <ele>215.8</ele>
        <time>2012-03-04T15:36:44Z</time>
      </trkpt>
      <trkpt lat="44.14701" lon="4.24752">
        <ele>215</ele>
        <time>2012-03-04T15:36:54Z</time>
      </trkpt>
      <trkpt lat="44.14698" lon="4.24763">
        <ele>216.5</ele>
        <time>2012-03-04T15:37:19Z</time>
      </trkpt>
      <trkpt lat="44.14697" lon="4.24764">
        <ele>216.4</ele>
        <time>2012-03-04T15:37:20Z</time>
      </trkpt>
      <trkpt lat="44.14684" lon="4.24779">
        <ele>216.3</ele>
        <time>2012-03-04T15:37:37Z</time>
      </trkpt>
      <trkpt lat="44.14677" lon="4.24785">
        <ele>217.7</ele>
        <time>2012-03-04T15:37:45Z</time>
      </trkpt>
      <trkpt lat="44.14671" lon="4.24793">
        <ele>218.2</ele>
        <time>2012-03-04T15:37:53Z</time>
      </trkpt>
      <trkpt lat="44.14667" lon="4.24804">
        <ele>218.9</ele>
        <time>2012-03-04T15:38:02Z</time>
      </trkpt>
      <trkpt lat="44.14663" lon="4.24813">
        <ele>219.5</ele>
        <time>2012-03-04T15:38:10Z</time>
      </trkpt>
      <trkpt lat="44.14658" lon="4.24823">
        <ele>220.1</ele>
        <time>2012-03-04T15:38:19Z</time>
      </trkpt>
      <trkpt lat="44.14654" lon="4.24834">
        <ele>219.7</ele>
        <time>2012-03-04T15:38:28Z</time>
      </trkpt>
      <trkpt lat="44.14653" lon="4.24834">
        <ele>219.6</ele>
        <time>2012-03-04T15:38:29Z</time>
      </trkpt>
      <trkpt lat="44.14639" lon="4.24844">
        <ele>220.8</ele>
        <time>2012-03-04T15:38:49Z</time>
      </trkpt>
      <trkpt lat="44.14631" lon="4.24848">
        <ele>220.2</ele>
        <time>2012-03-04T15:39:18Z</time>
      </trkpt>
      <trkpt lat="44.14623" lon="4.24852">
        <ele>221.1</ele>
        <time>2012-03-04T15:39:39Z</time>
      </trkpt>
      <trkpt lat="44.14622" lon="4.24852">
        <ele>221.1</ele>
        <time>2012-03-04T15:39:40Z</time>
      </trkpt>
      <trkpt lat="44.14607" lon="4.24861">
        <ele>222.3</ele>
        <time>2012-03-04T15:40:25Z</time>
      </trkpt>
      <trkpt lat="44.14598" lon="4.24862">
        <ele>222</ele>
        <time>2012-03-04T15:40:37Z</time>
      </trkpt>
      <trkpt lat="44.1459" lon="4.24864">
        <ele>221.8</ele>
        <time>2012-03-04T15:40:52Z</time>
      </trkpt>
      <trkpt lat="44.14589" lon="4.24864">
        <ele>221.8</ele>
        <time>2012-03-04T15:40:53Z</time>
      </trkpt>
      <trkpt lat="44.14574" lon="4.24871">
        <ele>223.2</ele>
        <time>2012-03-04T15:41:14Z</time>
      </trkpt>
      <trkpt lat="44.14567" lon="4.2488">
        <ele>223.3</ele>
        <time>2012-03-04T15:41:25Z</time>
      </trkpt>
      <trkpt lat="44.14566" lon="4.24892">
        <ele>223.9</ele>
        <time>2012-03-04T15:41:35Z</time>
      </trkpt>
      <trkpt lat="44.14567" lon="4.24905">
        <ele>225.5</ele>
        <time>2012-03-04T15:42:08Z</time>
      </trkpt>
      <trkpt lat="44.14567" lon="4.24905">
        <ele>225.7</ele>
        <time>2012-03-04T15:42:09Z</time>
      </trkpt>
      <trkpt lat="44.14572" lon="4.24882">
        <ele>223.4</ele>
        <time>2012-03-04T15:43:21Z</time>
      </trkpt>
      <trkpt lat="44.14572" lon="4.24881">
        <ele>223.1</ele>
        <time>2012-03-04T15:43:22Z</time>
      </trkpt>
      <trkpt lat="44.14586" lon="4.24867">
        <ele>222.4</ele>
        <time>2012-03-04T15:43:57Z</time>
      </trkpt>
      <trkpt lat="44.14594" lon="4.24862">
        <ele>221</ele>
        <time>2012-03-04T15:44:16Z</time>
      </trkpt>
      <trkpt lat="44.14601" lon="4.24859">
        <ele>220.8</ele>
        <time>2012-03-04T15:44:22Z</time>
      </trkpt>
      <trkpt lat="44.14603" lon="4.24858">
        <ele>220.9</ele>
        <time>2012-03-04T15:44:23Z</time>
      </trkpt>
      <trkpt lat="44.14618" lon="4.24854">
        <ele>221.1</ele>
        <time>2012-03-04T15:44:38Z</time>
      </trkpt>
      <trkpt lat="44.14627" lon="4.24854">
        <ele>220.4</ele>
        <time>2012-03-04T15:45:01Z</time>
      </trkpt>
      <trkpt lat="44.14632" lon="4.24864">
        <ele>223.8</ele>
        <time>2012-03-04T15:46:52Z</time>
      </trkpt>
      <trkpt lat="44.14632" lon="4.24865">
        <ele>224</ele>
        <time>2012-03-04T15:46:53Z</time>
      </trkpt>
      <trkpt lat="44.14634" lon="4.24888">
        <ele>230.1</ele>
        <time>2012-03-04T15:48:30Z</time>
      </trkpt>
      <trkpt lat="44.14634" lon="4.24889">
        <ele>230.2</ele>
        <time>2012-03-04T15:48:31Z</time>
      </trkpt>
      <trkpt lat="44.14636" lon="4.24891">
        <ele>231.3</ele>
        <time>2012-03-04T15:49:02Z</time>
      </trkpt>
      <trkpt lat="44.14644" lon="4.24888">
        <ele>232.7</ele>
        <time>2012-03-04T15:49:22Z</time>
      </trkpt>
      <trkpt lat="44.14652" lon="4.24884">
        <ele>231.5</ele>
        <time>2012-03-04T15:49:52Z</time>
      </trkpt>
      <trkpt lat="44.14653" lon="4.24884">
        <ele>231.2</ele>
        <time>2012-03-04T15:49:53Z</time>
      </trkpt>
      <trkpt lat="44.14643" lon="4.24886">
        <ele>232.1</ele>
        <time>2012-03-04T15:51:07Z</time>
      </trkpt>
      <trkpt lat="44.14628" lon="4.24895">
        <ele>234</ele>
        <time>2012-03-04T15:51:40Z</time>
      </trkpt>
      <trkpt lat="44.14635" lon="4.24887">
        <ele>229.7</ele>
        <time>2012-03-04T15:56:13Z</time>
      </trkpt>
      <trkpt lat="44.14635" lon="4.24887">
        <ele>229.1</ele>
        <time>2012-03-04T15:56:14Z</time>
      </trkpt>
      <trkpt lat="44.14626" lon="4.24884">
        <ele>230.5</ele>
        <time>2012-03-04T16:00:57Z</time>
      </trkpt>
      <trkpt lat="44.14634" lon="4.2489">
        <ele>231.3</ele>
        <time>2012-03-04T16:07:28Z</time>
      </trkpt>
      <trkpt lat="44.14625" lon="4.24893">
        <ele>231.7</ele>
        <time>2012-03-04T16:10:47Z</time>
      </trkpt>
      <trkpt lat="44.14634" lon="4.24888">
        <ele>231.4</ele>
        <time>2012-03-04T16:24:08Z</time>
      </trkpt>
      <trkpt lat="44.14634" lon="4.24864">
        <ele>225.1</ele>
        <time>2012-03-04T16:25:25Z</time>
      </trkpt>
      <trkpt lat="44.14634" lon="4.24864">
        <ele>225</ele>
        <time>2012-03-04T16:25:26Z</time>
      </trkpt>
      <trkpt lat="44.14638" lon="4.2485">
        <ele>219.1</ele>
        <time>2012-03-04T16:26:15Z</time>
      </trkpt>
      <trkpt lat="44.14646" lon="4.24845">
        <ele>218</ele>
        <time>2012-03-04T16:26:26Z</time>
      </trkpt>
      <trkpt lat="44.14647" lon="4.24845">
        <ele>218.2</ele>
        <time>2012-03-04T16:26:27Z</time>
      </trkpt>
      <trkpt lat="44.14659" lon="4.2483">
        <ele>218.6</ele>
        <time>2012-03-04T16:26:46Z</time>
      </trkpt>
      <trkpt lat="44.14663" lon="4.2482">
        <ele>217.6</ele>
        <time>2012-03-04T16:26:56Z</time>
      </trkpt>
      <trkpt lat="44.14666" lon="4.24809">
        <ele>216.8</ele>
        <time>2012-03-04T16:27:07Z</time>
      </trkpt>
      <trkpt lat="44.14671" lon="4.24799">
        <ele>217.2</ele>
        <time>2012-03-04T16:27:16Z</time>
      </trkpt>
      <trkpt lat="44.14678" lon="4.24791">
        <ele>217.8</ele>
        <time>2012-03-04T16:27:25Z</time>
      </trkpt>
      <trkpt lat="44.14684" lon="4.24783">
        <ele>216.5</ele>
        <time>2012-03-04T16:27:34Z</time>
      </trkpt>
      <trkpt lat="44.14685" lon="4.24782">
        <ele>216.4</ele>
        <time>2012-03-04T16:27:35Z</time>
      </trkpt>
      <trkpt lat="44.14695" lon="4.24766">
        <ele>214.9</ele>
        <time>2012-03-04T16:27:50Z</time>
      </trkpt>
      <trkpt lat="44.14701" lon="4.24758">
        <ele>215.2</ele>
        <time>2012-03-04T16:27:58Z</time>
      </trkpt>
      <trkpt lat="44.14708" lon="4.24751">
        <ele>214.7</ele>
        <time>2012-03-04T16:28:06Z</time>
      </trkpt>
      <trkpt lat="44.14715" lon="4.24744">
        <ele>214</ele>
        <time>2012-03-04T16:28:15Z</time>
      </trkpt>
      <trkpt lat="44.1472" lon="4.24733">
        <ele>214.1</ele>
        <time>2012-03-04T16:28:23Z</time>
      </trkpt>
      <trkpt lat="44.14726" lon="4.24725">
        <ele>214</ele>
        <time>2012-03-04T16:28:31Z</time>
      </trkpt>
      <trkpt lat="44.14732" lon="4.24717">
        <ele>213.7</ele>
        <time>2012-03-04T16:28:39Z</time>
      </trkpt>
      <trkpt lat="44.14733" lon="4.24716">
        <ele>213.6</ele>
        <time>2012-03-04T16:28:40Z</time>
      </trkpt>
      <trkpt lat="44.14744" lon="4.24701">
        <ele>213.4</ele>
        <time>2012-03-04T16:28:54Z</time>
      </trkpt>
      <trkpt lat="44.14749" lon="4.2469">
        <ele>212.5</ele>
        <time>2012-03-04T16:29:02Z</time>
      </trkpt>
      <trkpt lat="44.14752" lon="4.2468">
        <ele>213</ele>
        <time>2012-03-04T16:29:09Z</time>
      </trkpt>
      <trkpt lat="44.14754" lon="4.24669">
        <ele>212.3</ele>
        <time>2012-03-04T16:29:16Z</time>
      </trkpt>
      <trkpt lat="44.14757" lon="4.24657">
        <ele>211.7</ele>
        <time>2012-03-04T16:29:24Z</time>
      </trkpt>
      <trkpt lat="44.1476" lon="4.24646">
        <ele>211.3</ele>
        <time>2012-03-04T16:29:32Z</time>
      </trkpt>
      <trkpt lat="44.14763" lon="4.24635">
        <ele>211.7</ele>
        <time>2012-03-04T16:29:40Z</time>
      </trkpt>
      <trkpt lat="44.14764" lon="4.24634">
        <ele>212</ele>
        <time>2012-03-04T16:29:41Z</time>
      </trkpt>
      <trkpt lat="44.1477" lon="4.24614">
        <ele>211.4</ele>
        <time>2012-03-04T16:29:53Z</time>
      </trkpt>
      <trkpt lat="44.14775" lon="4.24604">
        <ele>210.4</ele>
        <time>2012-03-04T16:30:00Z</time>
      </trkpt>
      <trkpt lat="44.14779" lon="4.24593">
        <ele>210.4</ele>
        <time>2012-03-04T16:30:08Z</time>
      </trkpt>
      <trkpt lat="44.14783" lon="4.24583">
        <ele>211.4</ele>
        <time>2012-03-04T16:30:16Z</time>
      </trkpt>
      <trkpt lat="44.14787" lon="4.24571">
        <ele>210.3</ele>
        <time>2012-03-04T16:30:24Z</time>
      </trkpt>
      <trkpt lat="44.14785" lon="4.24559">
        <ele>211.5</ele>
        <time>2012-03-04T16:31:07Z</time>
      </trkpt>
      <trkpt lat="44.14785" lon="4.24559">
        <ele>210.9</ele>
        <time>2012-03-04T16:31:08Z</time>
      </trkpt>
      <trkpt lat="44.14794" lon="4.2454">
        <ele>210.2</ele>
        <time>2012-03-04T16:31:37Z</time>
      </trkpt>
      <trkpt lat="44.14798" lon="4.2453">
        <ele>210.2</ele>
        <time>2012-03-04T16:31:45Z</time>
      </trkpt>
      <trkpt lat="44.14803" lon="4.2452">
        <ele>209.7</ele>
        <time>2012-03-04T16:31:53Z</time>
      </trkpt>
      <trkpt lat="44.14807" lon="4.24509">
        <ele>209.4</ele>
        <time>2012-03-04T16:32:00Z</time>
      </trkpt>
      <trkpt lat="44.14811" lon="4.24499">
        <ele>209.4</ele>
        <time>2012-03-04T16:32:07Z</time>
      </trkpt>
      <trkpt lat="44.14815" lon="4.24489">
        <ele>209.7</ele>
        <time>2012-03-04T16:32:15Z</time>
      </trkpt>
      <trkpt lat="44.14816" lon="4.24488">
        <ele>209.8</ele>
        <time>2012-03-04T16:32:16Z</time>
      </trkpt>
      <trkpt lat="44.14825" lon="4.2447">
        <ele>209.4</ele>
        <time>2012-03-04T16:32:29Z</time>
      </trkpt>
      <trkpt lat="44.14829" lon="4.2446">
        <ele>209.4</ele>
        <time>2012-03-04T16:32:36Z</time>
      </trkpt>
      <trkpt lat="44.14834" lon="4.2445">
        <ele>209.7</ele>
        <time>2012-03-04T16:32:42Z</time>
      </trkpt>
      <trkpt lat="44.14839" lon="4.24441">
        <ele>209.5</ele>
        <time>2012-03-04T16:32:48Z</time>
      </trkpt>
      <trkpt lat="44.14843" lon="4.24432">
        <ele>209.2</ele>
        <time>2012-03-04T16:32:54Z</time>
      </trkpt>
      <trkpt lat="44.14847" lon="4.24423">
        <ele>206.2</ele>
        <time>2012-03-04T16:33:00Z</time>
      </trkpt>
      <trkpt lat="44.14852" lon="4.24413">
        <ele>208.6</ele>
        <time>2012-03-04T16:33:07Z</time>
      </trkpt>
      <trkpt lat="44.14857" lon="4.24404">
        <ele>209</ele>
        <time>2012-03-04T16:33:13Z</time>
      </trkpt>
      <trkpt lat="44.14862" lon="4.24395">
        <ele>209.3</ele>
        <time>2012-03-04T16:33:19Z</time>
      </trkpt>
      <trkpt lat="44.14863" lon="4.24394">
        <ele>209.3</ele>
        <time>2012-03-04T16:33:20Z</time>
      </trkpt>
      <trkpt lat="44.1487" lon="4.24375">
        <ele>208.2</ele>
        <time>2012-03-04T16:33:31Z</time>
      </trkpt>
      <trkpt lat="44.14872" lon="4.24364">
        <ele>208.3</ele>
        <time>2012-03-04T16:33:37Z</time>
      </trkpt>
      <trkpt lat="44.14871" lon="4.24352">
        <ele>208.7</ele>
        <time>2012-03-04T16:33:43Z</time>
      </trkpt>
      <trkpt lat="44.1487" lon="4.2434">
        <ele>208.2</ele>
        <time>2012-03-04T16:33:49Z</time>
      </trkpt>
      <trkpt lat="44.14869" lon="4.24329">
        <ele>207.1</ele>
        <time>2012-03-04T16:33:55Z</time>
      </trkpt>
      <trkpt lat="44.14866" lon="4.24318">
        <ele>206.6</ele>
        <time>2012-03-04T16:34:01Z</time>
      </trkpt>
      <trkpt lat="44.14865" lon="4.24306">
        <ele>205.8</ele>
        <time>2012-03-04T16:34:07Z</time>
      </trkpt>
      <trkpt lat="44.14865" lon="4.24295">
        <ele>205.1</ele>
        <time>2012-03-04T16:34:12Z</time>
      </trkpt>
      <trkpt lat="44.14863" lon="4.24284">
        <ele>205</ele>
        <time>2012-03-04T16:34:17Z</time>
      </trkpt>
      <trkpt lat="44.1486" lon="4.24273">
        <ele>203.8</ele>
        <time>2012-03-04T16:34:22Z</time>
      </trkpt>
      <trkpt lat="44.14859" lon="4.24271">
        <ele>203.7</ele>
        <time>2012-03-04T16:34:23Z</time>
      </trkpt>
      <trkpt lat="44.14853" lon="4.24252">
        <ele>201.5</ele>
        <time>2012-03-04T16:34:33Z</time>
      </trkpt>
      <trkpt lat="44.14852" lon="4.24242">
        <ele>200.4</ele>
        <time>2012-03-04T16:34:38Z</time>
      </trkpt>
      <trkpt lat="44.14849" lon="4.24231">
        <ele>200.3</ele>
        <time>2012-03-04T16:34:44Z</time>
      </trkpt>
      <trkpt lat="44.14847" lon="4.2422">
        <ele>200.3</ele>
        <time>2012-03-04T16:34:50Z</time>
      </trkpt>
      <trkpt lat="44.14844" lon="4.2421">
        <ele>200.1</ele>
        <time>2012-03-04T16:34:56Z</time>
      </trkpt>
      <trkpt lat="44.14841" lon="4.242">
        <ele>198.6</ele>
        <time>2012-03-04T16:35:03Z</time>
      </trkpt>
      <trkpt lat="44.14838" lon="4.24189">
        <ele>198.5</ele>
        <time>2012-03-04T16:35:11Z</time>
      </trkpt>
      <trkpt lat="44.14832" lon="4.24181">
        <ele>198</ele>
        <time>2012-03-04T16:35:18Z</time>
      </trkpt>
      <trkpt lat="44.14824" lon="4.24178">
        <ele>197.3</ele>
        <time>2012-03-04T16:35:24Z</time>
      </trkpt>
      <trkpt lat="44.14823" lon="4.24178">
        <ele>197.3</ele>
        <time>2012-03-04T16:35:25Z</time>
      </trkpt>
      <trkpt lat="44.14808" lon="4.24178">
        <ele>196.4</ele>
        <time>2012-03-04T16:35:37Z</time>
      </trkpt>
      <trkpt lat="44.14799" lon="4.24178">
        <ele>195</ele>
        <time>2012-03-04T16:35:44Z</time>
      </trkpt>
      <trkpt lat="44.1479" lon="4.24178">
        <ele>195.8</ele>
        <time>2012-03-04T16:35:51Z</time>
      </trkpt>
      <trkpt lat="44.14782" lon="4.24179">
        <ele>195.9</ele>
        <time>2012-03-04T16:35:58Z</time>
      </trkpt>
      <trkpt lat="44.14773" lon="4.24179">
        <ele>194.3</ele>
        <time>2012-03-04T16:36:06Z</time>
      </trkpt>
      <trkpt lat="44.14764" lon="4.24179">
        <ele>194.4</ele>
        <time>2012-03-04T16:36:15Z</time>
      </trkpt>
      <trkpt lat="44.14756" lon="4.24179">
        <ele>193.7</ele>
        <time>2012-03-04T16:36:24Z</time>
      </trkpt>
      <trkpt lat="44.14748" lon="4.24178">
        <ele>192.5</ele>
        <time>2012-03-04T16:36:32Z</time>
      </trkpt>
      <trkpt lat="44.14747" lon="4.24178">
        <ele>192.7</ele>
        <time>2012-03-04T16:36:33Z</time>
      </trkpt>
      <trkpt lat="44.14731" lon="4.24177">
        <ele>193.2</ele>
        <time>2012-03-04T16:36:47Z</time>
      </trkpt>
      <trkpt lat="44.14723" lon="4.24177">
        <ele>193</ele>
        <time>2012-03-04T16:36:54Z</time>
      </trkpt>
      <trkpt lat="44.14714" lon="4.24177">
        <ele>192.8</ele>
        <time>2012-03-04T16:37:01Z</time>
      </trkpt>
      <trkpt lat="44.14707" lon="4.24176">
        <ele>191.1</ele>
        <time>2012-03-04T16:37:08Z</time>
      </trkpt>
      <trkpt lat="44.14699" lon="4.24175">
        <ele>194.2</ele>
        <time>2012-03-04T16:37:15Z</time>
      </trkpt>
      <trkpt lat="44.1469" lon="4.24174">
        <ele>191.7</ele>
        <time>2012-03-04T16:37:23Z</time>
      </trkpt>
      <trkpt lat="44.14681" lon="4.24172">
        <ele>190.6</ele>
        <time>2012-03-04T16:37:31Z</time>
      </trkpt>
      <trkpt lat="44.14672" lon="4.2417">
        <ele>190.2</ele>
        <time>2012-03-04T16:37:39Z</time>
      </trkpt>
      <trkpt lat="44.14671" lon="4.2417">
        <ele>190.4</ele>
        <time>2012-03-04T16:37:40Z</time>
      </trkpt>
      <trkpt lat="44.14655" lon="4.24167">
        <ele>190</ele>
        <time>2012-03-04T16:37:54Z</time>
      </trkpt>
      <trkpt lat="44.14647" lon="4.24165">
        <ele>189.4</ele>
        <time>2012-03-04T16:38:01Z</time>
      </trkpt>
      <trkpt lat="44.14639" lon="4.24163">
        <ele>190.1</ele>
        <time>2012-03-04T16:38:08Z</time>
      </trkpt>
      <trkpt lat="44.14631" lon="4.24161">
        <ele>190.7</ele>
        <time>2012-03-04T16:38:14Z</time>
      </trkpt>
      <trkpt lat="44.14622" lon="4.24159">
        <ele>190.4</ele>
        <time>2012-03-04T16:38:21Z</time>
      </trkpt>
      <trkpt lat="44.14614" lon="4.24157">
        <ele>190.2</ele>
        <time>2012-03-04T16:38:28Z</time>
      </trkpt>
      <trkpt lat="44.14606" lon="4.24154">
        <ele>189.5</ele>
        <time>2012-03-04T16:38:35Z</time>
      </trkpt>
      <trkpt lat="44.14597" lon="4.24152">
        <ele>189.2</ele>
        <time>2012-03-04T16:38:42Z</time>
      </trkpt>
      <trkpt lat="44.14596" lon="4.24152">
        <ele>189.4</ele>
        <time>2012-03-04T16:38:43Z</time>
      </trkpt>
      <trkpt lat="44.1458" lon="4.24147">
        <ele>189.2</ele>
        <time>2012-03-04T16:38:56Z</time>
      </trkpt>
      <trkpt lat="44.14571" lon="4.24144">
        <ele>189.5</ele>
        <time>2012-03-04T16:39:03Z</time>
      </trkpt>
      <trkpt lat="44.14563" lon="4.24141">
        <ele>188.8</ele>
        <time>2012-03-04T16:39:10Z</time>
      </trkpt>
      <trkpt lat="44.14554" lon="4.24138">
        <ele>189.2</ele>
        <time>2012-03-04T16:39:17Z</time>
      </trkpt>
      <trkpt lat="44.14546" lon="4.24135">
        <ele>189.6</ele>
        <time>2012-03-04T16:39:24Z</time>
      </trkpt>
      <trkpt lat="44.14538" lon="4.24133">
        <ele>189.2</ele>
        <time>2012-03-04T16:39:31Z</time>
      </trkpt>
      <trkpt lat="44.1453" lon="4.2413">
        <ele>189</ele>
        <time>2012-03-04T16:39:38Z</time>
      </trkpt>
      <trkpt lat="44.14522" lon="4.24126">
        <ele>188.9</ele>
        <time>2012-03-04T16:39:45Z</time>
      </trkpt>
      <trkpt lat="44.1452" lon="4.24125">
        <ele>188.7</ele>
        <time>2012-03-04T16:39:46Z</time>
      </trkpt>
      <trkpt lat="44.14506" lon="4.24116">
        <ele>189</ele>
        <time>2012-03-04T16:39:59Z</time>
      </trkpt>
      <trkpt lat="44.14498" lon="4.24111">
        <ele>188.4</ele>
        <time>2012-03-04T16:40:06Z</time>
      </trkpt>
      <trkpt lat="44.1449" lon="4.24106">
        <ele>189.2</ele>
        <time>2012-03-04T16:40:12Z</time>
      </trkpt>
      <trkpt lat="44.14482" lon="4.24101">
        <ele>189.3</ele>
        <time>2012-03-04T16:40:19Z</time>
      </trkpt>
      <trkpt lat="44.14474" lon="4.24097">
        <ele>188.5</ele>
        <time>2012-03-04T16:40:26Z</time>
      </trkpt>
      <trkpt lat="44.14466" lon="4.24094">
        <ele>184.7</ele>
        <time>2012-03-04T16:40:33Z</time>
      </trkpt>
      <trkpt lat="44.14458" lon="4.24092">
        <ele>190.2</ele>
        <time>2012-03-04T16:41:06Z</time>
      </trkpt>
      <trkpt lat="44.14457" lon="4.24091">
        <ele>189.9</ele>
        <time>2012-03-04T16:41:07Z</time>
      </trkpt>
      <trkpt lat="44.14441" lon="4.24087">
        <ele>190.7</ele>
        <time>2012-03-04T16:41:24Z</time>
      </trkpt>
      <trkpt lat="44.14433" lon="4.24084">
        <ele>189.8</ele>
        <time>2012-03-04T16:41:34Z</time>
      </trkpt>
      <trkpt lat="44.14425" lon="4.24081">
        <ele>189.8</ele>
        <time>2012-03-04T16:41:41Z</time>
      </trkpt>
      <trkpt lat="44.14416" lon="4.2408">
        <ele>188.7</ele>
        <time>2012-03-04T16:41:48Z</time>
      </trkpt>
      <trkpt lat="44.14408" lon="4.24082">
        <ele>188.9</ele>
        <time>2012-03-04T16:41:55Z</time>
      </trkpt>
      <trkpt lat="44.14401" lon="4.24084">
        <ele>190.2</ele>
        <time>2012-03-04T16:42:02Z</time>
      </trkpt>
      <trkpt lat="44.14392" lon="4.24086">
        <ele>190.6</ele>
        <time>2012-03-04T16:42:09Z</time>
      </trkpt>
      <trkpt lat="44.14391" lon="4.24086">
        <ele>190.7</ele>
        <time>2012-03-04T16:42:10Z</time>
      </trkpt>
      <trkpt lat="44.14375" lon="4.24089">
        <ele>190.4</ele>
        <time>2012-03-04T16:42:23Z</time>
      </trkpt>
      <trkpt lat="44.14367" lon="4.24091">
        <ele>190.4</ele>
        <time>2012-03-04T16:42:30Z</time>
      </trkpt>
      <trkpt lat="44.14359" lon="4.24092">
        <ele>190.3</ele>
        <time>2012-03-04T16:42:36Z</time>
      </trkpt>
      <trkpt lat="44.14351" lon="4.24093">
        <ele>189.3</ele>
        <time>2012-03-04T16:42:42Z</time>
      </trkpt>
      <trkpt lat="44.14342" lon="4.24094">
        <ele>189.9</ele>
        <time>2012-03-04T16:42:49Z</time>
      </trkpt>
      <trkpt lat="44.14333" lon="4.24096">
        <ele>190.8</ele>
        <time>2012-03-04T16:42:56Z</time>
      </trkpt>
      <trkpt lat="44.14325" lon="4.24098">
        <ele>190.9</ele>
        <time>2012-03-04T16:43:04Z</time>
      </trkpt>
      <trkpt lat="44.14316" lon="4.24101">
        <ele>190.4</ele>
        <time>2012-03-04T16:43:12Z</time>
      </trkpt>
      <trkpt lat="44.14315" lon="4.24101">
        <ele>190.3</ele>
        <time>2012-03-04T16:43:13Z</time>
      </trkpt>
      <trkpt lat="44.143" lon="4.24105">
        <ele>191.5</ele>
        <time>2012-03-04T16:43:26Z</time>
      </trkpt>
      <trkpt lat="44.14292" lon="4.24107">
        <ele>191.2</ele>
        <time>2012-03-04T16:43:33Z</time>
      </trkpt>
      <trkpt lat="44.14284" lon="4.24105">
        <ele>192.2</ele>
        <time>2012-03-04T16:43:41Z</time>
      </trkpt>
      <trkpt lat="44.14277" lon="4.24097">
        <ele>192.1</ele>
        <time>2012-03-04T16:43:49Z</time>
      </trkpt>
      <trkpt lat="44.14271" lon="4.24089">
        <ele>191.8</ele>
        <time>2012-03-04T16:43:55Z</time>
      </trkpt>
      <trkpt lat="44.14264" lon="4.24081">
        <ele>191.9</ele>
        <time>2012-03-04T16:44:02Z</time>
      </trkpt>
      <trkpt lat="44.14257" lon="4.24073">
        <ele>192.4</ele>
        <time>2012-03-04T16:44:09Z</time>
      </trkpt>
      <trkpt lat="44.1425" lon="4.24066">
        <ele>192.5</ele>
        <time>2012-03-04T16:44:16Z</time>
      </trkpt>
      <trkpt lat="44.14249" lon="4.24065">
        <ele>192.7</ele>
        <time>2012-03-04T16:44:17Z</time>
      </trkpt>
      <trkpt lat="44.14236" lon="4.24053">
        <ele>192.5</ele>
        <time>2012-03-04T16:44:30Z</time>
      </trkpt>
      <trkpt lat="44.14229" lon="4.24047">
        <ele>192.2</ele>
        <time>2012-03-04T16:44:36Z</time>
      </trkpt>
      <trkpt lat="44.14222" lon="4.24041">
        <ele>192.4</ele>
        <time>2012-03-04T16:44:42Z</time>
      </trkpt>
      <trkpt lat="44.14216" lon="4.24036">
        <ele>192.5</ele>
        <time>2012-03-04T16:44:48Z</time>
      </trkpt>
      <trkpt lat="44.14209" lon="4.24031">
        <ele>192.3</ele>
        <time>2012-03-04T16:44:54Z</time>
      </trkpt>
      <trkpt lat="44.14201" lon="4.24026">
        <ele>191.9</ele>
        <time>2012-03-04T16:45:00Z</time>
      </trkpt>
      <trkpt lat="44.14194" lon="4.24021">
        <ele>191.6</ele>
        <time>2012-03-04T16:45:06Z</time>
      </trkpt>
      <trkpt lat="44.14186" lon="4.24017">
        <ele>191.3</ele>
        <time>2012-03-04T16:45:12Z</time>
      </trkpt>
      <trkpt lat="44.14178" lon="4.24013">
        <ele>191.1</ele>
        <time>2012-03-04T16:45:18Z</time>
      </trkpt>
      <trkpt lat="44.14177" lon="4.24012">
        <ele>191.2</ele>
        <time>2012-03-04T16:45:19Z</time>
      </trkpt>
      <trkpt lat="44.14163" lon="4.24005">
        <ele>190.8</ele>
        <time>2012-03-04T16:45:30Z</time>
      </trkpt>
      <trkpt lat="44.14156" lon="4.24001">
        <ele>190.8</ele>
        <time>2012-03-04T16:45:36Z</time>
      </trkpt>
      <trkpt lat="44.14148" lon="4.23998">
        <ele>190.5</ele>
        <time>2012-03-04T16:45:42Z</time>
      </trkpt>
      <trkpt lat="44.1414" lon="4.23994">
        <ele>189.8</ele>
        <time>2012-03-04T16:45:48Z</time>
      </trkpt>
      <trkpt lat="44.14132" lon="4.2399">
        <ele>190.1</ele>
        <time>2012-03-04T16:45:54Z</time>
      </trkpt>
      <trkpt lat="44.14125" lon="4.23986">
        <ele>189.3</ele>
        <time>2012-03-04T16:46:00Z</time>
      </trkpt>
      <trkpt lat="44.14118" lon="4.23981">
        <ele>189.3</ele>
        <time>2012-03-04T16:46:06Z</time>
      </trkpt>
      <trkpt lat="44.1411" lon="4.23976">
        <ele>190.3</ele>
        <time>2012-03-04T16:46:12Z</time>
      </trkpt>
      <trkpt lat="44.14103" lon="4.2397">
        <ele>189</ele>
        <time>2012-03-04T16:46:18Z</time>
      </trkpt>
      <trkpt lat="44.14096" lon="4.23965">
        <ele>188.6</ele>
        <time>2012-03-04T16:46:24Z</time>
      </trkpt>
      <trkpt lat="44.14095" lon="4.23964">
        <ele>188.3</ele>
        <time>2012-03-04T16:46:25Z</time>
      </trkpt>
      <trkpt lat="44.14083" lon="4.23951">
        <ele>187</ele>
        <time>2012-03-04T16:46:36Z</time>
      </trkpt>
      <trkpt lat="44.14077" lon="4.23944">
        <ele>187.9</ele>
        <time>2012-03-04T16:46:42Z</time>
      </trkpt>
      <trkpt lat="44.1407" lon="4.23935">
        <ele>188.3</ele>
        <time>2012-03-04T16:46:50Z</time>
      </trkpt>
      <trkpt lat="44.14065" lon="4.23926">
        <ele>188.5</ele>
        <time>2012-03-04T16:47:12Z</time>
      </trkpt>
      <trkpt lat="44.14059" lon="4.23917">
        <ele>189</ele>
        <time>2012-03-04T16:47:20Z</time>
      </trkpt>
      <trkpt lat="44.14052" lon="4.23908">
        <ele>188.5</ele>
        <time>2012-03-04T16:47:28Z</time>
      </trkpt>
      <trkpt lat="44.14052" lon="4.23907">
        <ele>188.4</ele>
        <time>2012-03-04T16:47:29Z</time>
      </trkpt>
      <trkpt lat="44.14041" lon="4.23892">
        <ele>186.9</ele>
        <time>2012-03-04T16:47:42Z</time>
      </trkpt>
      <trkpt lat="44.14035" lon="4.23883">
        <ele>187.9</ele>
        <time>2012-03-04T16:47:49Z</time>
      </trkpt>
      <trkpt lat="44.14029" lon="4.23876">
        <ele>188.1</ele>
        <time>2012-03-04T16:47:55Z</time>
      </trkpt>
      <trkpt lat="44.14022" lon="4.2387">
        <ele>188.2</ele>
        <time>2012-03-04T16:48:01Z</time>
      </trkpt>
      <trkpt lat="44.14015" lon="4.23865">
        <ele>188.1</ele>
        <time>2012-03-04T16:48:07Z</time>
      </trkpt>
      <trkpt lat="44.14008" lon="4.2386">
        <ele>187.7</ele>
        <time>2012-03-04T16:48:13Z</time>
      </trkpt>
      <trkpt lat="44.14" lon="4.23856">
        <ele>187</ele>
        <time>2012-03-04T16:48:19Z</time>
      </trkpt>
      <trkpt lat="44.13993" lon="4.23851">
        <ele>187.2</ele>
        <time>2012-03-04T16:48:25Z</time>
      </trkpt>
      <trkpt lat="44.13985" lon="4.23848">
        <ele>186.8</ele>
        <time>2012-03-04T16:48:31Z</time>
      </trkpt>
      <trkpt lat="44.13984" lon="4.23847">
        <ele>186.8</ele>
        <time>2012-03-04T16:48:32Z</time>
      </trkpt>
      <trkpt lat="44.13969" lon="4.23843">
        <ele>187.1</ele>
        <time>2012-03-04T16:48:44Z</time>
      </trkpt>
      <trkpt lat="44.1396" lon="4.23841">
        <ele>187</ele>
        <time>2012-03-04T16:48:51Z</time>
      </trkpt>
      <trkpt lat="44.13952" lon="4.23839">
        <ele>186.5</ele>
        <time>2012-03-04T16:48:58Z</time>
      </trkpt>
      <trkpt lat="44.13944" lon="4.23838">
        <ele>186</ele>
        <time>2012-03-04T16:49:05Z</time>
      </trkpt>
      <trkpt lat="44.13935" lon="4.23837">
        <ele>186.7</ele>
        <time>2012-03-04T16:49:12Z</time>
      </trkpt>
      <trkpt lat="44.13927" lon="4.23834">
        <ele>186.2</ele>
        <time>2012-03-04T16:49:19Z</time>
      </trkpt>
      <trkpt lat="44.13918" lon="4.23833">
        <ele>186.5</ele>
        <time>2012-03-04T16:49:26Z</time>
      </trkpt>
      <trkpt lat="44.1391" lon="4.23832">
        <ele>185.6</ele>
        <time>2012-03-04T16:49:33Z</time>
      </trkpt>
      <trkpt lat="44.13909" lon="4.23832">
        <ele>185.7</ele>
        <time>2012-03-04T16:49:34Z</time>
      </trkpt>
      <trkpt lat="44.13893" lon="4.23827">
        <ele>184.6</ele>
        <time>2012-03-04T16:49:47Z</time>
      </trkpt>
      <trkpt lat="44.13885" lon="4.23825">
        <ele>185.5</ele>
        <time>2012-03-04T16:49:53Z</time>
      </trkpt>
      <trkpt lat="44.13877" lon="4.23823">
        <ele>185.7</ele>
        <time>2012-03-04T16:49:59Z</time>
      </trkpt>
      <trkpt lat="44.13869" lon="4.23821">
        <ele>186.2</ele>
        <time>2012-03-04T16:50:06Z</time>
      </trkpt>
      <trkpt lat="44.1386" lon="4.23819">
        <ele>187.4</ele>
        <time>2012-03-04T16:50:15Z</time>
      </trkpt>
      <trkpt lat="44.13852" lon="4.23817">
        <ele>186</ele>
        <time>2012-03-04T16:50:23Z</time>
      </trkpt>
      <trkpt lat="44.13844" lon="4.23813">
        <ele>186.1</ele>
        <time>2012-03-04T16:50:30Z</time>
      </trkpt>
      <trkpt lat="44.13837" lon="4.23807">
        <ele>186.9</ele>
        <time>2012-03-04T16:50:37Z</time>
      </trkpt>
      <trkpt lat="44.13836" lon="4.23807">
        <ele>187</ele>
        <time>2012-03-04T16:50:38Z</time>
      </trkpt>
      <trkpt lat="44.13822" lon="4.23796">
        <ele>186.7</ele>
        <time>2012-03-04T16:50:51Z</time>
      </trkpt>
      <trkpt lat="44.13815" lon="4.2379">
        <ele>186.8</ele>
        <time>2012-03-04T16:50:58Z</time>
      </trkpt>
      <trkpt lat="44.13807" lon="4.23784">
        <ele>186.9</ele>
        <time>2012-03-04T16:51:05Z</time>
      </trkpt>
      <trkpt lat="44.138" lon="4.23778">
        <ele>187</ele>
        <time>2012-03-04T16:51:12Z</time>
      </trkpt>
      <trkpt lat="44.13792" lon="4.23772">
        <ele>187.2</ele>
        <time>2012-03-04T16:51:19Z</time>
      </trkpt>
      <trkpt lat="44.13784" lon="4.23767">
        <ele>188</ele>
        <time>2012-03-04T16:51:26Z</time>
      </trkpt>
      <trkpt lat="44.13777" lon="4.23763">
        <ele>188.2</ele>
        <time>2012-03-04T16:51:32Z</time>
      </trkpt>
      <trkpt lat="44.13769" lon="4.23759">
        <ele>188.3</ele>
        <time>2012-03-04T16:51:39Z</time>
      </trkpt>
      <trkpt lat="44.13767" lon="4.23758">
        <ele>188.3</ele>
        <time>2012-03-04T16:51:40Z</time>
      </trkpt>
      <trkpt lat="44.13752" lon="4.2375">
        <ele>188.3</ele>
        <time>2012-03-04T16:51:53Z</time>
      </trkpt>
      <trkpt lat="44.13744" lon="4.23747">
        <ele>187.8</ele>
        <time>2012-03-04T16:51:59Z</time>
      </trkpt>
      <trkpt lat="44.13737" lon="4.23743">
        <ele>187.8</ele>
        <time>2012-03-04T16:52:05Z</time>
      </trkpt>
      <trkpt lat="44.13731" lon="4.23739">
        <ele>188.1</ele>
        <time>2012-03-04T16:52:08Z</time>
      </trkpt>
      <trkpt lat="44.13724" lon="4.23735">
        <ele>188.6</ele>
        <time>2012-03-04T16:52:11Z</time>
      </trkpt>
      <trkpt lat="44.13716" lon="4.23731">
        <ele>188.4</ele>
        <time>2012-03-04T16:52:16Z</time>
      </trkpt>
      <trkpt lat="44.13709" lon="4.23728">
        <ele>188.3</ele>
        <time>2012-03-04T16:52:18Z</time>
      </trkpt>
      <trkpt lat="44.13701" lon="4.23725">
        <ele>188.3</ele>
        <time>2012-03-04T16:52:19Z</time>
      </trkpt>
      <trkpt lat="44.13693" lon="4.23721">
        <ele>188.3</ele>
        <time>2012-03-04T16:52:21Z</time>
      </trkpt>
      <trkpt lat="44.13686" lon="4.23718">
        <ele>188.3</ele>
        <time>2012-03-04T16:52:25Z</time>
      </trkpt>
      <trkpt lat="44.13681" lon="4.23715">
        <ele>188.3</ele>
        <time>2012-03-04T16:52:29Z</time>
      </trkpt>
      <trkpt lat="44.13676" lon="4.23712">
        <ele>188.3</ele>
        <time>2012-03-04T16:52:33Z</time>
      </trkpt>
      <trkpt lat="44.13671" lon="4.23709">
        <ele>188.1</ele>
        <time>2012-03-04T16:52:37Z</time>
      </trkpt>
      <trkpt lat="44.13666" lon="4.23706">
        <ele>188</ele>
        <time>2012-03-04T16:52:41Z</time>
      </trkpt>
      <trkpt lat="44.13661" lon="4.23703">
        <ele>188.1</ele>
        <time>2012-03-04T16:52:42Z</time>
      </trkpt>
      <trkpt lat="44.13656" lon="4.23699">
        <ele>188.9</ele>
        <time>2012-03-04T16:52:49Z</time>
      </trkpt>
      <trkpt lat="44.13652" lon="4.23696">
        <ele>188.5</ele>
        <time>2012-03-04T16:52:53Z</time>
      </trkpt>
      <trkpt lat="44.13647" lon="4.23692">
        <ele>188.9</ele>
        <time>2012-03-04T16:52:57Z</time>
      </trkpt>
      <trkpt lat="44.13643" lon="4.23688">
        <ele>189.1</ele>
        <time>2012-03-04T16:53:01Z</time>
      </trkpt>
      <trkpt lat="44.13638" lon="4.23684">
        <ele>188.7</ele>
        <time>2012-03-04T16:53:05Z</time>
      </trkpt>
      <trkpt lat="44.13634" lon="4.23681">
        <ele>188.2</ele>
        <time>2012-03-04T16:53:09Z</time>
      </trkpt>
      <trkpt lat="44.13629" lon="4.23677">
        <ele>188.2</ele>
        <time>2012-03-04T16:53:13Z</time>
      </trkpt>
      <trkpt lat="44.13624" lon="4.23674">
        <ele>188.4</ele>
        <time>2012-03-04T16:53:17Z</time>
      </trkpt>
      <trkpt lat="44.1362" lon="4.2367">
        <ele>188.1</ele>
        <time>2012-03-04T16:53:21Z</time>
      </trkpt>
      <trkpt lat="44.13615" lon="4.23667">
        <ele>187.7</ele>
        <time>2012-03-04T16:53:25Z</time>
      </trkpt>
      <trkpt lat="44.1361" lon="4.23663">
        <ele>187.9</ele>
        <time>2012-03-04T16:53:29Z</time>
      </trkpt>
      <trkpt lat="44.13605" lon="4.2366">
        <ele>188.2</ele>
        <time>2012-03-04T16:53:33Z</time>
      </trkpt>
      <trkpt lat="44.136" lon="4.23656">
        <ele>188</ele>
        <time>2012-03-04T16:53:37Z</time>
      </trkpt>
      <trkpt lat="44.13596" lon="4.23653">
        <ele>187.6</ele>
        <time>2012-03-04T16:53:41Z</time>
      </trkpt>
      <trkpt lat="44.13591" lon="4.2365">
        <ele>188</ele>
        <time>2012-03-04T16:53:45Z</time>
      </trkpt>
      <trkpt lat="44.13586" lon="4.23646">
        <ele>188.1</ele>
        <time>2012-03-04T16:53:46Z</time>
      </trkpt>
      <trkpt lat="44.13581" lon="4.23643">
        <ele>187.9</ele>
        <time>2012-03-04T16:53:53Z</time>
      </trkpt>
      <trkpt lat="44.13576" lon="4.2364">
        <ele>187.6</ele>
        <time>2012-03-04T16:53:57Z</time>
      </trkpt>
      <trkpt lat="44.13572" lon="4.23636">
        <ele>187.1</ele>
        <time>2012-03-04T16:54:01Z</time>
      </trkpt>
      <trkpt lat="44.13567" lon="4.23633">
        <ele>187.7</ele>
        <time>2012-03-04T16:54:05Z</time>
      </trkpt>
      <trkpt lat="44.13562" lon="4.23629">
        <ele>187.5</ele>
        <time>2012-03-04T16:54:09Z</time>
      </trkpt>
      <trkpt lat="44.13557" lon="4.23625">
        <ele>187.5</ele>
        <time>2012-03-04T16:54:13Z</time>
      </trkpt>
      <trkpt lat="44.13553" lon="4.23621">
        <ele>187.4</ele>
        <time>2012-03-04T16:54:17Z</time>
      </trkpt>
      <trkpt lat="44.13548" lon="4.23617">
        <ele>187.1</ele>
        <time>2012-03-04T16:54:21Z</time>
      </trkpt>
      <trkpt lat="44.13544" lon="4.23613">
        <ele>187.2</ele>
        <time>2012-03-04T16:54:25Z</time>
      </trkpt>
      <trkpt lat="44.13539" lon="4.23609">
        <ele>187.4</ele>
        <time>2012-03-04T16:54:29Z</time>
      </trkpt>
      <trkpt lat="44.13534" lon="4.23605">
        <ele>187.4</ele>
        <time>2012-03-04T16:54:33Z</time>
      </trkpt>
      <trkpt lat="44.1353" lon="4.23601">
        <ele>187.8</ele>
        <time>2012-03-04T16:54:38Z</time>
      </trkpt>
      <trkpt lat="44.13523" lon="4.23597">
        <ele>187.6</ele>
        <time>2012-03-04T16:54:42Z</time>
      </trkpt>
      <trkpt lat="44.13518" lon="4.23594">
        <ele>187.7</ele>
        <time>2012-03-04T16:54:46Z</time>
      </trkpt>
      <trkpt lat="44.13513" lon="4.23592">
        <ele>187.8</ele>
        <time>2012-03-04T16:54:47Z</time>
      </trkpt>
      <trkpt lat="44.13508" lon="4.23589">
        <ele>187.7</ele>
        <time>2012-03-04T16:54:54Z</time>
      </trkpt>
      <trkpt lat="44.13503" lon="4.23587">
        <ele>187.2</ele>
        <time>2012-03-04T16:54:58Z</time>
      </trkpt>
      <trkpt lat="44.13497" lon="4.23584">
        <ele>187.3</ele>
        <time>2012-03-04T16:55:02Z</time>
      </trkpt>
      <trkpt lat="44.13492" lon="4.23582">
        <ele>187.4</ele>
        <time>2012-03-04T16:55:06Z</time>
      </trkpt>
      <trkpt lat="44.13486" lon="4.2358">
        <ele>187.2</ele>
        <time>2012-03-04T16:55:10Z</time>
      </trkpt>
      <trkpt lat="44.13481" lon="4.23578">
        <ele>187.4</ele>
        <time>2012-03-04T16:55:14Z</time>
      </trkpt>
      <trkpt lat="44.13475" lon="4.23575">
        <ele>187.2</ele>
        <time>2012-03-04T16:55:18Z</time>
      </trkpt>
      <trkpt lat="44.1347" lon="4.23573">
        <ele>187.1</ele>
        <time>2012-03-04T16:55:22Z</time>
      </trkpt>
      <trkpt lat="44.13462" lon="4.2357">
        <ele>186.9</ele>
        <time>2012-03-04T16:55:26Z</time>
      </trkpt>
      <trkpt lat="44.13454" lon="4.23567">
        <ele>186.4</ele>
        <time>2012-03-04T16:55:32Z</time>
      </trkpt>
      <trkpt lat="44.13446" lon="4.23563">
        <ele>186.2</ele>
        <time>2012-03-04T16:55:38Z</time>
      </trkpt>
      <trkpt lat="44.13439" lon="4.23558">
        <ele>186.2</ele>
        <time>2012-03-04T16:55:44Z</time>
      </trkpt>
      <trkpt lat="44.13431" lon="4.23553">
        <ele>186.5</ele>
        <time>2012-03-04T16:55:51Z</time>
      </trkpt>
      <trkpt lat="44.1343" lon="4.23552">
        <ele>186.6</ele>
        <time>2012-03-04T16:55:52Z</time>
      </trkpt>
      <trkpt lat="44.13416" lon="4.23544">
        <ele>186.1</ele>
        <time>2012-03-04T16:56:04Z</time>
      </trkpt>
      <trkpt lat="44.1341" lon="4.23538">
        <ele>185.8</ele>
        <time>2012-03-04T16:56:11Z</time>
      </trkpt>
      <trkpt lat="44.13402" lon="4.23531">
        <ele>185.7</ele>
        <time>2012-03-04T16:56:19Z</time>
      </trkpt>
      <trkpt lat="44.13395" lon="4.23526">
        <ele>185.4</ele>
        <time>2012-03-04T16:56:27Z</time>
      </trkpt>
      <trkpt lat="44.13386" lon="4.23523">
        <ele>185.7</ele>
        <time>2012-03-04T16:56:35Z</time>
      </trkpt>
      <trkpt lat="44.13378" lon="4.2352">
        <ele>185.5</ele>
        <time>2012-03-04T16:56:42Z</time>
      </trkpt>
      <trkpt lat="44.1337" lon="4.23517">
        <ele>185.3</ele>
        <time>2012-03-04T16:56:48Z</time>
      </trkpt>
      <trkpt lat="44.13362" lon="4.23515">
        <ele>185.7</ele>
        <time>2012-03-04T16:56:54Z</time>
      </trkpt>
      <trkpt lat="44.13361" lon="4.23514">
        <ele>185.7</ele>
        <time>2012-03-04T16:56:55Z</time>
      </trkpt>
      <trkpt lat="44.13347" lon="4.23509">
        <ele>185.7</ele>
        <time>2012-03-04T16:57:06Z</time>
      </trkpt>
      <trkpt lat="44.13339" lon="4.23506">
        <ele>185.5</ele>
        <time>2012-03-04T16:57:13Z</time>
      </trkpt>
      <trkpt lat="44.1333" lon="4.23502">
        <ele>185</ele>
        <time>2012-03-04T16:57:20Z</time>
      </trkpt>
      <trkpt lat="44.13323" lon="4.23498">
        <ele>185.6</ele>
        <time>2012-03-04T16:57:26Z</time>
      </trkpt>
      <trkpt lat="44.13315" lon="4.23492">
        <ele>185.7</ele>
        <time>2012-03-04T16:57:33Z</time>
      </trkpt>
      <trkpt lat="44.13307" lon="4.23487">
        <ele>186</ele>
        <time>2012-03-04T16:57:40Z</time>
      </trkpt>
      <trkpt lat="44.13299" lon="4.23483">
        <ele>186.1</ele>
        <time>2012-03-04T16:57:47Z</time>
      </trkpt>
      <trkpt lat="44.13291" lon="4.23479">
        <ele>186.2</ele>
        <time>2012-03-04T16:57:54Z</time>
      </trkpt>
      <trkpt lat="44.13283" lon="4.23477">
        <ele>186.5</ele>
        <time>2012-03-04T16:58:01Z</time>
      </trkpt>
      <trkpt lat="44.13282" lon="4.23476">
        <ele>187</ele>
        <time>2012-03-04T16:58:02Z</time>
      </trkpt>
      <trkpt lat="44.13265" lon="4.23477">
        <ele>186.9</ele>
        <time>2012-03-04T16:58:14Z</time>
      </trkpt>
      <trkpt lat="44.13257" lon="4.23473">
        <ele>187</ele>
        <time>2012-03-04T16:58:20Z</time>
      </trkpt>
      <trkpt lat="44.1325" lon="4.23469">
        <ele>186.7</ele>
        <time>2012-03-04T16:58:25Z</time>
      </trkpt>
      <trkpt lat="44.13242" lon="4.23467">
        <ele>187.5</ele>
        <time>2012-03-04T16:58:31Z</time>
      </trkpt>
      <trkpt lat="44.13234" lon="4.23465">
        <ele>187.2</ele>
        <time>2012-03-04T16:58:37Z</time>
      </trkpt>
      <trkpt lat="44.13226" lon="4.23463">
        <ele>187.8</ele>
        <time>2012-03-04T16:58:43Z</time>
      </trkpt>
      <trkpt lat="44.13218" lon="4.23461">
        <ele>187.7</ele>
        <time>2012-03-04T16:58:49Z</time>
      </trkpt>
      <trkpt lat="44.13209" lon="4.23462">
        <ele>188.4</ele>
        <time>2012-03-04T16:58:56Z</time>
      </trkpt>
      <trkpt lat="44.13202" lon="4.23468">
        <ele>188.3</ele>
        <time>2012-03-04T16:59:04Z</time>
      </trkpt>
      <trkpt lat="44.13201" lon="4.23469">
        <ele>188.3</ele>
        <time>2012-03-04T16:59:05Z</time>
      </trkpt>
      <trkpt lat="44.13186" lon="4.23475">
        <ele>189</ele>
        <time>2012-03-04T16:59:19Z</time>
      </trkpt>
      <trkpt lat="44.13178" lon="4.23475">
        <ele>188.8</ele>
        <time>2012-03-04T16:59:26Z</time>
      </trkpt>
      <trkpt lat="44.13169" lon="4.23475">
        <ele>189.1</ele>
        <time>2012-03-04T16:59:33Z</time>
      </trkpt>
      <trkpt lat="44.13161" lon="4.23478">
        <ele>189.7</ele>
        <time>2012-03-04T16:59:39Z</time>
      </trkpt>
      <trkpt lat="44.13153" lon="4.23484">
        <ele>188.2</ele>
        <time>2012-03-04T16:59:46Z</time>
      </trkpt>
      <trkpt lat="44.13145" lon="4.23486">
        <ele>188.1</ele>
        <time>2012-03-04T16:59:54Z</time>
      </trkpt>
      <trkpt lat="44.13136" lon="4.2349">
        <ele>189.1</ele>
        <time>2012-03-04T17:00:16Z</time>
      </trkpt>
      <trkpt lat="44.13135" lon="4.2349">
        <ele>189.1</ele>
        <time>2012-03-04T17:00:17Z</time>
      </trkpt>
      <trkpt lat="44.1312" lon="4.23489">
        <ele>189.9</ele>
        <time>2012-03-04T17:00:30Z</time>
      </trkpt>
      <trkpt lat="44.13112" lon="4.23489">
        <ele>190.6</ele>
        <time>2012-03-04T17:00:37Z</time>
      </trkpt>
      <trkpt lat="44.13103" lon="4.2349">
        <ele>190.1</ele>
        <time>2012-03-04T17:00:44Z</time>
      </trkpt>
      <trkpt lat="44.13095" lon="4.23491">
        <ele>190.2</ele>
        <time>2012-03-04T17:00:50Z</time>
      </trkpt>
      <trkpt lat="44.13087" lon="4.23492">
        <ele>190.6</ele>
        <time>2012-03-04T17:00:57Z</time>
      </trkpt>
      <trkpt lat="44.13079" lon="4.23494">
        <ele>191</ele>
        <time>2012-03-04T17:01:05Z</time>
      </trkpt>
      <trkpt lat="44.1307" lon="4.23495">
        <ele>190.8</ele>
        <time>2012-03-04T17:01:13Z</time>
      </trkpt>
      <trkpt lat="44.13062" lon="4.23497">
        <ele>190.4</ele>
        <time>2012-03-04T17:01:25Z</time>
      </trkpt>
      <trkpt lat="44.13061" lon="4.23497">
        <ele>190.3</ele>
        <time>2012-03-04T17:01:26Z</time>
      </trkpt>
      <trkpt lat="44.13045" lon="4.23499">
        <ele>191.1</ele>
        <time>2012-03-04T17:01:41Z</time>
      </trkpt>
      <trkpt lat="44.13037" lon="4.235">
        <ele>191.5</ele>
        <time>2012-03-04T17:01:49Z</time>
      </trkpt>
      <trkpt lat="44.13028" lon="4.23501">
        <ele>191.6</ele>
        <time>2012-03-04T17:01:56Z</time>
      </trkpt>
      <trkpt lat="44.1302" lon="4.23503">
        <ele>192.1</ele>
        <time>2012-03-04T17:02:03Z</time>
      </trkpt>
      <trkpt lat="44.13011" lon="4.23504">
        <ele>192.4</ele>
        <time>2012-03-04T17:02:10Z</time>
      </trkpt>
      <trkpt lat="44.13003" lon="4.23504">
        <ele>192.1</ele>
        <time>2012-03-04T17:02:16Z</time>
      </trkpt>
      <trkpt lat="44.12995" lon="4.23503">
        <ele>193.1</ele>
        <time>2012-03-04T17:02:23Z</time>
      </trkpt>
      <trkpt lat="44.12987" lon="4.235">
        <ele>192.8</ele>
        <time>2012-03-04T17:02:30Z</time>
      </trkpt>
      <trkpt lat="44.12986" lon="4.23499">
        <ele>192.7</ele>
        <time>2012-03-04T17:02:31Z</time>
      </trkpt>
      <trkpt lat="44.12974" lon="4.23484">
        <ele>192.4</ele>
        <time>2012-03-04T17:02:44Z</time>
      </trkpt>
      <trkpt lat="44.12967" lon="4.23477">
        <ele>192.3</ele>
        <time>2012-03-04T17:02:51Z</time>
      </trkpt>
      <trkpt lat="44.1296" lon="4.23469">
        <ele>191.2</ele>
        <time>2012-03-04T17:02:59Z</time>
      </trkpt>
      <trkpt lat="44.12954" lon="4.23462">
        <ele>191.8</ele>
        <time>2012-03-04T17:03:06Z</time>
      </trkpt>
      <trkpt lat="44.12948" lon="4.23453">
        <ele>192</ele>
        <time>2012-03-04T17:03:13Z</time>
      </trkpt>
      <trkpt lat="44.12941" lon="4.23445">
        <ele>191.4</ele>
        <time>2012-03-04T17:03:20Z</time>
      </trkpt>
      <trkpt lat="44.12935" lon="4.23437">
        <ele>190.5</ele>
        <time>2012-03-04T17:03:27Z</time>
      </trkpt>
      <trkpt lat="44.12928" lon="4.23429">
        <ele>190.7</ele>
        <time>2012-03-04T17:03:34Z</time>
      </trkpt>
      <trkpt lat="44.12927" lon="4.23428">
        <ele>190.7</ele>
        <time>2012-03-04T17:03:35Z</time>
      </trkpt>
    </trkseg>
  </trk>
</gpx>